[[{"header":{"parameterUnit":"m.s-1","parameterCategory":1,"la1":31.0,"la2":29.5877,"lo1":-88.7671,"lo2":-86.6584,"dy":0.0162,"dx":0.0185,"nx":115,"ny":88,"refTime":"2024-06-04T18:00:00:Z","depth":0,"parameterNumber":2,"parameterNumberName":"U-component_of_WINDS"},"data":[0.0,0.0,0.0,0.0,0.0,0.0,0.0,0.0,0.0,0.0,0.0,0.0,0.0,0.0,0.0,0.0,0.0,0.0,0.0,0.0,0.0,0.0,0.0,0.0,0.0,0.0,0.0,0.0,0.0,0.0,0.0,0.0,0.0,0.0,0.0,0.0,0.0,0.0,0.0,0.0,0.0,0.0,0.0,0.0,0.0,0.0,0.0,0.0,0.0,0.0,0.0,0.0,0.0,0.0,0.0,0.0,0.0,0.0,0.0,0.0,0.0,0.0,0.0,0.0,0.0,0.0,0.0,0.0,0.0,0.0,0.0,0.0,0.0,0.0,0.0,0.0,0.0,0.0,0.0,0.0,0.0,0.0,0.0,0.0,0.0,0.0,0.0,0.0,0.0,0.0,0.0,0.0,0.0,0.0,0.0,0.0,0.0,0.0,0.0,0.0,0.0,0.0,0.0,0.0,0.0,0.0,0.0,0.0,0.0,0.0,0.0,0.0,0.0,0.0,0.0,0.0,0.0,0.0,0.0,0.0,0.0,0.0,0.0,0.0,0.0,0.0,0.0,0.0,0.0,0.0,0.0,0.0,0.0,0.0,0.0,0.0,0.0,0.0,0.0,0.0,0.0,0.0,0.0,0.0,0.0,0.0,0.0,0.0,0.0,0.0,0.0,0.0,0.0,0.0,0.0,0.0,0.0,0.0,0.0,0.0,0.0,0.0,0.0,0.0,0.0,0.0,0.0,0.0,0.0,0.0,0.0,0.0,0.0,0.0,0.0,0.0,0.0,0.0,0.0,0.0,0.0,0.0,0.0,0.0,0.0,0.0,0.0,0.0,0.0,0.0,0.0,0.0,0.0,0.0,0.0,0.0,0.0,0.0,0.0,0.0,0.0,0.0,0.0,0.0,0.0,0.0,0.0,0.0,0.0,0.0,0.0,0.0,0.0,0.0,0.0,0.0,0.0,0.0,0.0,0.0,0.0,0.0,0.0,0.0,0.0,0.0,0.0,0.0,0.0,0.0,0.0,0.0,0.0,0.0,0.0,0.0,0.0,0.0,0.0,0.0,0.0,0.0,0.0,0.0,0.0,0.0,0.0,0.0,0.0,0.0,0.0,0.0,0.0,0.0,0.0,0.0,0.0,0.0,0.0,0.0,0.0,0.0,0.0,0.0,0.0,0.0,0.0,0.0,0.0,0.0,0.0,0.0,0.0,0.0,0.0,0.0,0.0,0.0,0.0,0.0,0.0,0.0,0.0,0.0,0.0,0.0,0.0,0.0,0.0,0.0,0.0,0.0,0.0,0.0,0.0,0.0,0.0,0.0,0.0,0.0,0.0,0.0,0.0,0.0,0.0,0.0,0.0,0.0,0.0,0.0,0.0,0.0,0.0,0.0,0.0,0.0,0.0,0.0,0.0,0.0,0.0,0.0,0.0,0.0,0.0,0.0,0.0,0.0,0.0,0.0,0.0,0.0,0.0,0.0,0.0,0.0,0.0,0.0,0.0,0.0,0.0,0.0,0.0,0.0,0.0,0.0,0.0,0.0,0.0,0.0,0.0,0.0,0.0,0.0,0.0,0.0,0.0,0.0,0.0,0.0,0.0,0.0,0.0,0.0,0.0,0.0,0.0,0.0,0.0,0.0,0.0,0.0,0.0,0.0,0.0,0.0,0.0,0.0,0.0,0.0,0.0,0.0,0.0,0.0,0.0,0.0,0.0,0.0,0.0,0.0,0.0,0.0,0.0,0.0,0.0,0.0,0.0,0.0,0.0,0.0,0.0,0.0,0.0,0.0,0.0,0.0,0.0,0.0,0.0,0.0,0.0,0.0,0.0,0.0,0.0,0.0,0.0,0.0,0.0,0.0,0.0,0.0,0.0,0.0,0.0,0.0,0.0,0.0,0.0,0.0,0.0,0.0,0.0,0.0,0.0,0.0,0.0,0.0,0.0,0.0,0.0,0.0,0.0,0.0,0.0,0.0,0.0,0.0,0.0,0.0,0.0,0.0,0.0,0.0,0.0,0.0,0.0,0.0,0.0,0.0,0.0,0.0,0.0,0.0,0.0,0.0,0.0,0.0,0.0,0.0,0.0,0.0,0.0,0.0,0.0,0.0,0.0,0.0,0.0,0.0,0.0,0.0,0.0,0.0,0.0,0.0,0.0,0.0,0.0,0.0,0.0,0.0,0.0,0.0,0.0,0.0,0.0,0.0,0.0,0.0,0.0,0.0,0.0,0.0,0.0,0.0,0.0,0.0,0.0,0.0,0.0,0.0,0.0,0.0,0.0,0.0,0.0,0.0,0.0,0.0,0.0,0.0,0.0,0.0,0.0,0.0,0.0,0.0,0.0,0.0,0.0,0.0,0.0,0.0,0.0,0.0,0.0,0.0,0.0,0.0,0.0,0.0,0.0,0.0,0.0,0.0,0.0,0.0,0.0,0.0,0.0,0.0,0.0,0.0,0.0,0.0,0.0,0.0,0.0,0.0,0.0,0.0,0.0,0.0,0.0,0.0,0.0,0.0,0.0,0.0,0.0,0.0,0.0,0.0,0.0,0.0,0.0,0.0,0.0,0.0,0.0,0.0,0.0,0.0,0.0,0.0,0.0,0.0,0.0,0.0,0.0,0.0,0.0,0.0,0.0,0.0,0.0,0.0,0.0,0.0,0.0,0.0,0.0,0.0,0.0,0.0,0.0,0.0,0.0,0.0,0.0,0.0,0.0,0.0,0.0,0.0,0.0,0.0,0.0,0.0,0.0,0.0,0.0,0.0,0.0,0.0,0.0,0.0,0.0,0.0,0.0,0.0,0.0,0.0,0.0,0.0,0.0,0.0,0.0,0.0,0.0,0.0,0.0,0.0,0.0,0.0,0.0,0.0,0.0,0.0,0.0,0.0,0.0,0.0,0.0,0.0,0.0,0.0,0.0,0.0,0.0,0.0,0.0,0.0,0.0,0.0,0.0,0.0,0.0,0.0,0.0,0.0,0.0,0.0,0.0,0.0,0.0,0.0,0.0,0.0,0.0,0.0,0.0,0.0,0.0,0.0,0.0,0.0,0.0,0.0,0.0,0.0,0.0,0.0,0.0,0.0,0.0,0.0,0.0,0.0,0.0,0.0,0.0,0.0,0.0,0.0,0.0,0.0,0.0,0.0,0.0,0.0,0.0,0.0,0.0,0.0,0.0,0.0,0.0,0.0,0.0,0.0,0.0,0.0,0.0,0.0,0.0,0.0,0.0,0.0,0.0,0.0,0.0,0.0,0.0,0.0,0.0,0.0,0.0,0.0,0.0,0.0,0.0,0.0,0.0,0.0,0.0,0.0,0.0,0.0,0.0,0.0,0.0,0.0,0.0,0.0,0.0,0.0,0.0,0.0,0.0,0.0,0.0,0.0,0.0,0.0,0.0,0.0,0.0,0.0,0.0,0.0,0.0,0.0,0.0,0.0,0.0,0.0,0.0,0.0,0.0,0.0,0.0,0.0,0.0,0.0,0.0,0.0,0.0,0.0,0.0,0.0,0.0,0.0,0.0,0.0,0.0,0.0,0.0,0.0,0.0,0.0,0.0,0.0,0.0,0.0,0.0,0.0,0.0,0.0,0.0,0.0,0.0,0.0,0.0,0.0,0.0,0.0,0.0,0.0,0.0,0.0,0.0,0.0,0.0,0.0,0.0,0.0,0.0,0.0,0.0,0.0,0.0,0.0,0.0,0.0,0.0,0.0,0.0,0.0,0.0,0.0,0.0,0.0,0.0,0.0,0.0,0.0,0.0,0.0,0.0,0.0,0.0,0.0,0.0,0.0,0.0,0.0,0.0,0.0,0.0,0.0,0.0,0.0,0.0,0.0,0.0,0.0,0.0,0.0,0.0,0.0,0.0,0.0,0.0,0.0,0.0,0.0,0.0,0.0,0.0,0.0,0.0,0.0,0.0,0.0,0.0,0.0,0.0,0.0,0.0,0.0,0.0,0.0,0.0,0.0,0.0,0.0,0.0,0.0,0.0,0.0,0.0,0.0,0.0,0.0,0.0,0.0,0.0,0.0,0.0,0.0,0.0,0.0,0.0,0.0,0.0,0.0,0.0,0.0,0.0,0.0,0.0,0.0,0.0,0.0,0.0,0.0,0.0,0.0,0.0,0.0,0.0,0.0,0.0,0.0,0.0,0.0,0.0,0.0,0.0,0.0,0.0,0.0,0.0,0.0,0.0,0.0,0.0,0.0,0.0,0.0,0.0,0.0,0.0,0.0,0.0,0.0,0.0,0.0,0.0,0.0,0.0,0.0,0.0,0.0,-1.5182,0.0,0.0,0.0,0.0,0.0,0.0,0.0,0.0,0.0,0.0,0.0,0.0,0.0,0.0,0.0,0.0,0.0,0.0,0.0,0.0,0.0,0.0,0.0,0.0,0.0,0.0,0.0,0.0,0.0,0.0,0.0,0.0,0.0,0.0,0.0,0.0,0.0,0.0,0.0,0.0,0.0,0.0,0.0,0.0,0.0,0.0,0.0,0.0,0.0,0.0,0.0,0.0,0.0,0.0,0.0,0.0,0.0,0.0,0.0,0.0,0.0,0.0,0.0,0.0,0.0,0.0,0.0,0.0,0.0,0.0,0.0,0.0,0.0,0.0,0.0,0.0,0.0,0.0,0.0,0.0,0.0,0.0,0.0,0.0,0.0,0.0,0.0,0.0,0.0,0.0,0.0,0.0,0.0,0.0,0.0,0.0,0.0,0.0,0.0,0.0,0.0,0.0,0.0,0.0,0.0,0.0,0.0,0.0,0.0,0.0,-1.5841,-1.6009,-1.6229,-1.6131,-1.5659,0.0,0.0,0.0,0.0,0.0,0.0,0.0,0.0,0.0,0.0,0.0,0.0,0.0,0.0,0.0,0.0,0.0,0.0,0.0,0.0,0.0,0.0,0.0,0.0,0.0,0.0,0.0,0.0,0.0,0.0,0.0,0.0,0.0,0.0,0.0,0.0,0.0,0.0,0.0,0.0,0.0,0.0,0.0,0.0,0.0,0.0,0.0,0.0,0.0,0.0,0.0,0.0,0.0,0.0,0.0,0.0,0.0,0.0,0.0,0.0,0.0,0.0,0.0,0.0,0.0,0.0,0.0,0.0,0.0,0.0,0.0,0.0,0.0,0.0,0.0,0.0,0.0,0.0,0.0,0.0,0.0,0.0,0.0,0.0,0.0,0.0,0.0,0.0,0.0,0.0,0.0,0.0,0.0,0.0,0.0,0.0,0.0,0.0,0.0,0.0,0.0,0.0,0.0,0.0,0.0,0.0,0.0,0.0,0.0,0.0,0.0,0.0,-1.7088,-1.6833,-1.5964,0.0,0.0,0.0,0.0,0.0,0.0,0.0,0.0,0.0,0.0,0.0,0.0,0.0,0.0,0.0,0.0,0.0,0.0,0.0,0.0,0.0,0.0,0.0,0.0,0.0,0.0,0.0,0.0,0.0,0.0,0.0,0.0,0.0,0.0,0.0,0.0,0.0,0.0,0.0,0.0,0.0,0.0,0.0,0.0,0.0,0.0,0.0,0.0,0.0,0.0,0.0,0.0,0.0,0.0,0.0,0.0,0.0,0.0,0.0,0.0,0.0,0.0,0.0,0.0,0.0,0.0,0.0,0.0,0.0,0.0,0.0,0.0,0.0,0.0,0.0,0.0,0.0,0.0,0.0,0.0,0.0,0.0,0.0,0.0,0.0,0.0,0.0,0.0,0.0,0.0,0.0,0.0,0.0,0.0,0.0,0.0,0.0,0.0,0.0,0.0,0.0,0.0,0.0,0.0,0.0,0.0,0.0,0.0,0.0,0.0,-1.6749,-1.7626,-1.7253,0.0,-1.6104,0.0,0.0,0.0,0.0,0.0,0.0,0.0,0.0,0.0,0.0,0.0,0.0,0.0,0.0,0.0,0.0,0.0,0.0,0.0,0.0,0.0,0.0,0.0,0.0,0.0,0.0,0.0,0.0,0.0,0.0,0.0,0.0,0.0,0.0,0.0,0.0,0.0,0.0,0.0,0.0,0.0,0.0,0.0,0.0,0.0,0.0,0.0,0.0,0.0,0.0,0.0,0.0,0.0,0.0,0.0,0.0,0.0,0.0,0.0,0.0,0.0,0.0,0.0,0.0,0.0,0.0,0.0,0.0,0.0,0.0,0.0,0.0,0.0,0.0,0.0,0.0,0.0,0.0,0.0,0.0,0.0,0.0,0.0,0.0,0.0,0.0,0.0,0.0,0.0,0.0,0.0,0.0,0.0,0.0,0.0,0.0,0.0,0.0,0.0,0.0,0.0,0.0,0.0,0.0,0.0,0.0,0.0,0.0,0.0,0.0,-1.7539,-1.8102,-1.7711,-1.7201,0.0,0.0,0.0,0.0,0.0,0.0,0.0,0.0,0.0,0.0,0.0,0.0,0.0,0.0,0.0,0.0,0.0,0.0,0.0,0.0,0.0,0.0,0.0,0.0,0.0,0.0,0.0,0.0,0.0,0.0,0.0,0.0,0.0,0.0,0.0,0.0,0.0,0.0,0.0,0.0,0.0,0.0,0.0,0.0,0.0,0.0,0.0,0.0,0.0,0.0,0.0,0.0,0.0,0.0,0.0,0.0,0.0,0.0,0.0,0.0,0.0,0.0,0.0,0.0,0.0,0.0,0.0,0.0,0.0,0.0,0.0,0.0,0.0,0.0,0.0,0.0,0.0,0.0,0.0,0.0,0.0,0.0,0.0,0.0,0.0,0.0,0.0,0.0,0.0,0.0,0.0,0.0,0.0,0.0,0.0,0.0,0.0,0.0,0.0,0.0,0.0,0.0,0.0,0.0,0.0,0.0,0.0,0.0,0.0,0.0,-1.7644,-1.8189,-1.8468,-1.8248,-1.7828,-1.7283,0.0,0.0,0.0,0.0,0.0,0.0,0.0,0.0,0.0,0.0,0.0,0.0,0.0,0.0,0.0,0.0,0.0,0.0,0.0,0.0,0.0,0.0,0.0,0.0,0.0,0.0,0.0,0.0,0.0,0.0,0.0,0.0,0.0,0.0,0.0,0.0,0.0,0.0,0.0,0.0,0.0,0.0,0.0,0.0,0.0,0.0,0.0,0.0,0.0,0.0,0.0,0.0,0.0,0.0,0.0,0.0,0.0,0.0,0.0,0.0,0.0,0.0,0.0,0.0,0.0,0.0,0.0,0.0,0.0,0.0,0.0,0.0,0.0,0.0,0.0,0.0,0.0,0.0,0.0,0.0,0.0,0.0,0.0,0.0,0.0,0.0,0.0,0.0,0.0,0.0,0.0,0.0,0.0,0.0,0.0,0.0,0.0,0.0,0.0,0.0,0.0,0.0,0.0,0.0,0.0,0.0,0.0,0.0,-1.6971,-1.7802,-1.8402,-1.8839,-1.8732,-1.8436,0.0,0.0,0.0,0.0,0.0,0.0,0.0,0.0,0.0,0.0,0.0,0.0,0.0,0.0,0.0,0.0,0.0,0.0,0.0,0.0,0.0,0.0,0.0,0.0,0.0,0.0,0.0,0.0,0.0,0.0,0.0,0.0,0.0,0.0,0.0,0.0,0.0,0.0,0.0,0.0,0.0,0.0,0.0,0.0,0.0,0.0,0.0,0.0,0.0,0.0,0.0,0.0,0.0,0.0,0.0,0.0,0.0,0.0,0.0,0.0,0.0,0.0,0.0,0.0,0.0,0.0,0.0,0.0,0.0,0.0,0.0,0.0,0.0,0.0,0.0,0.0,0.0,0.0,0.0,0.0,0.0,0.0,0.0,0.0,0.0,0.0,0.0,0.0,0.0,0.0,0.0,0.0,0.0,0.0,0.0,0.0,0.0,0.0,0.0,0.0,0.0,0.0,0.0,0.0,0.0,0.0,0.0,0.0,0.0,-1.756,-1.8599,-1.9093,-1.9114,-1.8826,-1.848,0.0,0.0,0.0,0.0,0.0,0.0,0.0,0.0,0.0,0.0,0.0,0.0,0.0,0.0,0.0,0.0,0.0,0.0,0.0,0.0,0.0,0.0,0.0,0.0,0.0,0.0,0.0,0.0,0.0,0.0,0.0,0.0,0.0,0.0,0.0,0.0,0.0,0.0,0.0,0.0,0.0,0.0,0.0,0.0,0.0,0.0,0.0,0.0,0.0,0.0,0.0,0.0,0.0,0.0,0.0,0.0,0.0,0.0,0.0,0.0,0.0,0.0,0.0,0.0,0.0,0.0,0.0,0.0,0.0,0.0,0.0,0.0,0.0,0.0,0.0,0.0,0.0,0.0,0.0,0.0,0.0,0.0,0.0,0.0,0.0,0.0,0.0,0.0,0.0,0.0,0.0,0.0,0.0,0.0,0.0,0.0,0.0,0.0,0.0,0.0,0.0,0.0,0.0,0.0,0.0,0.0,0.0,0.0,0.0,-1.8328,0.0,-1.9521,0.0,-1.9179,-1.8819,0.0,0.0,0.0,0.0,0.0,0.0,0.0,0.0,0.0,0.0,0.0,0.0,0.0,0.0,0.0,0.0,0.0,0.0,0.0,0.0,0.0,0.0,0.0,0.0,0.0,0.0,0.0,0.0,0.0,0.0,0.0,0.0,0.0,0.0,0.0,0.0,0.0,0.0,0.0,0.0,0.0,0.0,0.0,0.0,0.0,0.0,0.0,0.0,0.0,0.0,0.0,0.0,0.0,0.0,0.0,0.0,0.0,0.0,0.0,0.0,0.0,0.0,0.0,0.0,0.0,0.0,0.0,0.0,0.0,0.0,0.0,0.0,0.0,0.0,0.0,0.0,0.0,0.0,0.0,0.0,0.0,0.0,0.0,0.0,0.0,0.0,0.0,0.0,0.0,0.0,0.0,0.0,0.0,0.0,0.0,0.0,0.0,0.0,0.0,0.0,0.0,0.0,0.0,0.0,0.0,0.0,0.0,0.0,-1.8238,-1.9253,-1.9462,-1.9781,-2.0085,-1.9827,-1.9488,0.0,0.0,0.0,0.0,0.0,0.0,0.0,0.0,0.0,0.0,0.0,0.0,0.0,0.0,0.0,0.0,0.0,0.0,0.0,0.0,0.0,0.0,0.0,0.0,0.0,0.0,0.0,0.0,0.0,0.0,0.0,0.0,0.0,0.0,0.0,0.0,0.0,0.0,0.0,0.0,0.0,0.0,0.0,0.0,0.0,0.0,0.0,0.0,0.0,0.0,0.0,0.0,0.0,0.0,0.0,0.0,0.0,0.0,0.0,0.0,0.0,0.0,0.0,0.0,0.0,0.0,0.0,0.0,0.0,0.0,0.0,0.0,0.0,0.0,0.0,0.0,0.0,0.0,0.0,0.0,0.0,0.0,0.0,0.0,0.0,0.0,0.0,0.0,0.0,0.0,0.0,0.0,0.0,0.0,0.0,0.0,0.0,0.0,0.0,0.0,0.0,0.0,0.0,0.0,0.0,0.0,0.0,0.0,0.0,-1.9285,-1.9726,-2.0053,-2.0313,-1.9976,-1.9549,0.0,0.0,0.0,0.0,0.0,0.0,0.0,0.0,0.0,0.0,0.0,0.0,0.0,0.0,0.0,0.0,0.0,0.0,0.0,0.0,0.0,0.0,0.0,0.0,0.0,0.0,0.0,0.0,0.0,0.0,0.0,0.0,0.0,0.0,0.0,0.0,0.0,0.0,0.0,0.0,0.0,0.0,0.0,0.0,0.0,0.0,0.0,0.0,0.0,0.0,0.0,0.0,0.0,0.0,0.0,0.0,0.0,0.0,0.0,0.0,0.0,0.0,0.0,0.0,0.0,0.0,0.0,0.0,0.0,0.0,0.0,0.0,0.0,0.0,0.0,0.0,0.0,0.0,0.0,0.0,0.0,0.0,0.0,0.0,0.0,0.0,0.0,0.0,0.0,0.0,0.0,0.0,0.0,0.0,0.0,0.0,0.0,0.0,0.0,0.0,0.0,0.0,0.0,0.0,0.0,0.0,0.0,0.0,0.0,-1.9815,-2.0193,-2.0435,-2.0475,-2.0344,-2.0003,-1.9398,0.0,0.0,0.0,0.0,0.0,0.0,0.0,0.0,0.0,0.0,0.0,0.0,0.0,0.0,0.0,0.0,0.0,0.0,0.0,0.0,0.0,0.0,0.0,0.0,0.0,0.0,0.0,0.0,0.0,0.0,0.0,0.0,0.0,0.0,0.0,0.0,0.0,0.0,0.0,0.0,0.0,0.0,0.0,0.0,0.0,0.0,0.0,0.0,0.0,0.0,0.0,0.0,0.0,0.0,0.0,0.0,0.0,0.0,0.0,0.0,0.0,0.0,0.0,0.0,0.0,0.0,0.0,0.0,0.0,0.0,0.0,0.0,0.0,0.0,0.0,0.0,0.0,0.0,0.0,0.0,0.0,0.0,0.0,0.0,0.0,0.0,0.0,0.0,0.0,0.0,0.0,0.0,0.0,0.0,0.0,0.0,0.0,0.0,0.0,0.0,0.0,0.0,0.0,0.0,0.0,0.0,0.0,0.0,-2.0633,-2.0858,-2.0908,-2.0736,-2.0896,-2.0624,0.0,0.0,0.0,0.0,0.0,0.0,0.0,0.0,0.0,0.0,0.0,0.0,0.0,0.0,0.0,0.0,0.0,0.0,0.0,0.0,0.0,0.0,0.0,0.0,0.0,0.0,0.0,0.0,0.0,0.0,0.0,0.0,0.0,0.0,0.0,0.0,0.0,0.0,0.0,0.0,0.0,0.0,0.0,0.0,0.0,0.0,0.0,0.0,0.0,0.0,0.0,0.0,0.0,0.0,0.0,0.0,0.0,0.0,0.0,0.0,0.0,0.0,0.0,0.0,0.0,0.0,0.0,0.0,0.0,0.0,0.0,0.0,0.0,0.0,0.0,0.0,0.0,0.0,0.0,0.0,0.0,0.0,0.0,0.0,0.0,0.0,0.0,0.0,0.0,0.0,0.0,0.0,0.0,0.0,0.0,0.0,0.0,0.0,0.0,0.0,0.0,0.0,0.0,0.0,0.0,0.0,0.0,0.0,0.0,-2.114,-2.1875,-2.1943,-2.1263,-2.147,-2.1179,0.0,0.0,0.0,0.0,0.0,0.0,0.0,0.0,0.0,0.0,0.0,0.0,0.0,0.0,0.0,0.0,0.0,0.0,0.0,0.0,0.0,0.0,0.0,0.0,0.0,0.0,0.0,0.0,0.0,0.0,0.0,0.0,0.0,0.0,0.0,0.0,0.0,0.0,0.0,0.0,0.0,0.0,0.0,0.0,0.0,0.0,0.0,0.0,0.0,0.0,0.0,0.0,0.0,0.0,0.0,0.0,0.0,0.0,0.0,0.0,0.0,0.0,0.0,0.0,0.0,0.0,0.0,0.0,0.0,0.0,0.0,0.0,0.0,0.0,0.0,0.0,0.0,0.0,0.0,0.0,0.0,0.0,0.0,0.0,0.0,0.0,0.0,0.0,0.0,0.0,0.0,0.0,0.0,0.0,0.0,0.0,0.0,0.0,0.0,0.0,0.0,0.0,0.0,0.0,0.0,0.0,0.0,0.0,-2.1539,-2.1805,-2.2706,-2.2809,-2.2115,-2.1957,-2.1587,0.0,0.0,0.0,0.0,0.0,0.0,0.0,0.0,0.0,0.0,0.0,0.0,0.0,0.0,0.0,0.0,0.0,0.0,0.0,0.0,0.0,0.0,0.0,0.0,0.0,0.0,0.0,0.0,0.0,0.0,0.0,0.0,0.0,0.0,0.0,0.0,0.0,0.0,0.0,0.0,0.0,0.0,0.0,0.0,0.0,0.0,0.0,0.0,0.0,0.0,0.0,0.0,0.0,0.0,0.0,0.0,0.0,0.0,0.0,0.0,0.0,0.0,0.0,0.0,0.0,0.0,0.0,0.0,0.0,0.0,0.0,0.0,0.0,0.0,0.0,0.0,0.0,0.0,0.0,0.0,0.0,0.0,0.0,0.0,0.0,0.0,0.0,0.0,0.0,0.0,0.0,0.0,0.0,0.0,0.0,0.0,0.0,0.0,0.0,0.0,0.0,0.0,0.0,0.0,0.0,0.0,0.0,0.0,-2.1952,-2.2695,-2.3296,-2.3464,-2.3157,-2.2446,-2.1964,0.0,0.0,0.0,0.0,0.0,0.0,0.0,0.0,0.0,0.0,0.0,0.0,0.0,0.0,0.0,0.0,0.0,0.0,0.0,0.0,0.0,0.0,0.0,0.0,0.0,0.0,0.0,0.0,0.0,0.0,0.0,0.0,0.0,0.0,0.0,0.0,0.0,0.0,0.0,0.0,0.0,0.0,0.0,0.0,0.0,0.0,0.0,0.0,0.0,0.0,0.0,0.0,0.0,0.0,0.0,0.0,0.0,0.0,0.0,0.0,0.0,0.0,0.0,0.0,0.0,0.0,0.0,0.0,0.0,0.0,0.0,0.0,0.0,0.0,0.0,0.0,0.0,0.0,0.0,0.0,0.0,0.0,0.0,0.0,0.0,0.0,0.0,0.0,0.0,0.0,0.0,0.0,0.0,0.0,0.0,0.0,0.0,0.0,0.0,0.0,0.0,0.0,0.0,0.0,0.0,0.0,0.0,0.0,-2.2077,-2.3341,-2.361,-2.3756,-2.3738,-2.342,-2.2867,0.0,0.0,0.0,0.0,0.0,0.0,0.0,0.0,0.0,0.0,0.0,0.0,0.0,0.0,0.0,0.0,0.0,0.0,0.0,0.0,0.0,0.0,0.0,0.0,0.0,0.0,0.0,0.0,0.0,0.0,0.0,0.0,0.0,0.0,0.0,0.0,0.0,0.0,0.0,0.0,0.0,0.0,0.0,0.0,0.0,0.0,0.0,0.0,-1.7768,0.0,0.0,0.0,0.0,0.0,0.0,0.0,0.0,0.0,0.0,0.0,0.0,0.0,0.0,0.0,0.0,0.0,0.0,0.0,0.0,0.0,0.0,0.0,0.0,0.0,0.0,0.0,0.0,0.0,0.0,0.0,0.0,0.0,0.0,0.0,0.0,0.0,0.0,0.0,0.0,0.0,0.0,0.0,0.0,0.0,0.0,0.0,0.0,0.0,0.0,0.0,0.0,0.0,0.0,0.0,0.0,0.0,0.0,0.0,-2.2682,-2.3717,-2.3813,-2.3886,-2.4032,-2.3826,-2.3259,0.0,0.0,0.0,0.0,0.0,0.0,0.0,0.0,0.0,0.0,0.0,0.0,0.0,0.0,0.0,0.0,0.0,0.0,0.0,0.0,0.0,0.0,0.0,0.0,0.0,0.0,0.0,0.0,0.0,0.0,0.0,0.0,0.0,0.0,0.0,0.0,0.0,0.0,0.0,0.0,0.0,0.0,0.0,0.0,0.0,0.0,0.0,0.0,0.0,0.0,0.0,0.0,0.0,0.0,0.0,0.0,0.0,0.0,0.0,0.0,0.0,0.0,0.0,0.0,0.0,0.0,0.0,0.0,0.0,0.0,0.0,0.0,0.0,0.0,0.0,0.0,0.0,0.0,0.0,0.0,0.0,0.0,0.0,0.0,0.0,0.0,0.0,0.0,0.0,0.0,0.0,0.0,0.0,0.0,0.0,0.0,0.0,0.0,0.0,0.0,0.0,0.0,0.0,0.0,0.0,0.0,0.0,-2.2689,-2.3387,-2.3948,-2.397,-2.4043,-2.4189,-2.3837,-2.3387,-2.2685,0.0,0.0,0.0,0.0,0.0,0.0,0.0,0.0,0.0,0.0,0.0,0.0,0.0,0.0,0.0,0.0,0.0,0.0,0.0,0.0,0.0,0.0,0.0,0.0,0.0,0.0,0.0,0.0,0.0,0.0,0.0,0.0,0.0,0.0,0.0,0.0,0.0,0.0,-1.4756,-1.5449,0.0,0.0,0.0,0.0,0.0,0.0,0.0,0.0,-1.8763,0.0,0.0,0.0,0.0,0.0,0.0,0.0,0.0,0.0,0.0,0.0,0.0,0.0,0.0,0.0,0.0,0.0,0.0,0.0,0.0,0.0,0.0,0.0,0.0,0.0,0.0,0.0,0.0,0.0,0.0,0.0,0.0,0.0,0.0,0.0,0.0,0.0,0.0,0.0,0.0,0.0,0.0,0.0,0.0,0.0,0.0,0.0,0.0,0.0,0.0,0.0,0.0,0.0,0.0,0.0,0.0,-2.2148,-2.2806,-2.3507,-2.4105,-2.4127,-2.42,-2.4177,-2.3707,-2.3201,-2.2696,0.0,0.0,0.0,0.0,0.0,0.0,0.0,0.0,0.0,0.0,0.0,0.0,0.0,0.0,0.0,0.0,0.0,0.0,0.0,0.0,0.0,0.0,0.0,0.0,0.0,0.0,0.0,0.0,0.0,0.0,0.0,0.0,0.0,0.0,0.0,0.0,0.0,0.0,0.0,-1.6286,-1.683,0.0,0.0,0.0,0.0,0.0,0.0,0.0,0.0,-1.9073,0.0,0.0,0.0,0.0,0.0,0.0,0.0,0.0,0.0,0.0,0.0,0.0,0.0,0.0,0.0,0.0,0.0,0.0,0.0,0.0,0.0,0.0,0.0,0.0,0.0,0.0,0.0,0.0,0.0,0.0,0.0,0.0,0.0,0.0,0.0,0.0,0.0,0.0,0.0,0.0,0.0,0.0,0.0,0.0,0.0,0.0,0.0,0.0,0.0,0.0,0.0,0.0,0.0,0.0,0.0,-2.2217,-2.2969,-2.3601,-2.4166,-2.4189,-2.4189,-2.4177,-2.3707,-2.3132,0.0,0.0,0.0,0.0,0.0,0.0,0.0,0.0,0.0,0.0,0.0,0.0,0.0,0.0,0.0,0.0,0.0,0.0,0.0,0.0,0.0,0.0,0.0,0.0,0.0,0.0,0.0,0.0,0.0,0.0,0.0,0.0,0.0,0.0,0.0,0.0,0.0,0.0,0.0,0.0,-1.6899,-1.7403,-1.775,0.0,0.0,0.0,0.0,0.0,0.0,-2.0132,-2.007,0.0,0.0,0.0,0.0,0.0,0.0,0.0,0.0,0.0,0.0,0.0,0.0,0.0,0.0,0.0,0.0,0.0,0.0,0.0,0.0,0.0,0.0,0.0,0.0,0.0,0.0,0.0,0.0,0.0,0.0,0.0,0.0,0.0,0.0,0.0,0.0,0.0,0.0,0.0,0.0,0.0,0.0,0.0,0.0,0.0,0.0,0.0,0.0,0.0,0.0,0.0,0.0,0.0,0.0,0.0,-2.2082,-2.2924,-2.3638,-2.4028,-2.4143,-2.4127,-2.4116,-2.3647,-2.2992,0.0,0.0,0.0,0.0,0.0,0.0,0.0,0.0,0.0,0.0,0.0,0.0,0.0,0.0,0.0,0.0,0.0,0.0,0.0,0.0,0.0,0.0,0.0,0.0,0.0,0.0,0.0,0.0,0.0,0.0,0.0,0.0,0.0,0.0,0.0,0.0,0.0,0.0,0.0,0.0,0.0,-1.8194,-1.8551,-1.9191,0.0,0.0,0.0,0.0,-2.1273,-2.1231,0.0,0.0,0.0,0.0,0.0,0.0,0.0,0.0,0.0,0.0,0.0,0.0,0.0,0.0,0.0,0.0,0.0,0.0,0.0,0.0,0.0,0.0,0.0,0.0,0.0,0.0,0.0,0.0,0.0,0.0,0.0,0.0,0.0,0.0,0.0,0.0,0.0,0.0,0.0,0.0,0.0,0.0,0.0,0.0,0.0,0.0,0.0,0.0,0.0,0.0,0.0,0.0,0.0,0.0,0.0,0.0,-2.1732,-2.2822,-2.3406,-2.3475,-2.3826,-2.397,-2.3959,-2.3421,-2.2781,0.0,0.0,0.0,0.0,0.0,0.0,0.0,0.0,0.0,0.0,0.0,0.0,0.0,0.0,0.0,0.0,0.0,0.0,0.0,0.0,0.0,0.0,0.0,0.0,0.0,0.0,0.0,0.0,0.0,0.0,0.0,0.0,0.0,0.0,0.0,0.0,0.0,0.0,0.0,0.0,0.0,-1.976,-1.9974,-2.0629,-2.0902,0.0,0.0,-2.0875,-2.1085,-2.1135,0.0,0.0,0.0,0.0,0.0,0.0,0.0,0.0,0.0,0.0,0.0,0.0,0.0,0.0,0.0,0.0,0.0,0.0,0.0,0.0,0.0,0.0,0.0,0.0,0.0,0.0,0.0,0.0,0.0,0.0,0.0,0.0,0.0,0.0,0.0,0.0,0.0,0.0,0.0,0.0,0.0,0.0,0.0,0.0,0.0,0.0,0.0,0.0,0.0,0.0,0.0,0.0,0.0,0.0,0.0,-2.072,-2.1419,-2.224,-2.2784,-2.3149,-2.3492,-2.3604,-2.3334,-2.2965,-2.2355,0.0,0.0,0.0,0.0,0.0,0.0,0.0,0.0,0.0,0.0,0.0,0.0,0.0,0.0,0.0,0.0,0.0,0.0,0.0,0.0,0.0,0.0,0.0,0.0,0.0,0.0,0.0,0.0,0.0,0.0,0.0,0.0,0.0,0.0,0.0,0.0,0.0,0.0,0.0,0.0,0.0,0.0,-2.0602,-2.1075,0.0,0.0,0.0,-2.188,-2.2419,0.0,0.0,0.0,0.0,0.0,0.0,0.0,0.0,0.0,0.0,0.0,0.0,0.0,0.0,0.0,0.0,0.0,0.0,0.0,0.0,0.0,0.0,0.0,0.0,0.0,0.0,0.0,0.0,0.0,0.0,0.0,0.0,0.0,0.0,0.0,0.0,0.0,0.0,0.0,0.0,0.0,0.0,0.0,0.0,0.0,0.0,0.0,0.0,0.0,0.0,0.0,0.0,0.0,0.0,0.0,0.0,0.0,-2.0941,-2.1485,-2.2043,-2.2522,-2.3011,-2.3017,-2.2722,-2.2446,0.0,0.0,0.0,0.0,0.0,0.0,0.0,0.0,0.0,0.0,0.0,0.0,0.0,0.0,0.0,0.0,0.0,0.0,0.0,0.0,0.0,0.0,0.0,0.0,0.0,0.0,0.0,-1.3824,0.0,0.0,0.0,0.0,0.0,0.0,0.0,0.0,0.0,0.0,0.0,0.0,0.0,0.0,-2.0674,-2.1212,-2.1518,-2.1861,0.0,0.0,-2.2694,-2.3204,-2.2887,-2.2557,0.0,0.0,0.0,0.0,0.0,0.0,0.0,0.0,0.0,0.0,0.0,0.0,0.0,0.0,0.0,0.0,0.0,0.0,0.0,0.0,0.0,0.0,0.0,0.0,0.0,0.0,0.0,0.0,0.0,0.0,0.0,0.0,0.0,0.0,0.0,0.0,0.0,0.0,0.0,0.0,0.0,0.0,0.0,0.0,0.0,0.0,0.0,0.0,0.0,0.0,0.0,0.0,0.0,0.0,-1.9823,-2.0172,-2.072,-2.1213,-2.1706,-2.1941,-2.2085,-2.2053,-2.1642,-2.0979,0.0,0.0,0.0,0.0,0.0,0.0,0.0,0.0,0.0,0.0,0.0,0.0,0.0,0.0,0.0,0.0,0.0,0.0,0.0,0.0,0.0,0.0,0.0,0.0,0.0,0.0,0.0,0.0,0.0,0.0,0.0,0.0,0.0,0.0,0.0,0.0,0.0,0.0,0.0,0.0,0.0,-2.1731,-2.1776,-2.2155,-2.2375,0.0,0.0,-2.2838,-2.2893,-2.2857,-2.2804,-2.2557,0.0,0.0,0.0,0.0,0.0,0.0,0.0,0.0,0.0,0.0,0.0,0.0,0.0,0.0,0.0,0.0,0.0,0.0,0.0,0.0,0.0,0.0,0.0,0.0,0.0,0.0,0.0,0.0,0.0,0.0,0.0,0.0,0.0,0.0,0.0,0.0,0.0,0.0,0.0,0.0,0.0,0.0,0.0,0.0,0.0,0.0,0.0,0.0,0.0,0.0,0.0,0.0,0.0,-1.9539,-1.9802,-2.0275,-2.0748,-2.1231,-2.161,-2.1707,-2.1357,-2.1105,-2.0498,0.0,0.0,0.0,0.0,0.0,0.0,0.0,0.0,0.0,0.0,0.0,0.0,0.0,0.0,0.0,0.0,0.0,0.0,0.0,0.0,0.0,0.0,0.0,0.0,0.0,0.0,0.0,0.0,-1.3775,-1.3579,-1.3777,0.0,0.0,0.0,0.0,0.0,0.0,0.0,0.0,0.0,0.0,-2.1768,-2.1987,-2.2414,0.0,0.0,-2.3006,-2.2948,-2.3281,-2.2896,-2.2621,-2.2945,-2.2236,0.0,0.0,0.0,0.0,0.0,0.0,0.0,0.0,0.0,0.0,0.0,0.0,0.0,0.0,0.0,0.0,0.0,0.0,0.0,0.0,0.0,0.0,0.0,0.0,0.0,0.0,0.0,0.0,0.0,0.0,0.0,0.0,0.0,0.0,0.0,0.0,0.0,0.0,0.0,0.0,0.0,0.0,0.0,0.0,0.0,0.0,0.0,0.0,0.0,0.0,0.0,0.0,-1.9274,-1.9341,-1.987,-2.0333,-2.0797,-2.1311,-2.1333,-2.0828,-2.0715,-2.0066,0.0,0.0,0.0,0.0,0.0,0.0,0.0,0.0,0.0,0.0,0.0,0.0,0.0,0.0,0.0,0.0,0.0,0.0,0.0,0.0,0.0,0.0,0.0,0.0,0.0,0.0,0.0,0.0,-1.4,-1.3916,-1.4231,0.0,0.0,0.0,0.0,0.0,0.0,0.0,0.0,0.0,0.0,-2.1768,-2.2158,-2.2586,-2.3131,-2.3405,-2.3419,-2.3363,-2.3326,-2.2966,-2.2665,-2.2875,0.0,0.0,0.0,0.0,0.0,0.0,0.0,0.0,0.0,0.0,0.0,0.0,0.0,0.0,0.0,0.0,0.0,0.0,0.0,0.0,0.0,0.0,0.0,0.0,0.0,0.0,0.0,0.0,0.0,0.0,0.0,0.0,0.0,0.0,0.0,0.0,0.0,0.0,0.0,0.0,0.0,0.0,0.0,0.0,0.0,0.0,0.0,0.0,0.0,0.0,0.0,0.0,0.0,-1.9019,-1.8818,-1.9462,-1.9986,-2.0431,-2.0876,-2.0897,-2.0462,-2.0431,-1.9937,-1.8838,0.0,0.0,0.0,0.0,0.0,0.0,0.0,0.0,0.0,0.0,0.0,0.0,0.0,0.0,0.0,0.0,0.0,0.0,0.0,0.0,0.0,0.0,0.0,0.0,0.0,0.0,-1.4624,-1.4521,-1.456,0.0,0.0,0.0,0.0,0.0,0.0,0.0,0.0,0.0,0.0,-2.1299,-2.1977,-2.2375,-2.2802,-2.316,-2.3459,-2.3877,-2.3879,-2.3223,-2.3326,-2.3199,0.0,0.0,0.0,0.0,0.0,0.0,0.0,0.0,0.0,0.0,0.0,0.0,0.0,0.0,0.0,0.0,0.0,0.0,0.0,0.0,0.0,0.0,0.0,0.0,0.0,0.0,0.0,-1.9606,-1.9275,0.0,0.0,0.0,0.0,0.0,0.0,0.0,0.0,0.0,0.0,0.0,-1.7793,-1.7793,0.0,0.0,0.0,0.0,0.0,0.0,0.0,0.0,0.0,0.0,0.0,0.0,-1.8893,-1.9247,-1.9479,-1.999,-2.0855,-2.1031,-2.0978,-2.0667,-2.038,-1.9737,-1.8502,0.0,0.0,0.0,0.0,0.0,0.0,0.0,0.0,0.0,0.0,0.0,0.0,0.0,0.0,0.0,0.0,0.0,0.0,0.0,0.0,0.0,0.0,0.0,0.0,0.0,-1.4106,0.0,0.0,0.0,0.0,0.0,0.0,0.0,0.0,0.0,0.0,0.0,-1.9513,-2.0424,-2.1501,-2.2294,-2.2391,-2.2912,-2.335,0.0,0.0,0.0,0.0,0.0,0.0,0.0,0.0,0.0,0.0,0.0,0.0,0.0,0.0,-1.8364,-1.8476,-1.8379,-1.8268,-1.8268,0.0,0.0,0.0,0.0,0.0,0.0,0.0,0.0,0.0,0.0,0.0,0.0,0.0,0.0,0.0,0.0,-1.9477,0.0,0.0,0.0,0.0,0.0,0.0,0.0,0.0,-1.833,-1.8457,-1.8457,-1.8457,-1.8457,0.0,-1.8457,-1.8457,0.0,0.0,0.0,0.0,0.0,0.0,0.0,0.0,-1.8922,-1.9273,-1.9657,-2.0164,-2.0872,-2.1046,-2.0982,-2.067,-2.0102,-1.9364,-1.8507,-1.7957,-1.7607,0.0,0.0,0.0,0.0,0.0,0.0,0.0,0.0,0.0,0.0,0.0,0.0,0.0,0.0,0.0,0.0,0.0,0.0,0.0,0.0,0.0,0.0,0.0,-1.4317,0.0,0.0,0.0,0.0,0.0,0.0,0.0,0.0,0.0,-1.7788,-1.8533,-1.9321,-2.0483,-2.1273,-2.203,-2.2365,0.0,0.0,0.0,0.0,0.0,0.0,0.0,-2.2589,-2.2766,-2.2021,-2.1105,-2.0194,-1.9422,-1.8959,-1.8952,0.0,0.0,-1.8555,-1.8405,-1.8306,-1.8207,-1.8207,-1.8115,-1.8009,-1.8002,-1.8002,0.0,0.0,0.0,0.0,0.0,0.0,0.0,0.0,-2.066,-2.0405,0.0,-1.9696,0.0,0.0,0.0,0.0,0.0,0.0,0.0,0.0,-1.9248,-1.9277,-1.9268,-1.9258,-1.9277,-1.9277,-1.9258,-1.9258,-1.9228,-1.8447,0.0,0.0,0.0,0.0,0.0,0.0,-1.9094,-1.8983,-1.9942,-2.0541,-2.0581,-2.0984,-2.0984,-2.0456,-1.9491,-1.8953,-1.8894,-1.8301,-1.8018,-1.7998,-1.7617,0.0,0.0,0.0,0.0,0.0,0.0,0.0,0.0,0.0,0.0,0.0,0.0,0.0,0.0,0.0,0.0,0.0,0.0,0.0,0.0,-1.4961,0.0,0.0,0.0,0.0,0.0,0.0,0.0,0.0,0.0,0.0,-1.8047,-1.8342,-1.8973,-2.0539,0.0,0.0,0.0,0.0,-2.2526,-2.2728,-2.2627,-2.2224,-2.175,-2.1945,-2.1953,-2.1469,0.0,0.0,-1.9917,-1.9509,-1.9308,-1.9301,-1.9107,-1.8808,-1.8418,-1.8302,-1.8265,-1.7974,-1.8003,-1.7875,-1.7668,-1.7673,-1.7652,-2.3977,0.0,0.0,0.0,0.0,-2.3742,-2.3542,-2.3291,-2.3038,-2.2719,-2.2256,-2.1878,0.0,0.0,0.0,0.0,0.0,0.0,-1.9187,-1.9277,-1.9277,-1.9277,-1.9277,-1.9277,-1.9277,-1.9277,-1.9277,-1.9277,-1.9268,-1.9033,-1.8916,-1.8916,0.0,0.0,0.0,0.0,-1.9466,-1.9826,-2.0158,-2.0532,-2.1014,-2.1145,-2.0918,-2.0297,-1.9826,-1.933,-1.8733,-1.8516,-1.8311,-1.8027,-1.79,0.0,0.0,0.0,0.0,0.0,0.0,0.0,0.0,0.0,0.0,0.0,0.0,0.0,0.0,0.0,0.0,0.0,0.0,0.0,-1.4139,-1.4427,-1.4663,0.0,0.0,0.0,0.0,0.0,0.0,0.0,0.0,0.0,-1.8511,-1.8958,-1.9452,0.0,0.0,-2.1009,-2.131,-2.1326,-2.142,-2.142,0.0,0.0,0.0,-2.1507,-2.1587,-2.173,-2.1451,-2.1025,-2.0375,-1.9959,-1.965,-1.9643,-1.9412,-1.9132,-1.9056,-1.8653,-1.8391,-1.8281,-1.8442,-1.859,-1.8499,-1.866,-1.88,-2.5724,-2.5489,-2.4996,-2.4833,-2.482,-2.4768,-2.4561,-2.43,-2.4091,-2.3682,-2.3203,-2.2945,-2.2537,-2.1998,-2.1474,0.0,0.0,0.0,-2.044,-2.0466,-2.0399,-2.0312,-2.0312,-2.0322,-2.0322,-2.0322,-2.0322,-2.0322,-2.0312,-2.0322,-2.0322,-2.0283,0.0,0.0,-1.9297,-1.9453,-1.9732,-2.0053,-2.023,-2.0532,-2.0954,-2.0974,-2.0757,-2.0404,-2.0075,-1.9668,-1.916,-1.8984,-1.8779,-1.8525,-1.835,-1.8252,0.0,0.0,0.0,0.0,0.0,0.0,0.0,0.0,0.0,0.0,0.0,-1.5733,-1.5348,0.0,0.0,0.0,-1.4488,-1.4349,-1.4289,-1.4487,0.0,0.0,0.0,0.0,0.0,0.0,0.0,-1.7117,-1.7616,-1.8052,-1.8542,-1.9001,-1.9483,-1.9796,-2.0169,-2.0506,-2.0719,0.0,-2.0924,-2.0924,-2.0938,-2.0981,-2.1085,-2.1116,-2.1193,-2.1387,-2.1101,-2.0775,-2.0339,-2.0026,-1.9807,-1.958,-1.9353,-1.9126,-1.9119,-1.8713,-1.8479,-1.8586,-1.8725,-1.8849,-1.8755,-1.8899,-1.9023,-2.7003,-2.6764,-2.5577,-2.5046,-2.4958,-2.4841,-2.4645,-2.4423,-2.4225,-2.3893,-2.3391,-2.3267,-2.2823,-2.2125,-2.1617,0.0,0.0,-2.1639,-2.1869,-2.2195,-2.1967,-2.1894,-2.1894,-2.1875,-2.1894,-2.1885,-2.1894,-2.1894,-2.1865,-2.1875,-2.1885,-2.1846,-2.0293,-1.9502,-1.9512,-1.9883,-2.0068,-2.0078,-2.0469,-2.0654,-2.0625,-2.0576,-2.0576,-2.0566,-2.0176,-1.9951,-1.9902,-1.9541,-1.9326,-1.9277,-1.8906,-1.8611,-1.8601,0.0,0.0,0.0,0.0,0.0,0.0,0.0,0.0,0.0,0.0,0.0,0.0,0.0,0.0,0.0,-1.4413,0.0,-1.487,-1.4918,0.0,0.0,0.0,-1.5944,-1.6259,-1.6718,-1.71,-1.7505,0.0,0.0,-1.833,0.0,-1.9107,-1.9613,-1.9717,-1.9925,-2.0354,-2.0647,-2.0969,-2.0863,-2.1002,-2.0876,-2.0689,-2.0734,-2.0778,-2.0684,-2.0632,-2.0442,-2.0024,-1.9811,-1.9672,-1.9458,-1.9099,-1.9008,-1.8995,-1.8793,-1.8668,-1.8877,-1.8857,-1.8843,-1.8642,-1.8682,-1.8722,-2.8209,-2.7957,-2.7503,-2.6841,-2.6063,-2.6063,-2.5952,-2.5747,-2.5529,-2.546,-2.5397,-2.505,-2.4613,-2.4083,-2.3431,-2.3066,-2.2763,-2.2463,-2.2259,-2.2205,-2.1967,-2.1894,-2.1894,-2.1894,-2.1894,-2.1894,-2.1894,-2.1894,-2.1894,-2.1894,-2.1894,-2.1865,-2.1465,-2.1269,-2.1269,-2.1367,-2.1416,-2.1416,-2.1514,-2.1416,-2.1074,-2.0742,-2.0576,-2.0634,-2.0469,-2.0254,-1.9932,-1.9814,-1.9619,-1.9307,-1.9189,-1.9058,-1.8923,-1.8754,0.0,0.0,0.0,0.0,0.0,0.0,0.0,0.0,0.0,-1.5449,-1.5056,0.0,-1.5061,0.0,-1.5334,-1.5218,-1.5048,-1.4952,0.0,0.0,-1.5685,-1.6027,-1.6538,-1.6864,-1.7227,-1.7537,-1.783,-1.8058,-1.8393,-1.8689,-1.9,-1.9099,-1.9531,-1.9857,-1.997,-2.0238,-2.0338,-2.0345,-2.0419,-2.0435,-2.0685,-2.0928,-2.0947,-2.0728,-2.0721,-2.0615,-2.0281,-1.9946,-1.9711,-1.9711,-1.9489,-1.9266,-1.9253,-1.9273,-1.9152,-1.9253,-1.9092,-1.893,-1.8824,-1.8991,-1.9152,-2.8618,-2.8533,-2.8255,-2.7745,-2.718,-2.7193,-2.7122,-2.6909,-2.6707,-2.6566,-2.6442,-2.5859,-2.5264,-2.478,-2.4432,-2.4034,-2.3648,-2.3266,-2.3022,-2.2864,-2.2611,-2.2441,-2.2451,-2.2441,-2.2451,-2.2441,-2.2451,-2.2441,-2.2441,-2.2441,-2.2451,-2.2451,-2.2451,-2.2441,-2.2422,-2.208,-2.1894,-2.1894,-2.1894,-2.1768,-2.1523,-2.1094,-2.0859,-2.0859,-2.0664,-2.0449,-2.0215,-2.0195,-2.0088,-1.9863,-1.9678,-1.9496,-1.9422,-1.9027,-1.8627,0.0,0.0,0.0,0.0,0.0,0.0,0.0,0.0,0.0,0.0,0.0,-1.5415,-1.5479,-1.5572,-1.5476,-1.5351,-1.5344,-1.5585,-1.6159,-1.6333,-1.6547,-1.6874,-1.713,-1.7373,-1.7536,-1.788,-1.8135,-1.8413,-1.8697,-1.8986,-1.9094,-1.9548,-1.9692,-1.9592,-1.98,-2.0,-2.0007,-2.0115,-2.0265,-2.0458,-2.0623,-2.0737,-2.0615,-2.05,-2.0378,-2.0155,-1.9931,-1.9815,-1.9591,-1.9475,-1.9366,-1.9366,-1.9366,-1.9366,-1.9345,-1.9239,-1.9132,-1.9118,-1.9245,-1.9366,-2.8895,-2.8908,-2.847,-2.8323,-2.831,-2.8323,-2.8161,-2.7791,-2.7594,-2.7247,-2.6844,-2.6217,-2.5643,-2.5047,-2.4973,-2.4676,-2.4315,-2.4002,-2.3841,-2.3754,-2.3319,-2.3135,-2.3144,-2.3144,-2.3144,-2.3144,-2.3144,-2.3144,-2.3144,-2.3144,-2.3144,-2.3144,-2.3144,-2.3144,-2.3105,-2.2412,-2.2041,-2.2041,-2.1992,-2.1973,-2.1963,-2.1533,-2.1318,-2.1309,-2.0889,-2.0654,-2.0644,-2.0596,-2.0576,-2.0557,-2.0205,-1.9924,-1.9915,-1.9192,-1.863,0.0,-1.7445,0.0,0.0,0.0,0.0,0.0,0.0,0.0,0.0,-1.5715,-1.5697,-1.5511,-1.5545,-1.5665,-1.5919,-1.5939,-1.6172,-1.6754,-1.7014,-1.7188,-1.7308,-1.7515,-1.7655,-1.7695,-1.7936,-1.8205,-1.8428,-1.868,-1.8967,-1.9209,-1.9438,-1.964,-1.9445,-1.9703,-1.9864,-1.9864,-2.0095,-2.0322,-2.0357,-2.0256,-2.0277,-2.027,-2.027,-2.0162,-1.9809,-1.97,-1.97,-1.9475,-1.9366,-1.9366,-1.9366,-1.9366,-1.9366,-1.9366,-1.9352,-1.9345,-1.9345,-1.9352,-1.9366,-3.0035,-3.0048,-2.9618,-2.9478,-2.9478,-2.9478,-2.895,-2.8036,-2.7668,-2.7327,-2.7066,-2.7137,-2.6829,-2.6199,-2.5616,-2.523,-2.4988,-2.4413,-2.4024,-2.3841,-2.359,-2.3329,-2.3144,-2.3144,-2.3144,-2.3144,-2.3144,-2.3144,-2.3144,-2.3144,-2.3144,-2.3144,-2.3144,-2.3144,-2.3135,0.0,0.0,0.0,-2.2568,-2.2393,-2.2383,-2.1982,-2.1768,-2.1758,-2.1338,0.0,-2.1094,-2.0762,-2.0576,-2.0566,-2.0488,0.0,0.0,0.0,0.0,0.0,0.0,0.0,0.0,0.0,0.0,0.0,-1.6126,-1.6155,-1.598,-1.6142,-1.6202,-1.6112,-1.6319,-1.648,-1.6533,-1.654,-1.6774,-1.7335,-1.7268,-1.7435,-1.8116,-1.8076,-1.805,-1.829,-1.8377,-1.8397,-1.8293,-1.8644,-1.8944,-1.8957,-1.9206,-1.9476,-1.9422,-1.978,-2.0179,-2.0186,-2.0235,-2.027,-2.027,-2.027,-2.0162,-1.9924,-1.9924,-1.9815,-1.9591,-1.9482,-1.9482,-1.9366,-1.9366,-1.9366,-1.9366,-1.9366,-1.9366,-1.9366,-1.9366,-1.9366,-1.9366,-1.9366,-1.9366,-3.0596,0.0,-3.0075,-2.9869,0.0,-2.9779,-2.9465,-2.8938,-2.8611,-2.8159,-2.7822,-2.7752,-2.7383,-2.6727,-2.6124,-2.5611,-2.52,-2.4615,-2.4196,-2.3754,-2.359,-2.3329,-2.3144,-2.3144,-2.3144,-2.3144,-2.3144,-2.3144,-2.3144,-2.3144,-2.3144,-2.3144,-2.3144,-2.3144,-2.3144,-2.3144,-2.3144,-2.3144,-2.293,-2.2822,-2.2812,-2.2412,-2.2197,-2.2187,0.0,0.0,0.0,0.0,0.0,0.0,0.0,0.0,0.0,0.0,0.0,-1.9003,-1.8413,-1.7733,-1.7063,-1.6835,-1.6617,-1.6464,-1.6738,-1.6904,-1.6655,-1.6596,-1.6547,-1.6693,-1.6847,-1.6981,-1.7121,-1.7141,-1.7375,-1.7936,-1.8029,-1.817,-1.8424,-1.849,-1.8477,-1.8497,-1.8624,-1.8698,-1.8579,-1.8838,-1.9132,-1.9145,-1.9265,-1.9366,-1.9482,-1.9591,-1.9822,-1.9822,-1.9822,-1.9822,-1.9822,-1.9815,-1.9815,-1.9591,-1.9591,-1.9591,-1.9482,-1.9366,-1.9366,-1.9366,-1.9366,-1.9366,-1.9366,-1.9366,-1.9366,-1.9366,-1.9366,-1.9366,-1.9366,-1.9366,-1.9366,-3.0761,-3.0368,-3.0152,-3.0011,-2.9779,-2.9779,-2.9779,-2.9804,0.0,0.0,0.0,-2.8042,-2.7545,-2.6974,-2.6445,-2.5863,-2.52,-2.4786,-2.4272,-2.3841,-2.358,-2.3406,-2.3144,-2.3144,-2.3144,-2.3144,-2.3144,-2.3144,-2.3144,-2.3144,-2.3144,-2.3144,-2.3144,-2.3144,-2.3144,-2.3144,-2.3144,-2.3144,-2.3144,-2.3144,-2.3135,-2.2803,-2.2617,-2.2627,-2.2217,-2.2002,-2.1992,-2.1924,-2.1885,-2.1802,-2.1617,-2.146,-2.1294,-2.0773,-2.0099,-1.941,-1.881,-1.8064,-1.7244,-1.6958,-1.6941,-1.6982,-1.7186,-1.7299,-1.7244,-1.6921,-1.6907,-1.7194,-1.7228,-1.7341,-1.7635,-1.7716,-1.7963,-1.851,-1.8738,-1.8764,-1.8677,-1.8798,-1.8831,-1.8704,-1.8871,-1.8998,-1.9011,-1.9205,-1.9366,-1.9359,-1.9359,-1.9366,-1.9366,-1.9482,-1.9482,-1.9482,-1.9482,-1.9482,-1.9366,-1.9482,-1.9366,-1.9482,-1.9366,-1.9366,-1.9366,-1.9366,-1.9366,-1.9366,-1.9366,-1.9366,-1.9366,-1.9366,-1.9366,-1.9366,-1.9366,-1.9366,-1.9366,-1.9366,-1.9366,-3.0761,-3.0368,-3.0152,-3.0011,-2.9779,-2.9779,-2.9779,-2.9792,-2.9378,-2.8895,-2.851,-2.8054,-2.7626,-2.7103,-2.6528,-2.5946,-2.5443,-2.5031,-2.4444,0.0,-2.3764,-2.3493,-2.3135,-2.3144,-2.3144,-2.3144,-2.3144,-2.3144,-2.3144,-2.3144,-2.3144,-2.3144,-2.3144,-2.3144,-2.3144,-2.3144,-2.3144,-2.3144,-2.3144,-2.3144,-2.3144,-2.3076,-2.3047,-2.3027,-2.2637,-2.2432,-2.2422,-2.208,-2.1802,-2.1543,-2.1543,-2.1201,-2.0689,-2.038,-1.9853,-1.8998,-1.8395,-1.7994,-1.7581,-1.7316,-1.7311,-1.7358,-1.7049,-1.6874,-1.7224,-1.7114,-1.7201,-1.7488,-1.7515,-1.7649,-1.7949,-1.821,-1.8477,-1.8791,-1.8684,-1.8724,-1.9138,-1.9045,-1.9011,-1.9178,-1.9272,-1.9292,-1.9285,-1.9332,-1.9366,-1.9366,-1.9366,-1.9366,-1.9366,-1.9366,-1.9366,-1.9366,-1.9366,-1.9366,-1.9366,-1.9366,-1.9366,-1.9366,-1.9366,-1.9366,-1.9366,-1.9366,-1.9366,-1.9366,-1.9366,-1.9366,-1.9366,-1.9366,-1.9366,-1.9366,-1.9366,-1.9366,-1.9366,-1.9366,-1.9366,-3.0986,-3.0444,-3.0292,-3.0075,-2.9779,-2.9779,-2.9779,-2.9792,-2.9443,-2.9118,-2.8736,-2.8203,-2.7708,-2.7348,-2.6693,-2.6135,-2.5717,-2.5295,-2.4775,-2.4186,-2.3927,-2.3677,-2.3329,-2.3144,-2.3144,-2.3144,-2.3144,-2.3144,-2.3144,-2.3144,-2.3144,-2.3144,-2.3144,-2.3144,-2.3144,-2.3144,-2.3144,-2.3144,-2.3144,-2.3144,-2.3144,-2.3144,-2.3144,-2.3144,-2.2949,-2.2852,-2.2852,-2.258,-2.2312,-2.2226,-2.1796,-2.1451,-2.1181,-2.057,-1.9955,-1.9423,-1.8799,-1.8324,-1.7934,-1.7574,-1.7429,-1.751,-1.7277,-1.7235,-1.7375,-1.7345,-1.7268,-1.7555,-1.7729,-1.7956,-1.8263,-1.8557,-1.8838,-1.9132,-1.9038,-1.9085,-1.9292,-1.9259,-1.9225,-1.9345,-1.9366,-1.9366,-1.9366,-1.9366,-1.9366,-1.9366,-1.9366,-1.9366,-1.9366,-1.9366,-1.9366,-1.9366,-1.9366,-1.9366,-1.9366,-1.9366,-1.9366,-1.9366,-1.9366,-1.9366,-1.9366,-1.9366,-1.9366,-1.9366,-1.9366,-1.9366,-1.9366,-1.9366,-1.9366,-1.9366,-1.9366,-1.9366,-1.9366,-1.9366,-1.9366,-3.1136,-3.0368,-3.0368,-3.0152,-2.9779,-2.9779,-2.9779,-2.9779,-2.9509,-2.9275,-2.9052,-2.8363,-2.7869,-2.7522,-2.6962,-2.6385,-2.5968,-2.5464,-2.4956,-2.4454,-2.4024,-2.3677,-2.3503,-2.3232,-2.3144,-2.3144,-2.3144,-2.3144,-2.3144,-2.3144,-2.3144,-2.3144,-2.3144,-2.3144,-2.3144,-2.3144,-2.3144,-2.3144,-2.3144,-2.3144,-2.3144,-2.3144,-2.3144,-2.3144,-2.3135,-2.3047,-2.3057,-2.2882,-2.2715,-2.253,-2.1998,-2.1562,-2.1383,-2.0744,-2.011,-1.9654,-1.9096,-1.8528,-1.804,-1.7695,-1.7542,-1.7537,-1.7553,-1.7589,-1.7569,-1.7382,-1.7368,-1.7662,-1.7976,-1.827,-1.8557,-1.8851,-1.9118,-1.9339,-1.9366,-1.9345,-1.9366,-1.9366,-1.9366,-1.9366,-1.9366,-1.9366,-1.9366,-1.9366,-1.9366,-1.9366,-1.9366,-1.9366,-1.9366,-1.9366,-1.9366,-1.9366,-1.9366,-1.9366,-1.9366,-1.9366,-1.9366,-1.9366,-1.9366,-1.9366,-1.9366,-1.9366,-1.9366,-1.9366,-1.9366,-1.9366,-1.9366,-1.9366,-1.9366,-1.9366,-1.9366,-1.9366,-1.9366,-1.9366,-1.9366,-3.1136,-3.0444,-3.0368,-3.0152,-2.9779,-2.9779,-2.9779,-2.9779,-2.9521,-2.9275,-2.9052,-2.8657,-2.8191,-2.78,-2.7149,-2.6633,-2.6113,-2.5527,-2.4946,-2.454,-2.4024,-2.3667,-2.3503,-2.3232,-2.3144,-2.3144,-2.3144,-2.3144,-2.3144,-2.3144,-2.3144,-2.3144,-2.3144,-2.3144,-2.3144,-2.3144,-2.3144,-2.3144,-2.3144,-2.3144,-2.3144,-2.3144,-2.3144,-2.3144,-2.3144,-2.3057,-2.2882,-2.2794,-2.253,-2.182,-2.1731,-2.1293,-2.0564,-2.0382,-1.9837,-1.9004,-1.8643,-1.8236,-1.7661,-1.7535,-1.7537,-1.7613,-1.7562,-1.7589,-1.7589,-1.7562,-1.7675,-1.7976,-1.8277,-1.8551,-1.8858,-1.9138,-1.9312,-1.9352,-1.9366,-1.9366,-1.9366,-1.9366,-1.9366,-1.9366,-1.9366,-1.9366,-1.9366,-1.9366,-1.9366,-1.9366,-1.9366,-1.9366,-1.9366,-1.9366,-1.9366,-1.9366,-1.9366,-1.9366,-1.9366,-1.9366,-1.9366,-1.9366,-1.9366,-1.9366,-1.9366,-1.9366,-1.9366,-1.9366,-1.9366,-1.9366,-1.9366,-1.9366,-1.9366,-1.9366,-1.9366,-1.9366,-1.9366,-1.9366,-1.9366,-3.1136,-3.0368,-3.0368,-3.0139,-2.9792,-2.9779,-2.9779,-2.9779,-2.9689,-2.9456,-2.9131,-2.8907,-2.851,-2.7881,-2.729,-2.6869,-2.6373,-2.5706,-2.52,-2.4871,-2.4186,-2.3754,-2.3667,-2.3232,-2.3144,-2.3144,-2.3144,-2.3144,-2.3144,-2.3144,-2.3144,-2.3144,-2.3144,-2.3144,-2.3144,-2.3144,-2.3144,-2.3144,-2.3144,-2.3144,-2.3144,-2.3144,-2.3144,-2.3057,-2.296,-2.2882,-2.2803,-2.2539,-2.2185,-2.1731,-2.1374,-2.0835,-2.0292,-1.992,-1.9371,-1.8835,-1.8364,-1.8,-1.7837,-1.7599,-1.7482,-1.7562,-1.7589,-1.7589,-1.7595,-1.7749,-1.7868,-1.8134,-1.83,-1.8611,-1.8905,-1.9192,-1.9366,-1.9366,-1.9366,-1.9366,-1.9366,-1.9366,-1.9366,-1.9366,-1.9366,-1.9366,-1.9366,-1.9366,-1.9366,-1.9366,-1.9366,-1.9366,-1.9366,-1.9366,-1.9366,-1.9366,-1.9366,-1.9366,-1.9366,-1.9366,-1.9366,-1.9366,-1.9366,-1.9366,-1.9366,-1.9366,-1.9366,-1.9366,-1.9366,-1.9366,-1.9366,-1.9366,-1.9366,-1.9366,-1.9366,-1.9366,-1.9366,-1.9366,-1.9366,-3.1149,-3.0432,-3.0292,-3.0075,-2.9792,-2.9779,-2.9779,-2.9779,-2.9779,-2.9546,-2.9197,-2.9131,-2.8736,-2.8042,-2.7522,-2.7033,-2.655,-2.579,-2.5369,-2.5115,-2.4272,-2.3841,-2.3754,-2.3309,-2.3144,-2.3144,-2.3144,-2.3144,-2.3144,-2.3144,-2.3144,-2.3144,-2.3144,-2.3144,-2.3144,-2.3144,-2.3144,-2.3144,-2.3144,-2.3144,-2.3144,-2.3144,-2.3144,-2.3057,-2.2882,-2.2803,-2.2706,-2.2264,-2.183,-2.1454,-2.0916,-2.0473,-2.0119,-1.9471,-1.8952,-1.852,-1.8059,-1.7795,-1.7837,-1.764,-1.7569,-1.7555,-1.7589,-1.7589,-1.7622,-1.7789,-1.7968,-1.8189,-1.8373,-1.8631,-1.9011,-1.9239,-1.9359,-1.9366,-1.9366,-1.9366,-1.9366,-1.9366,-1.9366,-1.9366,-1.9366,-1.9366,-1.9366,-1.9366,-1.9366,-1.9366,-1.9366,-1.9366,-1.9366,-1.9366,-1.9366,-1.9366,-1.9366,-1.9366,-1.9366,-1.9366,-1.9366,-1.9366,-1.9366,-1.9366,-1.9366,-1.9366,-1.9366,-1.9366,-1.9366,-1.9366,-1.9366,-1.9366,-1.9366,-1.9366,-1.9366,-1.9366,-1.9366,-1.9366,-1.9366,-3.1136,-3.0368,-3.0011,-2.9869,-2.9779,-2.9779,-2.9779,-2.9779,-2.9779,-2.9611,-2.9341,-2.9197,-2.8816,-2.8419,-2.7765,-2.7196,-2.655,-2.5874,-2.5369,-2.5115,-2.4262,-2.3841,-2.3764,-2.3319,-2.3144,-2.3144,-2.3144,-2.3144,-2.3144,-2.3144,-2.3144,-2.3144,-2.3144,-2.3144,-2.3144,-2.3144,-2.3144,-2.3144,-2.3144,-2.3144,-2.3144,-2.3144,-2.3144,-2.3057,-2.2882,-2.2706,-2.2441,-2.1998,-2.1553,-2.1087,-2.0555,-2.011,-1.9671,-1.912,-1.852,-1.7971,-1.7702,-1.7524,-1.7558,-1.761,-1.7562,-1.7582,-1.7589,-1.7589,-1.7589,-1.7655,-1.7809,-1.8183,-1.8393,-1.8744,-1.9219,-1.9332,-1.9366,-1.9366,-1.9366,-1.9366,-1.9366,-1.9366,-1.9366,-1.9366,-1.9366,-1.9366,-1.9366,-1.9366,-1.9366,-1.9366,-1.9366,-1.9366,-1.9366,-1.9366,-1.9366,-1.9366,-1.9366,-1.9366,-1.9366,-1.9366,-1.9366,-1.9366,-1.9366,-1.9366,-1.9366,-1.9366,-1.9366,-1.9366,-1.9366,-1.9366,-1.9366,-1.9366,-1.9366,-1.9366,-1.9366,-1.9366,-1.9366,-1.9366,-1.9366,-3.1136,-3.0368,-2.9934,-2.9779,-2.9779,-2.9779,-2.9779,-2.9779,-2.9779,-2.9689,-2.9431,-2.9197,-2.8895,-2.8498,-2.795,-2.7383,-2.6715,-2.6052,-2.5549,-2.5115,-2.4262,-2.3841,-2.3754,-2.3319,-2.3144,-2.3144,-2.3144,-2.3144,-2.3144,-2.3144,-2.3144,-2.3144,-2.3144,-2.3144,-2.3144,-2.3144,-2.3144,-2.3144,-2.3144,-2.3144,-2.3144,-2.3144,-2.3057,-2.2882,-2.2706,-2.2353,-2.2008,-2.1642,-2.1293,-2.0826,-2.0292,-1.9936,-1.9604,-1.8871,-1.8376,-1.8108,-1.7732,-1.7633,-1.7811,-1.7627,-1.7589,-1.7589,-1.7589,-1.7589,-1.7622,-1.7769,-1.7935,-1.817,-1.8546,-1.8951,-1.9245,-1.9366,-1.9366,-1.9366,-1.9366,-1.9366,-1.9366,-1.9366,-1.9366,-1.9366,-1.9366,-1.9366,-1.9366,-1.9366,-1.9366,-1.9366,-1.9366,-1.9366,-1.9366,-1.9366,-1.9366,-1.9366,-1.9366,-1.9366,-1.9366,-1.9366,-1.9366,-1.9366,-1.9366,-1.9366,-1.9366,-1.9366,-1.9366,-1.9366,-1.9366,-1.9366,-1.9366,-1.9366,-1.9366,-1.9366,-1.9366,-1.9366,-1.9366,-1.9366,-1.9366,-3.0911,-3.0368,-2.9934,-2.9779,-2.9779,-2.9779,-2.9779,-2.9779,-2.9779,-2.9702,-2.9509,-2.9209,-2.8895,-2.859,-2.8122,-2.7557,-2.6962,-2.6229,-2.5644,-2.5115,-2.4272,-2.3841,-2.3754,-2.3309,-2.3144,-2.3144,-2.3144,-2.3144,-2.3144,-2.3144,-2.3144,-2.3144,-2.3144,-2.3144,-2.3144,-2.3144,-2.3144,-2.3144,-2.3144,-2.3144,-2.3144,-2.3144,-2.2969,-2.2706,-2.253,-2.2176,-2.1731,-2.1383,-2.1024,-2.0572,-2.0119,-1.9571,-1.9152,-1.8517,-1.8171,-1.7987,-1.7698,-1.7592,-1.7857,-1.7694,-1.7589,-1.7589,-1.7589,-1.7589,-1.7602,-1.7776,-1.7948,-1.817,-1.8526,-1.8925,-1.9265,-1.9366,-1.9366,-1.9366,-1.9366,-1.9366,-1.9366,-1.9366,-1.9366,-1.9366,-1.9366,-1.9366,-1.9366,-1.9366,-1.9366,-1.9366,-1.9366,-1.9366,-1.9366,-1.9366,-1.9366,-1.9366,-1.9366,-1.9366,-1.9366,-1.9366,-1.9366,-1.9366,-1.9366,-1.9366,-1.9366,-1.9366,-1.9366,-1.9366,-1.9366,-1.9366,-1.9366,-1.9366,-1.9366,-1.9366,-1.9366,-1.9366,-1.9366,-1.9366,-1.9366,-3.0432,-3.0368,-2.9934,-2.9779,-2.9779,-2.9779,-2.9779,-2.9779,-2.9779,-2.9792,-2.9702,-2.93,-2.9064,-2.8907,-2.8203,-2.7626,-2.7115,-2.6302,-2.5633,-2.5115,-2.4262,-2.3841,-2.3754,-2.3309,-2.3144,-2.3144,-2.3144,-2.3144,-2.3144,-2.3144,-2.3144,-2.3144,-2.3144,-2.3144,-2.3144,-2.3144,-2.3144,-2.3144,-2.3144,-2.3144,-2.3144,-2.3057,-2.2872,-2.253,-2.2353,-2.2087,-2.1642,-2.1275,-2.0817,-2.0292,-1.9845,-1.922,-1.8559,-1.8183,-1.7991,-1.7626,-1.7516,-1.7502,-1.7647,-1.7589,-1.7589,-1.7589,-1.7589,-1.7589,-1.7589,-1.7615,-1.7856,-1.8247,-1.8413,-1.8738,-1.9239,-1.9366,-1.9366,-1.9366,-1.9366,-1.9366,-1.9366,-1.9366,-1.9366,-1.9366,-1.9366,-1.9366,-1.9366,-1.9366,-1.9366,-1.9366,-1.9366,-1.9366,-1.9366,-1.9366,-1.9366,-1.9366,-1.9366,-1.9366,-1.9366,-1.9366,-1.9366,-1.9366,-1.9366,-1.9366,-1.9366,-1.9366,-1.9366,-1.9366,-1.9366,-1.9366,-1.9366,-1.9366,-1.9366,-1.9366,-1.9366,-1.9366,-1.9366,-1.9366,-1.9366,-3.0368,-3.0368,-2.9934,-2.9779,-2.9779,-2.9779,-2.9779,-2.9779,-2.9779,-2.9779,-2.9702,-2.93,-2.9143,-2.8907,-2.8283,-2.7626,-2.7103,-2.6302,-2.5633,-2.5115,-2.4262,-2.3841,-2.3754,-2.3319,-2.3144,-2.3144,-2.3144,-2.3144,-2.3144,-2.3144,-2.3144,-2.3144,-2.3144,-2.3144,-2.3144,-2.3144,-2.3144,-2.3144,-2.3144,-2.3144,-2.3047,-2.2969,-2.2706,-2.2441,-2.2087,-2.1731,-2.1266,-2.1087,-2.0637,-2.0019,-1.9762,-1.9217,-1.8422,-1.8066,-1.7789,-1.7569,-1.7585,-1.7573,-1.7555,-1.7589,-1.7589,-1.7589,-1.7589,-1.7589,-1.7589,-1.7589,-1.7842,-1.826,-1.8497,-1.8731,-1.9219,-1.9366,-1.9366,-1.9366,-1.9366,-1.9366,-1.9366,-1.9366,-1.9366,-1.9366,-1.9366,-1.9366,-1.9366,-1.9366,-1.9366,-1.9366,-1.9366,-1.9366,-1.9366,-1.9366,-1.9366,-1.9366,-1.9366,-1.9366,-1.9366,-1.9366,-1.9366,-1.9366,-1.9366,-1.9366,-1.9366,-1.9366,-1.9366,-1.9366,-1.9366,-1.9366,-1.9366,-1.9366,-1.9366,-1.9366,-1.9366,-1.9366,-1.9366,-1.9366,-1.9366,-3.0368,-3.0368,-2.9934,-2.9779,-2.9779,-2.9779,-2.9779,-2.9779,-2.9779,-2.9779,-2.9702,-2.9287,-2.9143,-2.8907,-2.8283,-2.7626,-2.7103,-2.629,-2.5644,-2.5115,-2.4262,-2.3841,-2.3754,-2.3319,-2.3144,-2.3144,-2.3144,-2.3144,-2.3144,-2.3144,-2.3144,-2.3144,-2.3144,-2.3144,-2.3144,-2.3144,-2.3144,-2.3144,-2.3144,-2.3144,-2.3057,-2.2882,-2.2715,-2.2353,-2.1909,-2.1454,-2.1087,-2.0826,-2.0473,-1.9845,-1.9404,-1.8808,-1.8155,-1.7913,-1.7739,-1.7619,-1.759,-1.7582,-1.7589,-1.7589,-1.7589,-1.7589,-1.7589,-1.7589,-1.7589,-1.7589,-1.7822,-1.8217,-1.843,-1.8684,-1.9098,-1.9312,-1.9359,-1.9366,-1.9366,-1.9366,-1.9366,-1.9366,-1.9366,-1.9366,-1.9366,-1.9366,-1.9366,-1.9366,-1.9366,-1.9366,-1.9366,-1.9366,-1.9366,-1.9366,-1.9366,-1.9366,-1.9366,-1.9366,-1.9366,-1.9366,-1.9366,-1.9366,-1.9366,-1.9366,-1.9366,-1.9366,-1.9366,-1.9366,-1.9366,-1.9366,-1.9366,-1.9366,-1.9366,-1.9366,-1.9366,-1.9366,-1.9366,-1.9366,-1.9366,-3.0368,-3.0368,-2.9934,-2.9779,-2.9779,-2.9779,-2.9779,-2.9779,-2.9779,-2.9779,-2.9702,-2.93,-2.9143,-2.8895,-2.8271,-2.7626,-2.7115,-2.6302,-2.5633,-2.5031,-2.4262,-2.3754,-2.358,-2.3319,-2.3144,-2.3144,-2.3144,-2.3144,-2.3144,-2.3144,-2.3144,-2.3144,-2.3144,-2.3144,-2.3144,-2.3144,-2.3144,-2.3144,-2.3144,-2.3144,-2.3047,-2.2882,-2.2618,-2.2353,-2.1909,-2.1365,-2.0997,-2.0555,-2.0027,-1.9487,-1.8851,-1.8356,-1.8008,-1.7843,-1.7753,-1.7592,-1.7657,-1.7555,-1.7589,-1.7589,-1.7589,-1.7589,-1.7589,-1.7589,-1.7589,-1.7595,-1.7722,-1.807,-1.833,-1.8611,-1.8918,-1.9199,-1.9345,-1.9366,-1.9366,-1.9366,-1.9366,-1.9366,-1.9366,-1.9366,-1.9366,-1.9366,-1.9366,-1.9366,-1.9366,-1.9366,-1.9366,-1.9366,-1.9366,-1.9366,-1.9366,-1.9366,-1.9366,-1.9366,-1.9366,-1.9366,-1.9366,-1.9366,-1.9366,-1.9366,-1.9366,-1.9366,-1.9366,-1.9366,-1.9366,-1.9366,-1.9366,-1.9366,-1.9366,-1.9366,-1.9366,-1.9366,-1.9366,-1.9366,-1.9366,-3.0368,-3.0368,-2.9934,-2.9779,-2.9779,-2.9779,-2.9779,-2.9779,-2.9779,-2.9779,-2.9702,-2.93,-2.904,-2.8846,-2.8179,-2.7626,-2.7115,-2.6302,-2.5633,-2.5105,-2.4272,-2.3667,-2.3309,-2.3144,-2.3144,-2.3144,-2.3144,-2.3144,-2.3144,-2.3144,-2.3144,-2.3144,-2.3144,-2.3144,-2.3144,-2.3144,-2.3144,-2.3144,-2.3144,-2.3144,-2.3057,-2.2696,-2.2441,-2.2344,-2.1633,-2.1177,-2.0916,-2.0201,-1.9571,-1.9012,-1.8558,-1.8165,-1.796,-1.764,-1.7521,-1.7563,-1.762,-1.7589,-1.7589,-1.7589,-1.7589,-1.7589,-1.7589,-1.7589,-1.7589,-1.7589,-1.7736,-1.8016,-1.8317,-1.8597,-1.8885,-1.9192,-1.9339,-1.9366,-1.9366,-1.9366,-1.9366,-1.9366,-1.9366,-1.9366,-1.9366,-1.9366,-1.9366,-1.9366,-1.9366,-1.9366,-1.9366,-1.9366,-1.9366,-1.9366,-1.9366,-1.9366,-1.9366,-1.9366,-1.9366,-1.9366,-1.9366,-1.9366,-1.9366,-1.9366,-1.9366,-1.9366,-1.9366,-1.9366,-1.9366,-1.9366,-1.9366,-1.9366,-1.9366,-1.9366,-1.9366,-1.9366,-1.9366,-1.9366,-1.9366,-3.0368,-3.0368,-2.9934,-2.9779,-2.9779,-2.9779,-2.9779,-2.9779,-2.9779,-2.9779,-2.9702,-2.9287,-2.9028,-2.8834,-2.8167,-2.7615,-2.7103,-2.6302,-2.5633,-2.5105,-2.4262,-2.358,-2.3232,-2.3135,-2.3144,-2.3144,-2.3144,-2.3144,-2.3144,-2.3144,-2.3144,-2.3144,-2.3144,-2.3144,-2.3144,-2.3144,-2.3144,-2.3144,-2.3144,-2.3144,-2.3057,-2.2608,-2.2432,-2.2255,-2.1535,-2.0907,-2.0382,-1.9662,-1.902,-1.8651,-1.8218,-1.7911,-1.7795,-1.7498,-1.7387,-1.7613,-1.7575,-1.7589,-1.7589,-1.7589,-1.7589,-1.7589,-1.7589,-1.7589,-1.7589,-1.7589,-1.7689,-1.7829,-1.813,-1.8424,-1.8738,-1.9112,-1.9332,-1.9366,-1.9366,-1.9366,-1.9366,-1.9366,-1.9366,-1.9366,-1.9366,-1.9366,-1.9366,-1.9366,-1.9366,-1.9366,-1.9366,-1.9366,-1.9366,-1.9366,-1.9366,-1.9366,-1.9366,-1.9366,-1.9366,-1.9366,-1.9366,-1.9366,-1.9366,-1.9366,-1.9366,-1.9366,-1.9366,-1.9366,-1.9366,-1.9366,-1.9366,-1.9366,-1.9366,-1.9366,-1.9366,-1.9366,-1.9366,-1.9366,-1.9366,-3.0368,-3.0292,-2.9946,-2.9779,-2.9779,-2.9779,-2.9779,-2.9779,-2.9779,-2.9792,-2.9714,-2.93,-2.8937,-2.8718,-2.8167,-2.7615,-2.7103,-2.6302,-2.5559,-2.4861,-2.4176,-2.358,-2.3144,-2.3144,-2.3144,-2.3144,-2.3144,-2.3144,-2.3144,-2.3144,-2.3144,-2.3144,-2.3144,-2.3144,-2.3144,-2.3144,-2.3144,-2.3144,-2.3144,-2.3144,-2.3057,-2.2618,-2.2441,-2.2255,-2.1445,-2.0564,-1.9845,-1.912,-1.8743,-1.8481,-1.7916,-1.7669,-1.769,-1.7313,-1.732,-1.7553,-1.7582,-1.7589,-1.7589,-1.7589,-1.7589,-1.7589,-1.7589,-1.7589,-1.7589,-1.7589,-1.7602,-1.7642,-1.7876,-1.823,-1.8611,-1.9045,-1.9279,-1.9339,-1.9366,-1.9366,-1.9366,-1.9366,-1.9366,-1.9366,-1.9366,-1.9366,-1.9366,-1.9366,-1.9366,-1.9366,-1.9366,-1.9366,-1.9366,-1.9366,-1.9366,-1.9366,-1.9366,-1.9366,-1.9366,-1.9366,-1.9366,-1.9366,-1.9366,-1.9366,-1.9366,-1.9366,-1.9366,-1.9366,-1.9366,-1.9366,-1.9366,-1.9366,-1.9366,-1.9366,-1.9366,-1.9366,-1.9366,-1.9366,-1.9366,-3.0305,-3.0152,-2.9869,-2.9779,-2.9779,-2.9779,-2.9779,-2.9779,-2.9779,-2.9817,-2.9686,-2.9324,-2.8743,-2.8092,-2.7983,-2.7557,-2.6974,-2.6135,-2.5295,-2.409,-2.3927,-2.3493,-2.3144,-2.3144,-2.3144,-2.3144,-2.3144,-2.3144,-2.3144,-2.3144,-2.3144,-2.3144,-2.3144,-2.3144,-2.3144,-2.3144,-2.3144,-2.3144,-2.3144,-2.3144,-2.3057,-2.2618,-2.2344,-2.2255,-2.1275,-2.0382,-1.9671,-1.9112,-1.8651,-1.8179,-1.7751,-1.7442,-1.7464,-1.7313,-1.7306,-1.7533,-1.7589,-1.7589,-1.7589,-1.7589,-1.7589,-1.7589,-1.7589,-1.7589,-1.7589,-1.7589,-1.7589,-1.7635,-1.7876,-1.8223,-1.8698,-1.8918,-1.9138,-1.9299,-1.9366,-1.9366,-1.9366,-1.9366,-1.9366,-1.9366,-1.9366,-1.9366,-1.9366,-1.9366,-1.9366,-1.9366,-1.9366,-1.9366,-1.9366,-1.9366,-1.9366,-1.9366,-1.9366,-1.9366,-1.9366,-1.9366,-1.9366,-1.9366,-1.9366,-1.9366,-1.9366,-1.9366,-1.9366,-1.9366,-1.9366,-1.9366,-1.9366,-1.9366,-1.9366,-1.9366,-1.9366,-1.9366,-1.9366,-1.9366,-1.9366,-3.0292,-3.0075,-2.9869,-2.9779,-2.9779,-2.9779,-2.9779,-2.9779,-2.9779,-2.9752,-2.9711,-2.9324,-2.8652,-2.7909,-2.7891,-2.7557,-2.6809,-2.5968,-2.4946,-2.4013,-2.3754,-2.3493,-2.3144,-2.3144,-2.3144,-2.3144,-2.3144,-2.3144,-2.3144,-2.3144,-2.3144,-2.3144,-2.3144,-2.3144,-2.3144,-2.3144,-2.3144,-2.3144,-2.3144,-2.3144,-2.3057,-2.2696,-2.2078,-2.1722,-2.0916,-2.0209,-1.9579,-1.8835,-1.8365,-1.7986,-1.7441,-1.7149,-1.7372,-1.7127,-1.7218,-1.7566,-1.7589,-1.7589,-1.7589,-1.7589,-1.7589,-1.7589,-1.7589,-1.7589,-1.7589,-1.7589,-1.7589,-1.7609,-1.7762,-1.8063,-1.8637,-1.8878,-1.9052,-1.9285,-1.9366,-1.9366,-1.9366,-1.9366,-1.9366,-1.9366,-1.9366,-1.9366,-1.9366,-1.9366,-1.9366,-1.9366,-1.9366,-1.9366,-1.9366,-1.9366,-1.9366,-1.9366,-1.9366,-1.9366,-1.9366,-1.9366,-1.9366,-1.9366,-1.9366,-1.9366,-1.9366,-1.9366,-1.9366,-1.9366,-1.9366,-1.9366,-1.9366,-1.9366,-1.9366,-1.9366,-1.9366,-1.9366,-1.9366,-1.9366,-1.9366,-3.0216,-3.0075,-2.9856,-2.9779,-2.9779,-2.9779,-2.9779,-2.9779,-2.9779,-2.9764,-2.9724,-2.9337,-2.8676,-2.8048,-2.7903,-2.7464,-2.6633,-2.5706,-2.469,-2.3927,-2.3841,-2.3493,-2.3232,-2.3144,-2.3144,-2.3144,-2.3144,-2.3144,-2.3144,-2.3144,-2.3144,-2.3144,-2.3144,-2.3144,-2.3144,-2.3144,-2.3144,-2.3144,-2.3144,-2.3057,-2.2969,-2.2608,-2.1989,-2.1177,-2.0645,-2.0019,-1.9479,-1.8743,-1.8079,-1.7893,-1.7095,-1.7056,-1.7133,-1.7034,-1.6974,-1.7528,-1.7589,-1.7589,-1.7589,-1.7589,-1.7589,-1.7589,-1.7589,-1.7589,-1.7589,-1.7589,-1.7589,-1.7589,-1.7675,-1.7842,-1.8357,-1.8651,-1.8951,-1.9212,-1.9319,-1.9366,-1.9366,-1.9366,-1.9366,-1.9366,-1.9366,-1.9366,-1.9366,-1.9366,-1.9366,-1.9366,-1.9366,-1.9366,-1.9366,-1.9366,-1.9366,-1.9366,-1.9366,-1.9366,-1.9366,-1.9366,-1.9366,-1.9366,-1.9366,-1.9366,-1.9366,-1.9366,-1.9366,-1.9366,-1.9366,-1.9366,-1.9366,-1.9366,-1.9366,-1.9366,-1.9366,-1.9366,-1.9366,-1.9366,-1.9366,-3.0011,-2.9856,-2.9792,-2.9779,-2.9779,-2.9779,-2.9779,-2.9779,-2.9779,-2.9802,-2.9745,-2.9283,-2.8657,-2.8087,-2.7857,-2.7231,-2.6218,-2.5454,-2.469,-2.3927,-2.3754,-2.357,-2.3144,-2.3144,-2.3144,-2.3144,-2.3144,-2.3144,-2.3144,-2.3144,-2.3144,-2.3144,-2.3144,-2.3144,-2.3144,-2.3144,-2.3144,-2.3144,-2.3057,-2.3057,-2.2882,-2.253,-2.19,-2.1087,-2.0555,-1.9928,-1.9288,-1.855,-1.79,-1.7448,-1.7113,-1.7037,-1.7131,-1.692,-1.7027,-1.7435,-1.7589,-1.7589,-1.7589,-1.7589,-1.7589,-1.7589,-1.7589,-1.7589,-1.7589,-1.7589,-1.7589,-1.7589,-1.7609,-1.7749,-1.8083,-1.843,-1.8691,-1.8958,-1.9225,-1.9359,-1.9366,-1.9366,-1.9366,-1.9366,-1.9366,-1.9366,-1.9366,-1.9366,-1.9366,-1.9366,-1.9366,-1.9366,-1.9366,-1.9366,-1.9366,-1.9366,-1.9366,-1.9366,-1.9366,-1.9366,-1.9366,-1.9366,-1.9366,-1.9366,-1.9366,-1.9366,-1.9366,-1.9366,-1.9366,-1.9366,-1.9366,-1.9366,-1.9366,-1.9366,-1.9366,-1.9366,-1.9366,-1.9366,-1.9366,-3.0011,-2.9779,-2.9779,-2.9779,-2.9779,-2.9779,-2.9779,-2.9779,-2.9792,-2.9802,-2.963,-2.9308,-2.8669,-2.8042,-2.7708,-2.6951,-2.5874,-2.5369,-2.469,-2.4013,-2.3754,-2.357,-2.3144,-2.3144,-2.3144,-2.3144,-2.3144,-2.3144,-2.3144,-2.3144,-2.3144,-2.3144,-2.3144,-2.3144,-2.3144,-2.3144,-2.3144,-2.3144,-2.3057,-2.2969,-2.2803,-2.2362,-2.1633,-2.1087,-2.0374,-1.9837,-1.9188,-1.8458,-1.7893,-1.7391,-1.7156,-1.7093,-1.7059,-1.711,-1.7128,-1.7495,-1.7589,-1.7589,-1.7589,-1.7589,-1.7589,-1.7589,-1.7589,-1.7589,-1.7589,-1.7589,-1.7589,-1.7589,-1.7595,-1.7709,-1.8029,-1.8303,-1.8604,-1.8891,-1.9178,-1.9332,-1.9366,-1.9366,-1.9366,-1.9366,-1.9366,-1.9366,-1.9366,-1.9366,-1.9366,-1.9366,-1.9366,-1.9366,-1.9366,-1.9366,-1.9366,-1.9366,-1.9366,-1.9366,-1.9366,-1.9366,-1.9366,-1.9366,-1.9366,-1.9366,-1.9366,-1.9366,-1.9366,-1.9366,-1.9366,-1.9366,-1.9366,-1.9366,-1.9366,-1.9366,-1.9366,-1.9366,-1.9366,-1.9366,-1.9366,-2.9934,-2.9779,-2.9779,-2.9779,-2.9779,-2.9779,-2.9779,-2.9779,-2.9779,-2.9789,-2.9655,-2.9217,-2.8657,-2.7938,-2.7371,-2.6622,-2.5538,-2.5285,-2.469,-2.3927,-2.3754,-2.358,-2.3232,-2.3144,-2.3144,-2.3144,-2.3144,-2.3144,-2.3144,-2.3144,-2.3144,-2.3144,-2.3144,-2.3144,-2.3144,-2.3144,-2.3144,-2.3144,-2.3144,-2.2969,-2.2618,-2.1998,-2.1463,-2.0907,-2.0283,-1.9654,-1.9004,-1.845,-1.78,-1.7348,-1.7124,-1.7064,-1.7021,-1.715,-1.7335,-1.7528,-1.7582,-1.7589,-1.7589,-1.7589,-1.7589,-1.7589,-1.7589,-1.7589,-1.7589,-1.7589,-1.7589,-1.7589,-1.7589,-1.7649,-1.7896,-1.8203,-1.8504,-1.8791,-1.9065,-1.9299,-1.9345,-1.9366,-1.9366,-1.9366,-1.9366,-1.9366,-1.9366,-1.9366,-1.9366,-1.9366,-1.9366,-1.9366,-1.9366,-1.9366,-1.9366,-1.9366,-1.9366,-1.9366,-1.9366,-1.9366,-1.9366,-1.9366,-1.9366,-1.9366,-1.9366,-1.9366,-1.9366,-1.9366,-1.9366,-1.9366,-1.9366,-1.9366,-1.9366,-1.9366,-1.9366,-1.9366,-1.9366,-1.9366,-1.9243,-2.9792,-2.9779,-2.9779,-2.9779,-2.9779,-2.9779,-2.9779,-2.9779,-2.9779,-2.9584,-2.9411,-2.918,-2.8554,-2.7661,-2.7033,-2.6302,-2.5622,-2.5285,-2.469,-2.3927,-2.3754,-2.358,-2.3144,-2.3144,-2.3144,-2.3144,-2.3144,-2.3144,-2.3144,-2.3144,-2.3144,-2.3144,-2.3144,-2.3144,-2.3144,-2.3144,-2.3144,-2.3144,-2.3047,-2.2882,-2.2441,-2.1741,-2.1203,-2.0744,-2.0102,-1.9463,-1.8727,-1.8272,-1.7707,-1.6928,-1.7232,-1.7131,-1.6888,-1.7241,-1.7475,-1.7575,-1.7589,-1.7589,-1.7589,-1.7589,-1.7589,-1.7589,-1.7589,-1.7589,-1.7589,-1.7589,-1.7589,-1.7589,-1.7589,-1.7609,-1.7722,-1.7943,-1.8223,-1.8544,-1.8865,-1.9138,-1.9292,-1.9366,-1.9366,-1.9366,-1.9366,-1.9366,-1.9366,-1.9366,-1.9366,-1.9366,-1.9366,-1.9366,-1.9366,-1.9366,-1.9366,-1.9366,-1.9366,-1.9366,-1.9366,-1.9366,-1.9366,-1.9366,-1.9366,-1.9366,-1.9366,-1.9366,-1.9366,-1.9366,-1.9366,-1.9366,-1.9366,-1.9366,-1.9366,-1.9366,-1.9366,-1.9366,-1.9366,-1.9366,-1.9243,-2.9779,-2.9779,-2.9779,-2.9779,-2.9779,-2.9779,-2.9779,-2.9779,-2.9779,-2.9571,-2.9361,-2.9155,-2.8474,-2.7406,-2.6787,-2.6124,-2.5454,-2.52,-2.469,-2.3917,-2.3754,-2.359,-2.3232,-2.3144,-2.3144,-2.3144,-2.3144,-2.3144,-2.3144,-2.3144,-2.3144,-2.3144,-2.3144,-2.3144,-2.3144,-2.3144,-2.3144,-2.3047,-2.2784,-2.2441,-2.1998,-2.1463,-2.0925,-2.0473,-1.9828,-1.9188,-1.8635,-1.8087,-1.7527,-1.6883,-1.7169,-1.7193,-1.6941,-1.7221,-1.7582,-1.7582,-1.7589,-1.7589,-1.7589,-1.7589,-1.7589,-1.7589,-1.7589,-1.7589,-1.7589,-1.7589,-1.7589,-1.7589,-1.7589,-1.7589,-1.7635,-1.7869,-1.8156,-1.845,-1.8704,-1.9011,-1.9239,-1.9325,-1.9366,-1.9366,-1.9366,-1.9366,-1.9366,-1.9366,-1.9366,-1.9366,-1.9366,-1.9366,-1.9366,-1.9366,-1.9366,-1.9366,-1.9366,-1.9366,-1.9366,-1.9366,-1.9366,-1.9366,-1.9366,-1.9366,-1.9366,-1.9366,-1.9366,-1.9366,-1.9366,-1.9366,-1.9366,-1.9366,-1.9366,-1.9366,-1.9366,-1.9366,-1.9366,-1.912,-1.8887,-2.9779,-2.9779,-2.9779,-2.9779,-2.9779,-2.9779,-2.9779,-2.9792,-2.9702,-2.9559,-2.9258,-2.8919,-2.8167,-2.7267,-2.6704,-2.6041,-2.52,-2.5115,-2.4519,-2.4003,-2.3667,-2.3493,-2.3232,-2.3144,-2.3144,-2.3144,-2.3144,-2.3144,-2.3144,-2.3144,-2.3144,-2.3144,-2.3144,-2.3144,-2.3144,-2.3047,-2.3047,-2.2969,-2.2608,-2.2176,-2.1731,-2.1186,-2.0736,-2.0102,-1.9554,-1.8912,-1.8357,-1.79,-1.7246,-1.6883,-1.7079,-1.71,-1.6894,-1.7235,-1.7555,-1.7589,-1.7589,-1.7589,-1.7589,-1.7589,-1.7589,-1.7589,-1.7589,-1.7589,-1.7589,-1.7589,-1.7589,-1.7589,-1.7589,-1.7589,-1.7629,-1.7802,-1.8009,-1.8297,-1.8597,-1.8918,-1.9185,-1.9265,-1.9339,-1.9366,-1.9366,-1.9366,-1.9366,-1.9366,-1.9366,-1.9366,-1.9366,-1.9366,-1.9366,-1.9366,-1.9366,-1.9366,-1.9366,-1.9366,-1.9366,-1.9366,-1.9366,-1.9366,-1.9366,-1.9366,-1.9366,-1.9366,-1.9366,-1.9366,-1.9366,-1.9366,-1.9366,-1.9366,-1.9366,-1.9366,-1.9366,-1.9366,-1.9243,-1.9004,-1.8648,-2.9779,-2.9779,-2.9779,-2.9779,-2.9779,-2.9779,-2.9779,-2.9779,-2.9521,-2.9287,-2.8986,-2.8351,-2.7777,-2.7115,-2.6528,-2.5863,-2.52,-2.4786,-2.4272,-2.3927,-2.358,-2.3416,-2.3144,-2.3144,-2.3144,-2.3144,-2.3144,-2.3144,-2.3144,-2.3144,-2.3144,-2.3144,-2.3144,-2.3144,-2.3047,-2.3047,-2.296,-2.2794,-2.253,-2.2087,-2.1642,-2.1105,-2.0473,-1.9936,-1.9196,-1.8635,-1.8179,-1.7621,-1.7153,-1.6616,-1.6988,-1.7,-1.6908,-1.7268,-1.7555,-1.7589,-1.7589,-1.7589,-1.7589,-1.7589,-1.7589,-1.7589,-1.7589,-1.7589,-1.7589,-1.7589,-1.7589,-1.7589,-1.7589,-1.7589,-1.7589,-1.7642,-1.7842,-1.811,-1.8417,-1.8691,-1.8971,-1.9205,-1.9279,-1.9339,-1.9366,-1.9366,-1.9366,-1.9366,-1.9366,-1.9366,-1.9366,-1.9366,-1.9366,-1.9366,-1.9366,-1.9366,-1.9366,-1.9366,-1.9366,-1.9366,-1.9366,-1.9366,-1.9366,-1.9366,-1.9366,-1.9366,-1.9366,-1.9366,-1.9366,-1.9366,-1.9366,-1.9243,-1.9243,-1.9366,-1.9366,-1.9127,-1.8894,-1.8544,-1.8311,-2.9779,-2.9779,-2.9779,-2.9779,-2.9779,-2.9779,-2.9779,-2.9779,-2.9509,-2.9118,-2.8749,-2.8111,-2.7557,-2.6962,-2.6445,-2.5863,-2.52,-2.47,-2.4272,-2.3841,-2.358,-2.3319,-2.3232,-2.3144,-2.3144,-2.3144,-2.3144,-2.3144,-2.3144,-2.3144,-2.3144,-2.3144,-2.3144,-2.3144,-2.3047,-2.2969,-2.2794,-2.253,-2.2264,-2.1909,-2.1275,-2.0925,-2.0382,-1.9762,-1.9004,-1.845,-1.8087,-1.7434,-1.6965,-1.6742,-1.6918,-1.6919,-1.6787,-1.7288,-1.7542,-1.7589,-1.7589,-1.7589,-1.7589,-1.7589,-1.7589,-1.7589,-1.7589,-1.7589,-1.7589,-1.7589,-1.7589,-1.7589,-1.7589,-1.7589,-1.7589,-1.7602,-1.7722,-1.7969,-1.8223,-1.8484,-1.8718,-1.8958,-1.9178,-1.9232,-1.9319,-1.9366,-1.9366,-1.9366,-1.9366,-1.9366,-1.9366,-1.9366,-1.9366,-1.9366,-1.9366,-1.9366,-1.9366,-1.9366,-1.9366,-1.9366,-1.9366,-1.9366,-1.9366,-1.9366,-1.9366,-1.9366,-1.9366,-1.9366,-1.9352,-1.9223,-1.91,-1.9113,-1.9113,-1.912,-1.9004,-1.8887,-1.8544,-1.82,-1.7966,-2.9779,-2.9779,-2.9779,-2.9779,-2.9779,-2.9779,-2.9702,-2.9611,-2.9443,-2.8961,-2.8351,-2.795,-2.7476,-2.688,-2.6196,-2.5779,-2.5115,-2.4615,-2.4186,-2.3841,-2.3493,-2.3319,-2.3144,-2.3144,-2.3144,-2.3144,-2.3144,-2.3144,-2.3144,-2.3144,-2.3144,-2.3144,-2.3144,-2.3144,-2.3047,-2.2882,-2.2618,-2.2441,-2.2087,-2.1633,-2.1087,-2.0555,-2.0209,-1.9579,-1.8819,-1.8265,-1.7807,-1.7254,-1.6784,-1.6689,-1.6724,-1.686,-1.7009,-1.7188,-1.7522,-1.7589,-1.7589,-1.7589,-1.7589,-1.7589,-1.7589,-1.7589,-1.7589,-1.7589,-1.7589,-1.7589,-1.7589,-1.7589,-1.7589,-1.7589,-1.7589,-1.7602,-1.7622,-1.7836,-1.8029,-1.827,-1.8457,-1.8677,-1.8931,-1.9125,-1.9185,-1.9225,-1.9345,-1.9345,-1.9319,-1.9332,-1.9366,-1.9366,-1.9366,-1.9366,-1.9366,-1.9366,-1.9366,-1.9366,-1.9366,-1.9366,-1.9366,-1.9366,-1.9366,-1.9366,-1.9366,-1.9366,-1.9243,-1.9236,-1.9107,-1.8958,-1.8777,-1.8577,-1.8654,-1.8752,-1.8622,-1.8487,-1.8311,-1.7966,-1.7843,-2.9779,-2.9779,-2.9779,-2.9779,-2.9779,-2.9779,-2.9702,-2.9431,-2.9197,-2.8736,-2.8179,-2.7684,-2.729,-2.6715,-2.5946,-2.5443,-2.502,-2.4262,-2.3841,-2.3754,-2.3406,-2.3144,-2.3144,-2.3144,-2.3144,-2.3144,-2.3144,-2.3144,-2.3144,-2.3144,-2.3144,-2.3144,-2.3144,-2.3144,-2.3047,-2.2882,-2.2706,-2.2353,-2.1909,-2.1454,-2.0997,-2.0374,-1.9936,-1.9487,-1.8643,-1.8087,-1.7721,-1.7059,-1.6588,-1.6415,-1.6603,-1.668,-1.6774,-1.7275,-1.7555,-1.7589,-1.7589,-1.7589,-1.7589,-1.7589,-1.7589,-1.7589,-1.7589,-1.7589,-1.7589,-1.7589,-1.7589,-1.7589,-1.7589,-1.7589,-1.7589,-1.7589,-1.7622,-1.7689,-1.7883,-1.805,-1.8237,-1.8377,-1.8631,-1.8865,-1.8938,-1.9011,-1.9205,-1.9312,-1.9279,-1.9292,-1.9345,-1.9359,-1.9345,-1.9366,-1.9366,-1.9366,-1.9366,-1.9366,-1.9366,-1.9366,-1.9366,-1.9366,-1.9366,-1.9366,-1.9366,-1.9359,-1.9236,-1.8984,-1.8783,-1.8577,-1.8345,-1.8008,-1.7957,-1.802,-1.8165,-1.8081,-1.7917,-1.7775,-1.7438,-2.9779,-2.9779,-2.9779,-2.9779,-2.9779,-2.9779,-2.9689,-2.9353,-2.8882,-2.8431,-2.795,-2.7522,-2.694,-2.6362,-2.579,-2.5274,-2.485,-2.4262,-2.3841,-2.3754,-2.3309,-2.3144,-2.3144,-2.3144,-2.3144,-2.3144,-2.3144,-2.3144,-2.3144,-2.3144,-2.3144,-2.3144,-2.3144,-2.3144,-2.296,-2.2784,-2.2432,-2.2353,-2.183,-2.1293,-2.1006,-2.0283,-1.9754,-1.9587,-1.855,-1.7994,-1.7628,-1.6965,-1.6494,-1.6293,-1.6498,-1.668,-1.68,-1.7261,-1.7569,-1.7589,-1.7589,-1.7589,-1.7589,-1.7589,-1.7589,-1.7589,-1.7589,-1.7589,-1.7589,-1.7589,-1.7589,-1.7589,-1.7589,-1.7589,-1.7589,-1.7589,-1.7602,-1.7602,-1.7742,-1.7876,-1.8029,-1.813,-1.8297,-1.8517,-1.8651,-1.8677,-1.8811,-1.8958,-1.8978,-1.9045,-1.9085,-1.9232,-1.9265,-1.9325,-1.9359,-1.9366,-1.9366,-1.9366,-1.9359,-1.9292,-1.9332,-1.9366,-1.9366,-1.9366,-1.9366,-1.9196,-1.8846,-1.8512,-1.8352,-1.818,-1.7748,-1.7378,-1.7196,-1.7163,-1.7427,-1.7501,-1.7303,-1.7128,-1.7031,-2.9779,-2.9779,-2.9779,-2.9779,-2.9779,-2.9702,-2.9521,-2.9118,-2.8657,-2.8191,-2.7696,-2.7278,-2.6704,-2.6124,-2.5622,-2.5115,-2.469,-2.409,-2.3754,-2.3667,-2.3309,-2.3135,-2.3144,-2.3144,-2.3144,-2.3144,-2.3144,-2.3144,-2.3144,-2.3144,-2.3144,-2.3144,-2.3144,-2.3057,-2.2882,-2.2618,-2.2432,-2.2167,-2.1731,-2.1114,-2.0744,-2.0201,-1.9662,-1.9204,-1.855,-1.7908,-1.7441,-1.6965,-1.6407,-1.6286,-1.641,-1.668,-1.6874,-1.7194,-1.7542,-1.7589,-1.7589,-1.7589,-1.7589,-1.7589,-1.7589,-1.7589,-1.7589,-1.7589,-1.7589,-1.7589,-1.7589,-1.7589,-1.7589,-1.7589,-1.7589,-1.7589,-1.7589,-1.7589,-1.7629,-1.7769,-1.7802,-1.7903,-1.8009,-1.8223,-1.8337,-1.8364,-1.8437,-1.8517,-1.8617,-1.8711,-1.8811,-1.8951,-1.9078,-1.9125,-1.9145,-1.9138,-1.9132,-1.9085,-1.9105,-1.9152,-1.9219,-1.9345,-1.9325,-1.9156,-1.8968,-1.8653,-1.8402,-1.8159,-1.7862,-1.7516,-1.7067,-1.6741,-1.6594,-1.6557,-1.6649,-1.6741,-1.6646,-1.6658,-1.6616,-2.9792,-2.9792,-2.9792,-2.9792,-2.9702,-2.9443,-2.9184,-2.8803,-2.8327,-2.7938,-2.7522,-2.7044,-2.6467,-2.5884,-2.538,-2.4956,-2.4529,-2.4013,-2.3754,-2.3493,-2.3232,-2.3144,-2.3144,-2.3144,-2.3144,-2.3144,-2.3144,-2.3144,-2.3144,-2.3144,-2.3144,-2.3144,-2.3144,-2.3057,-2.2794,-2.253,-2.2441,-2.2078,-2.1553,-2.1105,-2.0654,-2.0019,-1.9387,-1.892,-1.8365,-1.7815,-1.7254,-1.6784,-1.6305,-1.6211,-1.6373,-1.66,-1.6887,-1.7275,-1.7475,-1.7589,-1.7589,-1.7589,-1.7589,-1.7589,-1.7589,-1.7589,-1.7589,-1.7589,-1.7589,-1.7589,-1.7589,-1.7589,-1.7589,-1.7589,-1.7589,-1.7589,-1.7589,-1.7589,-1.7589,-1.7622,-1.7622,-1.7695,-1.7789,-1.7916,-1.8003,-1.8083,-1.8223,-1.8303,-1.8257,-1.827,-1.8337,-1.837,-1.851,-1.8691,-1.8711,-1.8718,-1.8711,-1.8718,-1.8778,-1.8891,-1.8831,-1.8911,-1.8863,-1.8722,-1.8535,-1.8197,-1.793,-1.7572,-1.7247,-1.6981,-1.6545,-1.6259,-1.6018,-1.6114,-1.6211,-1.6296,-1.6368,-1.6342,-1.6348,-2.9312,-2.93,-2.9431,-2.9443,-2.9287,-2.904,-2.8803,-2.8578,-2.8111,-2.7696,-2.7267,-2.6693,-2.6124,-2.5622,-2.52,-2.4711,-2.4282,-2.3937,-2.3764,-2.3493,-2.3232,-2.3144,-2.3144,-2.3144,-2.3144,-2.3144,-2.3144,-2.3144,-2.3144,-2.3144,-2.3144,-2.3144,-2.3047,-2.2969,-2.2794,-2.253,-2.2353,-2.2008,-2.1472,-2.1024,-2.0464,-1.9828,-1.9279,-1.8727,-1.8272,-1.7721,-1.7073,-1.669,-1.6305,-1.6027,-1.6406,-1.6687,-1.6754,-1.7241,-1.7589,-1.7589,-1.7589,-1.7589,-1.7589,-1.7589,-1.7589,-1.7589,-1.7589,-1.7589,-1.7589,-1.7589,-1.7589,-1.7589,-1.7589,-1.7589,-1.7589,-1.7589,-1.7589,-1.7589,-1.7589,-1.7589,-1.7589,-1.7615,-1.7702,-1.7716,-1.7802,-1.7829,-1.7976,-1.7949,-1.7896,-1.7862,-1.7869,-1.7916,-1.7996,-1.821,-1.831,-1.8323,-1.8364,-1.839,-1.8497,-1.8611,-1.8532,-1.8467,-1.8333,-1.8246,-1.7892,-1.7665,-1.7321,-1.6968,-1.671,-1.6435,-1.6144,-1.5916,-1.5885,-1.5885,-1.5964,-1.6012,-1.6072,-1.6072,-1.612,-2.9143,-2.9131,-2.9197,-2.9197,-2.8961,-2.8736,-2.8498,-2.8191,-2.7869,-2.7452,-2.7033,-2.6373,-2.579,-2.5369,-2.4956,-2.4454,-2.4024,-2.3764,-2.359,-2.3319,-2.3222,-2.3135,-2.3144,-2.3144,-2.3144,-2.3144,-2.3144,-2.3144,-2.3144,-2.3144,-2.3144,-2.3047,-2.3047,-2.2882,-2.2618,-2.2353,-2.2097,-2.183,-2.1392,-2.0942,-2.0292,-1.9637,-1.9088,-1.8542,-1.8179,-1.7535,-1.6979,-1.6588,-1.6211,-1.5912,-1.6393,-1.6693,-1.6807,-1.7248,-1.7575,-1.7589,-1.7589,-1.7589,-1.7589,-1.7589,-1.7589,-1.7589,-1.7589,-1.7589,-1.7589,-1.7589,-1.7589,-1.7589,-1.7589,-1.7589,-1.7589,-1.7589,-1.7589,-1.7589,-1.7589,-1.7589,-1.7589,-1.7589,-1.7595,-1.7595,-1.7609,-1.7615,-1.7615,-1.7589,-1.7595,-1.7662,-1.7695,-1.7702,-1.7756,-1.7869,-1.7949,-1.7969,-1.8036,-1.8096,-1.821,-1.8214,-1.8053,-1.7896,-1.7796,-1.7665,-1.7284,-1.7054,-1.6735,-1.6447,-1.6251,-1.6053,-1.5922,-1.5903,-1.5885,-1.5885,-1.5885,-1.5934,-1.5964,-1.5982,-1.6,-2.9052,-2.9064,-2.9052,-2.8895,-2.8712,-2.8498,-2.8191,-2.7881,-2.7534,-2.7208,-2.6715,-2.6146,-2.5549,-2.5115,-2.4625,-2.4196,-2.3851,-2.359,-2.3416,-2.3144,-2.3135,-2.3144,-2.3144,-2.3144,-2.3144,-2.3144,-2.3144,-2.3144,-2.3144,-2.3144,-2.3135,-2.3047,-2.2872,-2.2706,-2.2441,-2.2176,-2.183,-2.1472,-2.1114,-2.0762,-2.0019,-1.9455,-1.8904,-1.8272,-1.7807,-1.734,-1.6777,-1.64,-1.6123,-1.6121,-1.6313,-1.6673,-1.7027,-1.7268,-1.7515,-1.7589,-1.7589,-1.7589,-1.7589,-1.7589,-1.7589,-1.7589,-1.7589,-1.7589,-1.7589,-1.7589,-1.7589,-1.7589,-1.7589,-1.7589,-1.7589,-1.7589,-1.7589,-1.7589,-1.7589,-1.7589,-1.7589,-1.7589,-1.7589,-1.7589,-1.7589,-1.7589,-1.7589,-1.7589,-1.7589,-1.7589,-1.7589,-1.7589,-1.7609,-1.7669,-1.7689,-1.7716,-1.7676,-1.7661,-1.7607,-1.7603,-1.747,-1.7347,-1.7208,-1.7041,-1.6745,-1.6441,-1.6271,-1.6042,-1.6041,-1.5916,-1.5891,-1.5885,-1.5885,-1.5885,-1.5885,-1.5885,-1.5885,-1.5885,-1.5891,-2.8669,-2.8669,-2.8498,-2.8498,-2.851,-2.8203,-2.7788,-2.736,-2.7126,-2.6798,-2.629,-2.579,-2.5285,-2.47,-2.4368,-2.4024,-2.3677,-2.3503,-2.3319,-2.3144,-2.3144,-2.3144,-2.3144,-2.3144,-2.3144,-2.3144,-2.3144,-2.3144,-2.3144,-2.3144,-2.3047,-2.3047,-2.2882,-2.2627,-2.2353,-2.1998,-2.1562,-2.1105,-2.0744,-2.0391,-1.9837,-1.898,-1.8319,-1.7978,-1.7714,-1.7145,-1.6676,-1.6305,-1.6028,-1.5932,-1.6413,-1.6881,-1.7361,-1.7508,-1.7575,-1.7589,-1.7589,-1.7589,-1.7589,-1.7589,-1.7589,-1.7589,-1.7589,-1.7589,-1.7589,-1.7589,-1.7589,-1.7589,-1.7589,-1.7589,-1.7589,-1.7589,-1.7589,-1.7589,-1.7589,-1.7589,-1.7589,-1.7589,-1.7589,-1.7589,-1.7589,-1.7589,-1.7589,-1.7589,-1.7589,-1.7589,-1.7589,-1.7589,-1.7483,-1.7411,-1.7411,-1.743,-1.7318,-1.7264,-1.7203,-1.7135,-1.7022,-1.6794,-1.6609,-1.6421,-1.6227,-1.6126,-1.6024,-1.5964,-1.5891,-1.5885,-1.5885,-1.5885,-1.5885,-1.5885,-1.5885,-1.5885,-1.5885,-1.5885,-1.5885,-2.851,-2.851,-2.8247,-2.8259,-2.8271,-2.7777,-2.7441,-2.7196,-2.6798,-2.6407,-2.599,-2.5549,-2.5031,-2.4444,-2.4196,-2.3851,-2.3503,-2.3406,-2.3232,-2.3144,-2.3144,-2.3144,-2.3144,-2.3144,-2.3144,-2.3144,-2.3144,-2.3144,-2.3144,-2.3047,-2.3047,-2.2969,-2.2715,-2.2451,-2.2087,-2.1731,-2.1284,-2.0736,-2.0292,-1.9928,-1.9471,-1.8696,-1.8226,-1.7978,-1.7527,-1.6958,-1.6581,-1.6305,-1.6021,-1.5985,-1.64,-1.6974,-1.7375,-1.7569,-1.7582,-1.7589,-1.7589,-1.7589,-1.7589,-1.7589,-1.7589,-1.7589,-1.7589,-1.7589,-1.7589,-1.7589,-1.7589,-1.7589,-1.7589,-1.7589,-1.7589,-1.7589,-1.7589,-1.7589,-1.7589,-1.7589,-1.7589,-1.7589,-1.7589,-1.7589,-1.7589,-1.7589,-1.7589,-1.7589,-1.7589,-1.7589,-1.7589,-1.7384,-1.7384,-1.7166,-1.716,-1.716,-1.6955,-1.6855,-1.6687,-1.6587,-1.6493,-1.6342,-1.6105,-1.6129,-1.6053,-1.5916,-1.5891,-1.5885,-1.5885,-1.5885,-1.5885,-1.5885,-1.5885,-1.5885,-1.5885,-1.5885,-1.5885,-1.5885,-1.5885,-2.851,-2.8419,-2.8259,-2.8099,-2.8007,-2.7429,-2.7103,-2.694,-2.6479,-2.6118,-2.5814,-2.5317,-2.4871,-2.4454,-2.4024,-2.3677,-2.3416,-2.3232,-2.3144,-2.3144,-2.3144,-2.3144,-2.3144,-2.3144,-2.3144,-2.3144,-2.3144,-2.3144,-2.3144,-2.3047,-2.2969,-2.2803,-2.2451,-2.2176,-2.1741,-2.1383,-2.0934,-2.0382,-1.9928,-1.9471,-1.8904,-1.8419,-1.8149,-1.78,-1.7347,-1.6878,-1.6494,-1.6116,-1.5825,-1.6052,-1.6386,-1.6967,-1.7382,-1.7589,-1.7589,-1.7589,-1.7589,-1.7589,-1.7589,-1.7589,-1.7589,-1.7589,-1.7589,-1.7589,-1.7589,-1.7589,-1.7589,-1.7589,-1.7589,-1.7589,-1.7589,-1.7589,-1.7589,-1.7589,-1.7589,-1.7589,-1.7589,-1.7589,-1.7589,-1.7589,-1.7589,-1.7589,-1.7589,-1.7589,-1.7589,-1.7483,-1.7378,-1.7279,-1.7073,-1.6855,-1.6743,-1.6736,-1.663,-1.6424,-1.6324,-1.6318,-1.6211,-1.6105,-1.5998,-1.5992,-1.5885,-1.5885,-1.5885,-1.5885,-1.5885,-1.5885,-1.5885,-1.5885,-1.5885,-1.5885,-1.5885,-1.5885,-1.5885,-1.5885,-1.5885,-2.8431,-2.8259,-2.8042,-2.7788,-2.7348,-2.7044,-2.6715,-2.6396,-2.6146,-2.5961,-2.5667,-2.5019,-2.4464,-2.4161,-2.3947,-2.358,-2.3232,-2.3144,-2.3144,-2.3144,-2.3144,-2.3144,-2.3144,-2.3144,-2.3144,-2.3144,-2.3144,-2.3144,-2.3057,-2.2979,-2.2803,-2.2715,-2.2362,-2.2008,-2.1651,-2.1203,-2.0663,-2.011,-1.9554,-1.8912,-1.8727,-1.835,-1.7885,-1.7426,-1.6965,-1.6588,-1.6218,-1.6021,-1.5825,-1.6005,-1.6386,-1.6961,-1.7335,-1.7569,-1.7589,-1.7589,-1.7589,-1.7589,-1.7589,-1.7589,-1.7589,-1.7589,-1.7589,-1.7589,-1.7589,-1.7589,-1.7589,-1.7589,-1.7589,-1.7589,-1.7589,-1.7589,-1.7589,-1.7589,-1.7589,-1.7589,-1.7589,-1.7589,-1.7589,-1.7589,-1.7589,-1.7589,-1.7589,-1.7589,-1.7483,-1.7378,-1.7173,-1.7073,-1.6849,-1.6636,-1.6424,-1.6318,-1.6205,-1.6211,-1.6217,-1.6105,-1.5992,-1.5885,-1.5885,-1.5885,-1.5885,-1.5885,-1.5885,-1.5885,-1.5885,-1.5885,-1.5885,-1.5885,-1.5885,-1.5885,-1.5885,-1.5885,-1.5885,-1.5885,-1.5885]},{"header":{"parameterUnit":"m.s-1","parameterCategory":1,"la1":31.0,"la2":29.5877,"lo1":-88.7671,"lo2":-86.6584,"dy":0.0162,"dx":0.0185,"nx":115,"ny":88,"refTime":"2024-06-04T18:00:00:Z","depth":0,"parameterNumber":3,"parameterNumberName":"V-component_of_WINDS"},"data":[0.0,0.0,0.0,0.0,0.0,0.0,0.0,0.0,0.0,0.0,0.0,0.0,0.0,0.0,0.0,0.0,0.0,0.0,0.0,0.0,0.0,0.0,0.0,0.0,0.0,0.0,0.0,0.0,0.0,0.0,0.0,0.0,0.0,0.0,0.0,0.0,0.0,0.0,0.0,0.0,0.0,0.0,0.0,0.0,0.0,0.0,0.0,0.0,0.0,0.0,0.0,0.0,0.0,0.0,0.0,0.0,0.0,0.0,0.0,0.0,0.0,0.0,0.0,0.0,0.0,0.0,0.0,0.0,0.0,0.0,0.0,0.0,0.0,0.0,0.0,0.0,0.0,0.0,0.0,0.0,0.0,0.0,0.0,0.0,0.0,0.0,0.0,0.0,0.0,0.0,0.0,0.0,0.0,0.0,0.0,0.0,0.0,0.0,0.0,0.0,0.0,0.0,0.0,0.0,0.0,0.0,0.0,0.0,0.0,0.0,0.0,0.0,0.0,0.0,0.0,0.0,0.0,0.0,0.0,0.0,0.0,0.0,0.0,0.0,0.0,0.0,0.0,0.0,0.0,0.0,0.0,0.0,0.0,0.0,0.0,0.0,0.0,0.0,0.0,0.0,0.0,0.0,0.0,0.0,0.0,0.0,0.0,0.0,0.0,0.0,0.0,0.0,0.0,0.0,0.0,0.0,0.0,0.0,0.0,0.0,0.0,0.0,0.0,0.0,0.0,0.0,0.0,0.0,0.0,0.0,0.0,0.0,0.0,0.0,0.0,0.0,0.0,0.0,0.0,0.0,0.0,0.0,0.0,0.0,0.0,0.0,0.0,0.0,0.0,0.0,0.0,0.0,0.0,0.0,0.0,0.0,0.0,0.0,0.0,0.0,0.0,0.0,0.0,0.0,0.0,0.0,0.0,0.0,0.0,0.0,0.0,0.0,0.0,0.0,0.0,0.0,0.0,0.0,0.0,0.0,0.0,0.0,0.0,0.0,0.0,0.0,0.0,0.0,0.0,0.0,0.0,0.0,0.0,0.0,0.0,0.0,0.0,0.0,0.0,0.0,0.0,0.0,0.0,0.0,0.0,0.0,0.0,0.0,0.0,0.0,0.0,0.0,0.0,0.0,0.0,0.0,0.0,0.0,0.0,0.0,0.0,0.0,0.0,0.0,0.0,0.0,0.0,0.0,0.0,0.0,0.0,0.0,0.0,0.0,0.0,0.0,0.0,0.0,0.0,0.0,0.0,0.0,0.0,0.0,0.0,0.0,0.0,0.0,0.0,0.0,0.0,0.0,0.0,0.0,0.0,0.0,0.0,0.0,0.0,0.0,0.0,0.0,0.0,0.0,0.0,0.0,0.0,0.0,0.0,0.0,0.0,0.0,0.0,0.0,0.0,0.0,0.0,0.0,0.0,0.0,0.0,0.0,0.0,0.0,0.0,0.0,0.0,0.0,0.0,0.0,0.0,0.0,0.0,0.0,0.0,0.0,0.0,0.0,0.0,0.0,0.0,0.0,0.0,0.0,0.0,0.0,0.0,0.0,0.0,0.0,0.0,0.0,0.0,0.0,0.0,0.0,0.0,0.0,0.0,0.0,0.0,0.0,0.0,0.0,0.0,0.0,0.0,0.0,0.0,0.0,0.0,0.0,0.0,0.0,0.0,0.0,0.0,0.0,0.0,0.0,0.0,0.0,0.0,0.0,0.0,0.0,0.0,0.0,0.0,0.0,0.0,0.0,0.0,0.0,0.0,0.0,0.0,0.0,0.0,0.0,0.0,0.0,0.0,0.0,0.0,0.0,0.0,0.0,0.0,0.0,0.0,0.0,0.0,0.0,0.0,0.0,0.0,0.0,0.0,0.0,0.0,0.0,0.0,0.0,0.0,0.0,0.0,0.0,0.0,0.0,0.0,0.0,0.0,0.0,0.0,0.0,0.0,0.0,0.0,0.0,0.0,0.0,0.0,0.0,0.0,0.0,0.0,0.0,0.0,0.0,0.0,0.0,0.0,0.0,0.0,0.0,0.0,0.0,0.0,0.0,0.0,0.0,0.0,0.0,0.0,0.0,0.0,0.0,0.0,0.0,0.0,0.0,0.0,0.0,0.0,0.0,0.0,0.0,0.0,0.0,0.0,0.0,0.0,0.0,0.0,0.0,0.0,0.0,0.0,0.0,0.0,0.0,0.0,0.0,0.0,0.0,0.0,0.0,0.0,0.0,0.0,0.0,0.0,0.0,0.0,0.0,0.0,0.0,0.0,0.0,0.0,0.0,0.0,0.0,0.0,0.0,0.0,0.0,0.0,0.0,0.0,0.0,0.0,0.0,0.0,0.0,0.0,0.0,0.0,0.0,0.0,0.0,0.0,0.0,0.0,0.0,0.0,0.0,0.0,0.0,0.0,0.0,0.0,0.0,0.0,0.0,0.0,0.0,0.0,0.0,0.0,0.0,0.0,0.0,0.0,0.0,0.0,0.0,0.0,0.0,0.0,0.0,0.0,0.0,0.0,0.0,0.0,0.0,0.0,0.0,0.0,0.0,0.0,0.0,0.0,0.0,0.0,0.0,0.0,0.0,0.0,0.0,0.0,0.0,0.0,0.0,0.0,0.0,0.0,0.0,0.0,0.0,0.0,0.0,0.0,0.0,0.0,0.0,0.0,0.0,0.0,0.0,0.0,0.0,0.0,0.0,0.0,0.0,0.0,0.0,0.0,0.0,0.0,0.0,0.0,0.0,0.0,0.0,0.0,0.0,0.0,0.0,0.0,0.0,0.0,0.0,0.0,0.0,0.0,0.0,0.0,0.0,0.0,0.0,0.0,0.0,0.0,0.0,0.0,0.0,0.0,0.0,0.0,0.0,0.0,0.0,0.0,0.0,0.0,0.0,0.0,0.0,0.0,0.0,0.0,0.0,0.0,0.0,0.0,0.0,0.0,0.0,0.0,0.0,0.0,0.0,0.0,0.0,0.0,0.0,0.0,0.0,0.0,0.0,0.0,0.0,0.0,0.0,0.0,0.0,0.0,0.0,0.0,0.0,0.0,0.0,0.0,0.0,0.0,0.0,0.0,0.0,0.0,0.0,0.0,0.0,0.0,0.0,0.0,0.0,0.0,0.0,0.0,0.0,0.0,0.0,0.0,0.0,0.0,0.0,0.0,0.0,0.0,0.0,0.0,0.0,0.0,0.0,0.0,0.0,0.0,0.0,0.0,0.0,0.0,0.0,0.0,0.0,0.0,0.0,0.0,0.0,0.0,0.0,0.0,0.0,0.0,0.0,0.0,0.0,0.0,0.0,0.0,0.0,0.0,0.0,0.0,0.0,0.0,0.0,0.0,0.0,0.0,0.0,0.0,0.0,0.0,0.0,0.0,0.0,0.0,0.0,0.0,0.0,0.0,0.0,0.0,0.0,0.0,0.0,0.0,0.0,0.0,0.0,0.0,0.0,0.0,0.0,0.0,0.0,0.0,0.0,0.0,0.0,0.0,0.0,0.0,0.0,0.0,0.0,0.0,0.0,0.0,0.0,0.0,0.0,0.0,0.0,0.0,0.0,0.0,0.0,0.0,0.0,0.0,0.0,0.0,0.0,0.0,0.0,0.0,0.0,0.0,0.0,0.0,0.0,0.0,0.0,0.0,0.0,0.0,0.0,0.0,0.0,0.0,0.0,0.0,0.0,0.0,0.0,0.0,0.0,0.0,0.0,0.0,0.0,0.0,0.0,0.0,0.0,0.0,0.0,0.0,0.0,0.0,0.0,0.0,0.0,0.0,0.0,0.0,0.0,0.0,0.0,0.0,0.0,0.0,0.0,0.0,0.0,0.0,0.0,0.0,0.0,0.0,0.0,0.0,0.0,0.0,0.0,0.0,0.0,0.0,0.0,0.0,0.0,0.0,0.0,0.0,0.0,0.0,0.0,0.0,0.0,0.0,0.0,0.0,0.0,0.0,0.0,0.0,0.0,0.0,0.0,0.0,0.0,0.0,0.0,0.0,0.0,0.0,0.0,0.0,0.0,0.0,0.0,0.0,0.0,0.0,0.0,0.0,0.0,0.0,0.0,0.0,0.0,0.0,0.0,0.0,0.0,0.0,0.0,0.0,0.0,0.0,0.0,0.0,0.0,0.0,0.0,0.0,0.0,0.0,0.0,0.0,0.0,0.0,0.0,0.0,0.0,0.0,0.0,0.0,0.0,0.0,0.0,0.0,0.0,0.0,0.0,0.0,0.0,0.0,0.0,0.0,0.0,0.0,0.0,0.0,0.0,0.0,0.0,0.0,0.0,0.0,0.0,-2.4896,0.0,0.0,0.0,0.0,0.0,0.0,0.0,0.0,0.0,0.0,0.0,0.0,0.0,0.0,0.0,0.0,0.0,0.0,0.0,0.0,0.0,0.0,0.0,0.0,0.0,0.0,0.0,0.0,0.0,0.0,0.0,0.0,0.0,0.0,0.0,0.0,0.0,0.0,0.0,0.0,0.0,0.0,0.0,0.0,0.0,0.0,0.0,0.0,0.0,0.0,0.0,0.0,0.0,0.0,0.0,0.0,0.0,0.0,0.0,0.0,0.0,0.0,0.0,0.0,0.0,0.0,0.0,0.0,0.0,0.0,0.0,0.0,0.0,0.0,0.0,0.0,0.0,0.0,0.0,0.0,0.0,0.0,0.0,0.0,0.0,0.0,0.0,0.0,0.0,0.0,0.0,0.0,0.0,0.0,0.0,0.0,0.0,0.0,0.0,0.0,0.0,0.0,0.0,0.0,0.0,0.0,0.0,0.0,0.0,0.0,-2.7299,-2.7178,-2.6614,-2.594,-2.506,0.0,0.0,0.0,0.0,0.0,0.0,0.0,0.0,0.0,0.0,0.0,0.0,0.0,0.0,0.0,0.0,0.0,0.0,0.0,0.0,0.0,0.0,0.0,0.0,0.0,0.0,0.0,0.0,0.0,0.0,0.0,0.0,0.0,0.0,0.0,0.0,0.0,0.0,0.0,0.0,0.0,0.0,0.0,0.0,0.0,0.0,0.0,0.0,0.0,0.0,0.0,0.0,0.0,0.0,0.0,0.0,0.0,0.0,0.0,0.0,0.0,0.0,0.0,0.0,0.0,0.0,0.0,0.0,0.0,0.0,0.0,0.0,0.0,0.0,0.0,0.0,0.0,0.0,0.0,0.0,0.0,0.0,0.0,0.0,0.0,0.0,0.0,0.0,0.0,0.0,0.0,0.0,0.0,0.0,0.0,0.0,0.0,0.0,0.0,0.0,0.0,0.0,0.0,0.0,0.0,0.0,0.0,0.0,0.0,0.0,0.0,0.0,-2.7346,-2.6422,-2.4937,0.0,0.0,0.0,0.0,0.0,0.0,0.0,0.0,0.0,0.0,0.0,0.0,0.0,0.0,0.0,0.0,0.0,0.0,0.0,0.0,0.0,0.0,0.0,0.0,0.0,0.0,0.0,0.0,0.0,0.0,0.0,0.0,0.0,0.0,0.0,0.0,0.0,0.0,0.0,0.0,0.0,0.0,0.0,0.0,0.0,0.0,0.0,0.0,0.0,0.0,0.0,0.0,0.0,0.0,0.0,0.0,0.0,0.0,0.0,0.0,0.0,0.0,0.0,0.0,0.0,0.0,0.0,0.0,0.0,0.0,0.0,0.0,0.0,0.0,0.0,0.0,0.0,0.0,0.0,0.0,0.0,0.0,0.0,0.0,0.0,0.0,0.0,0.0,0.0,0.0,0.0,0.0,0.0,0.0,0.0,0.0,0.0,0.0,0.0,0.0,0.0,0.0,0.0,0.0,0.0,0.0,0.0,0.0,0.0,0.0,-2.7875,-2.8207,-2.7611,0.0,-2.4917,0.0,0.0,0.0,0.0,0.0,0.0,0.0,0.0,0.0,0.0,0.0,0.0,0.0,0.0,0.0,0.0,0.0,0.0,0.0,0.0,0.0,0.0,0.0,0.0,0.0,0.0,0.0,0.0,0.0,0.0,0.0,0.0,0.0,0.0,0.0,0.0,0.0,0.0,0.0,0.0,0.0,0.0,0.0,0.0,0.0,0.0,0.0,0.0,0.0,0.0,0.0,0.0,0.0,0.0,0.0,0.0,0.0,0.0,0.0,0.0,0.0,0.0,0.0,0.0,0.0,0.0,0.0,0.0,0.0,0.0,0.0,0.0,0.0,0.0,0.0,0.0,0.0,0.0,0.0,0.0,0.0,0.0,0.0,0.0,0.0,0.0,0.0,0.0,0.0,0.0,0.0,0.0,0.0,0.0,0.0,0.0,0.0,0.0,0.0,0.0,0.0,0.0,0.0,0.0,0.0,0.0,0.0,0.0,0.0,0.0,-2.8903,-2.8969,-2.7668,-2.6487,0.0,0.0,0.0,0.0,0.0,0.0,0.0,0.0,0.0,0.0,0.0,0.0,0.0,0.0,0.0,0.0,0.0,0.0,0.0,0.0,0.0,0.0,0.0,0.0,0.0,0.0,0.0,0.0,0.0,0.0,0.0,0.0,0.0,0.0,0.0,0.0,0.0,0.0,0.0,0.0,0.0,0.0,0.0,0.0,0.0,0.0,0.0,0.0,0.0,0.0,0.0,0.0,0.0,0.0,0.0,0.0,0.0,0.0,0.0,0.0,0.0,0.0,0.0,0.0,0.0,0.0,0.0,0.0,0.0,0.0,0.0,0.0,0.0,0.0,0.0,0.0,0.0,0.0,0.0,0.0,0.0,0.0,0.0,0.0,0.0,0.0,0.0,0.0,0.0,0.0,0.0,0.0,0.0,0.0,0.0,0.0,0.0,0.0,0.0,0.0,0.0,0.0,0.0,0.0,0.0,0.0,0.0,0.0,0.0,0.0,-2.9365,-2.9536,-2.927,-2.7833,-2.6682,-2.5989,0.0,0.0,0.0,0.0,0.0,0.0,0.0,0.0,0.0,0.0,0.0,0.0,0.0,0.0,0.0,0.0,0.0,0.0,0.0,0.0,0.0,0.0,0.0,0.0,0.0,0.0,0.0,0.0,0.0,0.0,0.0,0.0,0.0,0.0,0.0,0.0,0.0,0.0,0.0,0.0,0.0,0.0,0.0,0.0,0.0,0.0,0.0,0.0,0.0,0.0,0.0,0.0,0.0,0.0,0.0,0.0,0.0,0.0,0.0,0.0,0.0,0.0,0.0,0.0,0.0,0.0,0.0,0.0,0.0,0.0,0.0,0.0,0.0,0.0,0.0,0.0,0.0,0.0,0.0,0.0,0.0,0.0,0.0,0.0,0.0,0.0,0.0,0.0,0.0,0.0,0.0,0.0,0.0,0.0,0.0,0.0,0.0,0.0,0.0,0.0,0.0,0.0,0.0,0.0,0.0,0.0,0.0,0.0,-2.8811,-2.9337,-2.945,-2.9149,-2.8168,-2.7332,0.0,0.0,0.0,0.0,0.0,0.0,0.0,0.0,0.0,0.0,0.0,0.0,0.0,0.0,0.0,0.0,0.0,0.0,0.0,0.0,0.0,0.0,0.0,0.0,0.0,0.0,0.0,0.0,0.0,0.0,0.0,0.0,0.0,0.0,0.0,0.0,0.0,0.0,0.0,0.0,0.0,0.0,0.0,0.0,0.0,0.0,0.0,0.0,0.0,0.0,0.0,0.0,0.0,0.0,0.0,0.0,0.0,0.0,0.0,0.0,0.0,0.0,0.0,0.0,0.0,0.0,0.0,0.0,0.0,0.0,0.0,0.0,0.0,0.0,0.0,0.0,0.0,0.0,0.0,0.0,0.0,0.0,0.0,0.0,0.0,0.0,0.0,0.0,0.0,0.0,0.0,0.0,0.0,0.0,0.0,0.0,0.0,0.0,0.0,0.0,0.0,0.0,0.0,0.0,0.0,0.0,0.0,0.0,0.0,-2.937,-2.9764,-2.9683,-2.9016,-2.8176,-2.7397,0.0,0.0,0.0,0.0,0.0,0.0,0.0,0.0,0.0,0.0,0.0,0.0,0.0,0.0,0.0,0.0,0.0,0.0,0.0,0.0,0.0,0.0,0.0,0.0,0.0,0.0,0.0,0.0,0.0,0.0,0.0,0.0,0.0,0.0,0.0,0.0,0.0,0.0,0.0,0.0,0.0,0.0,0.0,0.0,0.0,0.0,0.0,0.0,0.0,0.0,0.0,0.0,0.0,0.0,0.0,0.0,0.0,0.0,0.0,0.0,0.0,0.0,0.0,0.0,0.0,0.0,0.0,0.0,0.0,0.0,0.0,0.0,0.0,0.0,0.0,0.0,0.0,0.0,0.0,0.0,0.0,0.0,0.0,0.0,0.0,0.0,0.0,0.0,0.0,0.0,0.0,0.0,0.0,0.0,0.0,0.0,0.0,0.0,0.0,0.0,0.0,0.0,0.0,0.0,0.0,0.0,0.0,0.0,0.0,-2.9909,0.0,-2.9917,0.0,-2.8433,-2.7639,0.0,0.0,0.0,0.0,0.0,0.0,0.0,0.0,0.0,0.0,0.0,0.0,0.0,0.0,0.0,0.0,0.0,0.0,0.0,0.0,0.0,0.0,0.0,0.0,0.0,0.0,0.0,0.0,0.0,0.0,0.0,0.0,0.0,0.0,0.0,0.0,0.0,0.0,0.0,0.0,0.0,0.0,0.0,0.0,0.0,0.0,0.0,0.0,0.0,0.0,0.0,0.0,0.0,0.0,0.0,0.0,0.0,0.0,0.0,0.0,0.0,0.0,0.0,0.0,0.0,0.0,0.0,0.0,0.0,0.0,0.0,0.0,0.0,0.0,0.0,0.0,0.0,0.0,0.0,0.0,0.0,0.0,0.0,0.0,0.0,0.0,0.0,0.0,0.0,0.0,0.0,0.0,0.0,0.0,0.0,0.0,0.0,0.0,0.0,0.0,0.0,0.0,0.0,0.0,0.0,0.0,0.0,0.0,-3.0055,-3.0368,-3.0258,-3.0027,-2.9777,-2.8984,-2.8222,0.0,0.0,0.0,0.0,0.0,0.0,0.0,0.0,0.0,0.0,0.0,0.0,0.0,0.0,0.0,0.0,0.0,0.0,0.0,0.0,0.0,0.0,0.0,0.0,0.0,0.0,0.0,0.0,0.0,0.0,0.0,0.0,0.0,0.0,0.0,0.0,0.0,0.0,0.0,0.0,0.0,0.0,0.0,0.0,0.0,0.0,0.0,0.0,0.0,0.0,0.0,0.0,0.0,0.0,0.0,0.0,0.0,0.0,0.0,0.0,0.0,0.0,0.0,0.0,0.0,0.0,0.0,0.0,0.0,0.0,0.0,0.0,0.0,0.0,0.0,0.0,0.0,0.0,0.0,0.0,0.0,0.0,0.0,0.0,0.0,0.0,0.0,0.0,0.0,0.0,0.0,0.0,0.0,0.0,0.0,0.0,0.0,0.0,0.0,0.0,0.0,0.0,0.0,0.0,0.0,0.0,0.0,0.0,0.0,-3.0417,-3.0087,-2.987,-2.9694,-2.893,-2.818,0.0,0.0,0.0,0.0,0.0,0.0,0.0,0.0,0.0,0.0,0.0,0.0,0.0,0.0,0.0,0.0,0.0,0.0,0.0,0.0,0.0,0.0,0.0,0.0,0.0,0.0,0.0,0.0,0.0,0.0,0.0,0.0,0.0,0.0,0.0,0.0,0.0,0.0,0.0,0.0,0.0,0.0,0.0,0.0,0.0,0.0,0.0,0.0,0.0,0.0,0.0,0.0,0.0,0.0,0.0,0.0,0.0,0.0,0.0,0.0,0.0,0.0,0.0,0.0,0.0,0.0,0.0,0.0,0.0,0.0,0.0,0.0,0.0,0.0,0.0,0.0,0.0,0.0,0.0,0.0,0.0,0.0,0.0,0.0,0.0,0.0,0.0,0.0,0.0,0.0,0.0,0.0,0.0,0.0,0.0,0.0,0.0,0.0,0.0,0.0,0.0,0.0,0.0,0.0,0.0,0.0,0.0,0.0,0.0,-3.0658,-3.0363,-3.0012,-2.9653,-2.9054,-2.8435,-2.7833,0.0,0.0,0.0,0.0,0.0,0.0,0.0,0.0,0.0,0.0,0.0,0.0,0.0,0.0,0.0,0.0,0.0,0.0,0.0,0.0,0.0,0.0,0.0,0.0,0.0,0.0,0.0,0.0,0.0,0.0,0.0,0.0,0.0,0.0,0.0,0.0,0.0,0.0,0.0,0.0,0.0,0.0,0.0,0.0,0.0,0.0,0.0,0.0,0.0,0.0,0.0,0.0,0.0,0.0,0.0,0.0,0.0,0.0,0.0,0.0,0.0,0.0,0.0,0.0,0.0,0.0,0.0,0.0,0.0,0.0,0.0,0.0,0.0,0.0,0.0,0.0,0.0,0.0,0.0,0.0,0.0,0.0,0.0,0.0,0.0,0.0,0.0,0.0,0.0,0.0,0.0,0.0,0.0,0.0,0.0,0.0,0.0,0.0,0.0,0.0,0.0,0.0,0.0,0.0,0.0,0.0,0.0,0.0,-3.1173,-3.107,-3.0564,-2.9614,-2.943,-2.9048,0.0,0.0,0.0,0.0,0.0,0.0,0.0,0.0,0.0,0.0,0.0,0.0,0.0,0.0,0.0,0.0,0.0,0.0,0.0,0.0,0.0,0.0,0.0,0.0,0.0,0.0,0.0,0.0,0.0,0.0,0.0,0.0,0.0,0.0,0.0,0.0,0.0,0.0,0.0,0.0,0.0,0.0,0.0,0.0,0.0,0.0,0.0,0.0,0.0,0.0,0.0,0.0,0.0,0.0,0.0,0.0,0.0,0.0,0.0,0.0,0.0,0.0,0.0,0.0,0.0,0.0,0.0,0.0,0.0,0.0,0.0,0.0,0.0,0.0,0.0,0.0,0.0,0.0,0.0,0.0,0.0,0.0,0.0,0.0,0.0,0.0,0.0,0.0,0.0,0.0,0.0,0.0,0.0,0.0,0.0,0.0,0.0,0.0,0.0,0.0,0.0,0.0,0.0,0.0,0.0,0.0,0.0,0.0,0.0,-3.1938,-3.2127,-3.163,-3.0366,-3.01,-2.9419,0.0,0.0,0.0,0.0,0.0,0.0,0.0,0.0,0.0,0.0,0.0,0.0,0.0,0.0,0.0,0.0,0.0,0.0,0.0,0.0,0.0,0.0,0.0,0.0,0.0,0.0,0.0,0.0,0.0,0.0,0.0,0.0,0.0,0.0,0.0,0.0,0.0,0.0,0.0,0.0,0.0,0.0,0.0,0.0,0.0,0.0,0.0,0.0,0.0,0.0,0.0,0.0,0.0,0.0,0.0,0.0,0.0,0.0,0.0,0.0,0.0,0.0,0.0,0.0,0.0,0.0,0.0,0.0,0.0,0.0,0.0,0.0,0.0,0.0,0.0,0.0,0.0,0.0,0.0,0.0,0.0,0.0,0.0,0.0,0.0,0.0,0.0,0.0,0.0,0.0,0.0,0.0,0.0,0.0,0.0,0.0,0.0,0.0,0.0,0.0,0.0,0.0,0.0,0.0,0.0,0.0,0.0,0.0,-3.2236,-3.248,-3.2883,-3.2574,-3.1438,-3.064,-2.9848,0.0,0.0,0.0,0.0,0.0,0.0,0.0,0.0,0.0,0.0,0.0,0.0,0.0,0.0,0.0,0.0,0.0,0.0,0.0,0.0,0.0,0.0,0.0,0.0,0.0,0.0,0.0,0.0,0.0,0.0,0.0,0.0,0.0,0.0,0.0,0.0,0.0,0.0,0.0,0.0,0.0,0.0,0.0,0.0,0.0,0.0,0.0,0.0,0.0,0.0,0.0,0.0,0.0,0.0,0.0,0.0,0.0,0.0,0.0,0.0,0.0,0.0,0.0,0.0,0.0,0.0,0.0,0.0,0.0,0.0,0.0,0.0,0.0,0.0,0.0,0.0,0.0,0.0,0.0,0.0,0.0,0.0,0.0,0.0,0.0,0.0,0.0,0.0,0.0,0.0,0.0,0.0,0.0,0.0,0.0,0.0,0.0,0.0,0.0,0.0,0.0,0.0,0.0,0.0,0.0,0.0,0.0,0.0,-3.224,-3.2867,-3.3425,-3.3355,-3.2615,-3.1179,-3.037,0.0,0.0,0.0,0.0,0.0,0.0,0.0,0.0,0.0,0.0,0.0,0.0,0.0,0.0,0.0,0.0,0.0,0.0,0.0,0.0,0.0,0.0,0.0,0.0,0.0,0.0,0.0,0.0,0.0,0.0,0.0,0.0,0.0,0.0,0.0,0.0,0.0,0.0,0.0,0.0,0.0,0.0,0.0,0.0,0.0,0.0,0.0,0.0,0.0,0.0,0.0,0.0,0.0,0.0,0.0,0.0,0.0,0.0,0.0,0.0,0.0,0.0,0.0,0.0,0.0,0.0,0.0,0.0,0.0,0.0,0.0,0.0,0.0,0.0,0.0,0.0,0.0,0.0,0.0,0.0,0.0,0.0,0.0,0.0,0.0,0.0,0.0,0.0,0.0,0.0,0.0,0.0,0.0,0.0,0.0,0.0,0.0,0.0,0.0,0.0,0.0,0.0,0.0,0.0,0.0,0.0,0.0,0.0,-3.2273,-3.3489,-3.3563,-3.3459,-3.328,-3.2234,-3.1187,0.0,0.0,0.0,0.0,0.0,0.0,0.0,0.0,0.0,0.0,0.0,0.0,0.0,0.0,0.0,0.0,0.0,0.0,0.0,0.0,0.0,0.0,0.0,0.0,0.0,0.0,0.0,0.0,0.0,0.0,0.0,0.0,0.0,0.0,0.0,0.0,0.0,0.0,0.0,0.0,0.0,0.0,0.0,0.0,0.0,0.0,0.0,0.0,-3.6837,0.0,0.0,0.0,0.0,0.0,0.0,0.0,0.0,0.0,0.0,0.0,0.0,0.0,0.0,0.0,0.0,0.0,0.0,0.0,0.0,0.0,0.0,0.0,0.0,0.0,0.0,0.0,0.0,0.0,0.0,0.0,0.0,0.0,0.0,0.0,0.0,0.0,0.0,0.0,0.0,0.0,0.0,0.0,0.0,0.0,0.0,0.0,0.0,0.0,0.0,0.0,0.0,0.0,0.0,0.0,0.0,0.0,0.0,0.0,-3.2544,-3.3559,-3.3539,-3.3487,-3.3382,-3.2494,-3.1577,0.0,0.0,0.0,0.0,0.0,0.0,0.0,0.0,0.0,0.0,0.0,0.0,0.0,0.0,0.0,0.0,0.0,0.0,0.0,0.0,0.0,0.0,0.0,0.0,0.0,0.0,0.0,0.0,0.0,0.0,0.0,0.0,0.0,0.0,0.0,0.0,0.0,0.0,0.0,0.0,0.0,0.0,0.0,0.0,0.0,0.0,0.0,0.0,0.0,0.0,0.0,0.0,0.0,0.0,0.0,0.0,0.0,0.0,0.0,0.0,0.0,0.0,0.0,0.0,0.0,0.0,0.0,0.0,0.0,0.0,0.0,0.0,0.0,0.0,0.0,0.0,0.0,0.0,0.0,0.0,0.0,0.0,0.0,0.0,0.0,0.0,0.0,0.0,0.0,0.0,0.0,0.0,0.0,0.0,0.0,0.0,0.0,0.0,0.0,0.0,0.0,0.0,0.0,0.0,0.0,0.0,0.0,-3.2253,-3.2787,-3.3419,-3.345,-3.3398,-3.3293,-3.251,-3.175,-3.1223,0.0,0.0,0.0,0.0,0.0,0.0,0.0,0.0,0.0,0.0,0.0,0.0,0.0,0.0,0.0,0.0,0.0,0.0,0.0,0.0,0.0,0.0,0.0,0.0,0.0,0.0,0.0,0.0,0.0,0.0,0.0,0.0,0.0,0.0,0.0,0.0,0.0,0.0,-3.7221,-3.7763,0.0,0.0,0.0,0.0,0.0,0.0,0.0,0.0,-3.6626,0.0,0.0,0.0,0.0,0.0,0.0,0.0,0.0,0.0,0.0,0.0,0.0,0.0,0.0,0.0,0.0,0.0,0.0,0.0,0.0,0.0,0.0,0.0,0.0,0.0,0.0,0.0,0.0,0.0,0.0,0.0,0.0,0.0,0.0,0.0,0.0,0.0,0.0,0.0,0.0,0.0,0.0,0.0,0.0,0.0,0.0,0.0,0.0,0.0,0.0,0.0,0.0,0.0,0.0,0.0,0.0,-3.163,-3.2121,-3.2653,-3.333,-3.3361,-3.3309,-3.3277,-3.2629,-3.1934,-3.1239,0.0,0.0,0.0,0.0,0.0,0.0,0.0,0.0,0.0,0.0,0.0,0.0,0.0,0.0,0.0,0.0,0.0,0.0,0.0,0.0,0.0,0.0,0.0,0.0,0.0,0.0,0.0,0.0,0.0,0.0,0.0,0.0,0.0,0.0,0.0,0.0,0.0,0.0,0.0,-3.8366,-3.8706,0.0,0.0,0.0,0.0,0.0,0.0,0.0,0.0,-3.6444,0.0,0.0,0.0,0.0,0.0,0.0,0.0,0.0,0.0,0.0,0.0,0.0,0.0,0.0,0.0,0.0,0.0,0.0,0.0,0.0,0.0,0.0,0.0,0.0,0.0,0.0,0.0,0.0,0.0,0.0,0.0,0.0,0.0,0.0,0.0,0.0,0.0,0.0,0.0,0.0,0.0,0.0,0.0,0.0,0.0,0.0,0.0,0.0,0.0,0.0,0.0,0.0,0.0,0.0,0.0,-3.1582,-3.2053,-3.2633,-3.3261,-3.3293,-3.3293,-3.3277,-3.2629,-3.1985,0.0,0.0,0.0,0.0,0.0,0.0,0.0,0.0,0.0,0.0,0.0,0.0,0.0,0.0,0.0,0.0,0.0,0.0,0.0,0.0,0.0,0.0,0.0,0.0,0.0,0.0,0.0,0.0,0.0,0.0,0.0,0.0,0.0,0.0,0.0,0.0,0.0,0.0,0.0,0.0,-3.8634,-3.8859,-3.9174,0.0,0.0,0.0,0.0,0.0,0.0,-3.8468,-3.8148,0.0,0.0,0.0,0.0,0.0,0.0,0.0,0.0,0.0,0.0,0.0,0.0,0.0,0.0,0.0,0.0,0.0,0.0,0.0,0.0,0.0,0.0,0.0,0.0,0.0,0.0,0.0,0.0,0.0,0.0,0.0,0.0,0.0,0.0,0.0,0.0,0.0,0.0,0.0,0.0,0.0,0.0,0.0,0.0,0.0,0.0,0.0,0.0,0.0,0.0,0.0,0.0,0.0,0.0,0.0,-3.139,-3.199,-3.2534,-3.3072,-3.323,-3.3361,-3.3346,-3.2697,-3.2085,0.0,0.0,0.0,0.0,0.0,0.0,0.0,0.0,0.0,0.0,0.0,0.0,0.0,0.0,0.0,0.0,0.0,0.0,0.0,0.0,0.0,0.0,0.0,0.0,0.0,0.0,0.0,0.0,0.0,0.0,0.0,0.0,0.0,0.0,0.0,0.0,0.0,0.0,0.0,0.0,0.0,-3.9465,-4.001,-4.001,0.0,0.0,0.0,0.0,-4.0649,-4.0141,0.0,0.0,0.0,0.0,0.0,0.0,0.0,0.0,0.0,0.0,0.0,0.0,0.0,0.0,0.0,0.0,0.0,0.0,0.0,0.0,0.0,0.0,0.0,0.0,0.0,0.0,0.0,0.0,0.0,0.0,0.0,0.0,0.0,0.0,0.0,0.0,0.0,0.0,0.0,0.0,0.0,0.0,0.0,0.0,0.0,0.0,0.0,0.0,0.0,0.0,0.0,0.0,0.0,0.0,0.0,0.0,-3.0609,-3.1702,-3.2364,-3.2459,-3.3097,-3.345,-3.3435,-3.2835,-3.2235,0.0,0.0,0.0,0.0,0.0,0.0,0.0,0.0,0.0,0.0,0.0,0.0,0.0,0.0,0.0,0.0,0.0,0.0,0.0,0.0,0.0,0.0,0.0,0.0,0.0,0.0,0.0,0.0,0.0,0.0,0.0,0.0,0.0,0.0,0.0,0.0,0.0,0.0,0.0,0.0,0.0,-4.1427,-4.1411,-4.1831,-4.1695,0.0,0.0,-3.9887,-3.9865,-3.975,0.0,0.0,0.0,0.0,0.0,0.0,0.0,0.0,0.0,0.0,0.0,0.0,0.0,0.0,0.0,0.0,0.0,0.0,0.0,0.0,0.0,0.0,0.0,0.0,0.0,0.0,0.0,0.0,0.0,0.0,0.0,0.0,0.0,0.0,0.0,0.0,0.0,0.0,0.0,0.0,0.0,0.0,0.0,0.0,0.0,0.0,0.0,0.0,0.0,0.0,0.0,0.0,0.0,0.0,0.0,-3.0432,-3.059,-3.1469,-3.209,-3.2453,-3.324,-3.3399,-3.3016,-3.2798,-3.2224,0.0,0.0,0.0,0.0,0.0,0.0,0.0,0.0,0.0,0.0,0.0,0.0,0.0,0.0,0.0,0.0,0.0,0.0,0.0,0.0,0.0,0.0,0.0,0.0,0.0,0.0,0.0,0.0,0.0,0.0,0.0,0.0,0.0,0.0,0.0,0.0,0.0,0.0,0.0,0.0,0.0,0.0,-4.1321,-4.1586,0.0,0.0,0.0,-4.1367,-4.2164,0.0,0.0,0.0,0.0,0.0,0.0,0.0,0.0,0.0,0.0,0.0,0.0,0.0,0.0,0.0,0.0,0.0,0.0,0.0,0.0,0.0,0.0,0.0,0.0,0.0,0.0,0.0,0.0,0.0,0.0,0.0,0.0,0.0,0.0,0.0,0.0,0.0,0.0,0.0,0.0,0.0,0.0,0.0,0.0,0.0,0.0,0.0,0.0,0.0,0.0,0.0,0.0,0.0,0.0,0.0,0.0,0.0,-3.047,-3.1115,-3.1775,-3.2465,-3.3171,-3.3333,-3.2753,-3.2659,0.0,0.0,0.0,0.0,0.0,0.0,0.0,0.0,0.0,0.0,0.0,0.0,0.0,0.0,0.0,0.0,0.0,0.0,0.0,0.0,0.0,0.0,0.0,0.0,0.0,0.0,0.0,-3.2176,0.0,0.0,0.0,0.0,0.0,0.0,0.0,0.0,0.0,0.0,0.0,0.0,0.0,0.0,-4.1241,-4.1406,-4.1556,-4.1994,0.0,0.0,-4.2681,-4.387,-4.3044,-4.2423,0.0,0.0,0.0,0.0,0.0,0.0,0.0,0.0,0.0,0.0,0.0,0.0,0.0,0.0,0.0,0.0,0.0,0.0,0.0,0.0,0.0,0.0,0.0,0.0,0.0,0.0,0.0,0.0,0.0,0.0,0.0,0.0,0.0,0.0,0.0,0.0,0.0,0.0,0.0,0.0,0.0,0.0,0.0,0.0,0.0,0.0,0.0,0.0,0.0,0.0,0.0,0.0,0.0,0.0,-3.0092,-2.9907,-3.0574,-3.1302,-3.2029,-3.2836,-3.321,-3.3161,-3.2543,-3.1998,0.0,0.0,0.0,0.0,0.0,0.0,0.0,0.0,0.0,0.0,0.0,0.0,0.0,0.0,0.0,0.0,0.0,0.0,0.0,0.0,0.0,0.0,0.0,0.0,0.0,0.0,0.0,0.0,0.0,0.0,0.0,0.0,0.0,0.0,0.0,0.0,0.0,0.0,0.0,0.0,0.0,-4.3114,-4.228,-4.2788,-4.2982,0.0,0.0,-4.318,-4.3283,-4.3214,-4.2888,-4.2201,0.0,0.0,0.0,0.0,0.0,0.0,0.0,0.0,0.0,0.0,0.0,0.0,0.0,0.0,0.0,0.0,0.0,0.0,0.0,0.0,0.0,0.0,0.0,0.0,0.0,0.0,0.0,0.0,0.0,0.0,0.0,0.0,0.0,0.0,0.0,0.0,0.0,0.0,0.0,0.0,0.0,0.0,0.0,0.0,0.0,0.0,0.0,0.0,0.0,0.0,0.0,0.0,0.0,-3.0231,-3.006,-3.0777,-3.1495,-3.2229,-3.2961,-3.3108,-3.273,-3.2498,-3.1867,0.0,0.0,0.0,0.0,0.0,0.0,0.0,0.0,0.0,0.0,0.0,0.0,0.0,0.0,0.0,0.0,0.0,0.0,0.0,0.0,0.0,0.0,0.0,0.0,0.0,0.0,0.0,0.0,-3.3256,-3.361,-3.4099,0.0,0.0,0.0,0.0,0.0,0.0,0.0,0.0,0.0,0.0,-4.2723,-4.2237,-4.2829,0.0,0.0,-4.3268,-4.3387,-4.3785,-4.3061,-4.2543,-4.2702,-4.204,0.0,0.0,0.0,0.0,0.0,0.0,0.0,0.0,0.0,0.0,0.0,0.0,0.0,0.0,0.0,0.0,0.0,0.0,0.0,0.0,0.0,0.0,0.0,0.0,0.0,0.0,0.0,0.0,0.0,0.0,0.0,0.0,0.0,0.0,0.0,0.0,0.0,0.0,0.0,0.0,0.0,0.0,0.0,0.0,0.0,0.0,0.0,0.0,0.0,0.0,0.0,0.0,-3.0401,-3.0359,-3.104,-3.1764,-3.2488,-3.3132,-3.3165,-3.2537,-3.2517,-3.1957,0.0,0.0,0.0,0.0,0.0,0.0,0.0,0.0,0.0,0.0,0.0,0.0,0.0,0.0,0.0,0.0,0.0,0.0,0.0,0.0,0.0,0.0,0.0,0.0,0.0,0.0,0.0,0.0,-3.4008,-3.4443,-3.5222,0.0,0.0,0.0,0.0,0.0,0.0,0.0,0.0,0.0,0.0,-4.2723,-4.2566,-4.3158,-4.3732,-4.425,-4.4044,-4.394,-4.4336,-4.3421,-4.2852,-4.3249,0.0,0.0,0.0,0.0,0.0,0.0,0.0,0.0,0.0,0.0,0.0,0.0,0.0,0.0,0.0,0.0,0.0,0.0,0.0,0.0,0.0,0.0,0.0,0.0,0.0,0.0,0.0,0.0,0.0,0.0,0.0,0.0,0.0,0.0,0.0,0.0,0.0,0.0,0.0,0.0,0.0,0.0,0.0,0.0,0.0,0.0,0.0,0.0,0.0,0.0,0.0,0.0,0.0,-3.0584,-3.0708,-3.1298,-3.1984,-3.2696,-3.3408,-3.3442,-3.2746,-3.2696,-3.2061,-3.0742,0.0,0.0,0.0,0.0,0.0,0.0,0.0,0.0,0.0,0.0,0.0,0.0,0.0,0.0,0.0,0.0,0.0,0.0,0.0,0.0,0.0,0.0,0.0,0.0,0.0,0.0,-3.5525,-3.5716,-3.6037,0.0,0.0,0.0,0.0,0.0,0.0,0.0,0.0,0.0,0.0,-4.2719,-4.3602,-4.3444,-4.4036,-4.4489,-4.4354,-4.4906,-4.5148,-4.461,-4.4336,-4.4094,0.0,0.0,0.0,0.0,0.0,0.0,0.0,0.0,0.0,0.0,0.0,0.0,0.0,0.0,0.0,0.0,0.0,0.0,0.0,0.0,0.0,0.0,0.0,0.0,0.0,0.0,0.0,-2.6018,-2.6288,0.0,0.0,0.0,0.0,0.0,0.0,0.0,0.0,0.0,0.0,0.0,-3.0818,-3.0818,0.0,0.0,0.0,0.0,0.0,0.0,0.0,0.0,0.0,0.0,0.0,0.0,-3.0983,-3.1408,-3.1632,-3.2303,-3.3375,-3.3657,-3.3736,-3.3561,-3.3095,-3.2207,-3.0945,0.0,0.0,0.0,0.0,0.0,0.0,0.0,0.0,0.0,0.0,0.0,0.0,0.0,0.0,0.0,0.0,0.0,0.0,0.0,0.0,0.0,0.0,0.0,0.0,0.0,-3.4914,0.0,0.0,0.0,0.0,0.0,0.0,0.0,0.0,0.0,0.0,0.0,-4.1846,-4.2343,-4.36,-4.4471,-4.4422,-4.4968,-4.5336,0.0,0.0,0.0,0.0,0.0,0.0,0.0,0.0,0.0,0.0,0.0,0.0,0.0,0.0,-4.4335,-4.4331,-4.4371,-4.4375,-4.4375,0.0,0.0,0.0,0.0,0.0,0.0,0.0,0.0,0.0,0.0,0.0,0.0,0.0,0.0,0.0,0.0,-2.7179,0.0,0.0,0.0,0.0,0.0,0.0,0.0,0.0,-3.1749,-3.1968,-3.1968,-3.1968,-3.1968,0.0,-3.1968,-3.1968,0.0,0.0,0.0,0.0,0.0,0.0,0.0,0.0,-3.1491,-3.1918,-3.2393,-3.3067,-3.3894,-3.4176,-3.4239,-3.4063,-3.3128,-3.2227,-3.1419,-3.0791,-3.0497,0.0,0.0,0.0,0.0,0.0,0.0,0.0,0.0,0.0,0.0,0.0,0.0,0.0,0.0,0.0,0.0,0.0,0.0,0.0,0.0,0.0,0.0,0.0,-3.6113,0.0,0.0,0.0,0.0,0.0,0.0,0.0,0.0,0.0,-4.0909,-4.1627,-4.2643,-4.3678,-4.46,-4.5168,-4.5352,0.0,0.0,0.0,0.0,0.0,0.0,0.0,-4.5306,-4.5414,-4.515,-4.5004,-4.5356,-4.5755,-4.6055,-4.6037,0.0,0.0,-4.5355,-4.5269,-4.5309,-4.5349,-4.5349,-4.5406,-4.5428,-4.5409,-4.5409,0.0,0.0,0.0,0.0,0.0,0.0,0.0,0.0,-2.6563,-2.6834,0.0,-2.7359,0.0,0.0,0.0,0.0,0.0,0.0,0.0,0.0,-3.3339,-3.3389,-3.3372,-3.3355,-3.3389,-3.3389,-3.3355,-3.3355,-3.3305,-3.1952,0.0,0.0,0.0,0.0,0.0,0.0,-3.2093,-3.2227,-3.352,-3.4186,-3.4253,-3.4923,-3.4923,-3.4214,-3.2925,-3.2176,-3.2075,-3.154,-3.1207,-3.1173,-3.0514,0.0,0.0,0.0,0.0,0.0,0.0,0.0,0.0,0.0,0.0,0.0,0.0,0.0,0.0,0.0,0.0,0.0,0.0,0.0,0.0,-3.7265,0.0,0.0,0.0,0.0,0.0,0.0,0.0,0.0,0.0,0.0,-4.2775,-4.2691,-4.3376,-4.533,0.0,0.0,0.0,0.0,-4.6186,-4.6087,-4.6137,-4.6332,-4.6643,-4.653,-4.6548,-4.6837,0.0,0.0,-4.7497,-4.7687,-4.779,-4.7772,-4.7892,-4.7443,-4.5874,-4.5584,-4.5494,-4.563,-4.5703,-4.5669,-4.5729,-4.6041,-4.5986,-2.8323,0.0,0.0,0.0,0.0,-2.8546,-2.8686,-2.889,-2.9092,-2.9342,-2.967,-2.9974,0.0,0.0,0.0,0.0,0.0,0.0,-3.29,-3.3389,-3.3389,-3.3389,-3.3389,-3.3389,-3.3389,-3.3389,-3.3389,-3.3389,-3.3372,-3.2966,-3.2763,-3.2763,0.0,0.0,0.0,0.0,-3.3212,-3.3657,-3.4051,-3.451,-3.4973,-3.5191,-3.4985,-3.4286,-3.3997,-3.3313,-3.2283,-3.207,-3.1715,-3.1224,-3.1004,0.0,0.0,0.0,0.0,0.0,0.0,0.0,0.0,0.0,0.0,0.0,0.0,0.0,0.0,0.0,0.0,0.0,0.0,0.0,-3.6833,-3.7831,-3.8702,0.0,0.0,0.0,0.0,0.0,0.0,0.0,0.0,0.0,-4.5247,-4.5209,-4.5275,0.0,0.0,-4.6639,-4.676,-4.6795,-4.6731,-4.6731,0.0,0.0,0.0,-4.7743,-4.7921,-4.852,-4.8751,-4.8936,-4.9189,-4.9401,-4.9567,-4.9549,-4.9598,-4.9518,-4.9003,-4.7966,-4.7292,-4.7314,-4.7733,-4.8115,-4.8192,-4.8612,-4.8976,-3.0119,-3.0242,-2.9789,-2.9594,-2.9579,-2.9648,-2.9795,-3.0008,-3.0151,-3.0449,-3.0791,-3.1008,-3.1306,-3.171,-3.2443,0.0,0.0,0.0,-3.4701,-3.5093,-3.5155,-3.5182,-3.5182,-3.5199,-3.5199,-3.5199,-3.5199,-3.5199,-3.5182,-3.5199,-3.5199,-3.5131,0.0,0.0,-3.3423,-3.3694,-3.4006,-3.4385,-3.4688,-3.5032,-3.5396,-3.5429,-3.5239,-3.4813,-3.4597,-3.4066,-3.3186,-3.2882,-3.2527,-3.2087,-3.1782,-3.1613,0.0,0.0,0.0,0.0,0.0,0.0,0.0,0.0,0.0,0.0,0.0,-3.3932,-3.4472,0.0,0.0,0.0,-3.6087,-3.6898,-3.8217,-3.8747,0.0,0.0,0.0,0.0,0.0,0.0,0.0,-4.4015,-4.4722,-4.5537,-4.6477,-4.6734,-4.6747,-4.6636,-4.6944,-4.716,-4.7088,0.0,-4.7553,-4.7553,-4.7867,-4.8253,-4.8783,-4.8854,-4.9034,-4.9482,-4.9711,-4.9848,-5.0027,-5.0196,-5.0282,-5.035,-5.0417,-5.0483,-5.0464,-4.972,-4.9098,-4.9058,-4.9423,-4.9752,-4.983,-5.0213,-5.0542,-3.1338,-3.1337,-3.0347,-2.9849,-2.9744,-2.9868,-3.003,-3.016,-3.0319,-3.0582,-3.1041,-3.1158,-3.1557,-3.2192,-3.3447,0.0,0.0,-3.6192,-3.6942,-3.7679,-3.7858,-3.7922,-3.7922,-3.7889,-3.7922,-3.7905,-3.7922,-3.7922,-3.7872,-3.7889,-3.7905,-3.7838,-3.5148,-3.3778,-3.3795,-3.4438,-3.4759,-3.4776,-3.5453,-3.5774,-3.5723,-3.5639,-3.5639,-3.5622,-3.4945,-3.4556,-3.4472,-3.3846,-3.3474,-3.3389,-3.2747,-3.2398,-3.2381,0.0,0.0,0.0,0.0,0.0,0.0,0.0,0.0,0.0,0.0,0.0,0.0,0.0,0.0,0.0,-3.7062,0.0,-3.9772,-3.99,0.0,0.0,0.0,-4.2644,-4.3486,-4.4127,-4.4838,-4.5603,0.0,0.0,-4.6833,0.0,-4.7892,-4.7644,-4.7601,-4.7515,-4.7375,-4.8057,-4.8514,-4.8559,-4.918,-4.9784,-4.9947,-5.0055,-5.0164,-5.0245,-5.0119,-5.028,-5.0511,-5.0617,-5.0587,-5.069,-5.0744,-5.084,-5.0803,-5.0941,-5.0945,-5.0826,-5.0771,-5.0735,-5.0872,-5.0982,-5.1092,-3.2594,-3.2733,-3.2632,-3.1988,-3.1061,-3.1061,-3.1204,-3.1373,-3.1526,-3.2007,-3.2801,-3.3092,-3.3878,-3.5041,-3.5738,-3.6206,-3.6605,-3.7018,-3.7414,-3.7696,-3.7858,-3.7922,-3.7922,-3.7922,-3.7922,-3.7922,-3.7922,-3.7922,-3.7922,-3.7922,-3.7922,-3.7872,-3.7178,-3.684,-3.684,-3.7009,-3.7094,-3.7094,-3.7263,-3.7094,-3.6502,-3.5926,-3.5639,-3.556,-3.5453,-3.5081,-3.4523,-3.432,-3.3981,-3.344,-3.3237,-3.3177,-3.3277,-3.3148,0.0,0.0,0.0,0.0,0.0,0.0,0.0,0.0,0.0,-3.6175,-3.6573,0.0,-3.8234,0.0,-4.0474,-4.0976,-4.0789,-4.0804,0.0,0.0,-4.3094,-4.3738,-4.5132,-4.5407,-4.5772,-4.6594,-4.6754,-4.7044,-4.7605,-4.837,-4.8857,-4.8798,-4.8647,-4.8537,-4.8511,-4.9161,-4.9712,-4.973,-4.991,-5.0262,-5.0878,-5.1475,-5.1846,-5.1955,-5.1937,-5.2,-5.2152,-5.2302,-5.237,-5.237,-5.2474,-5.2577,-5.254,-5.2595,-5.2619,-5.254,-5.21,-5.166,-5.172,-5.2179,-5.2619,-3.3066,-3.3114,-3.3376,-3.3066,-3.2392,-3.2407,-3.2466,-3.2643,-3.2834,-3.3249,-3.3844,-3.4316,-3.5094,-3.6055,-3.6739,-3.7187,-3.748,-3.8153,-3.8506,-3.8622,-3.8771,-3.887,-3.8886,-3.887,-3.8886,-3.887,-3.8886,-3.887,-3.887,-3.887,-3.8886,-3.8886,-3.8886,-3.887,-3.8836,-3.8244,-3.7922,-3.7922,-3.7922,-3.7702,-3.728,-3.6535,-3.6129,-3.6129,-3.5791,-3.5419,-3.5013,-3.4979,-3.4793,-3.4404,-3.4083,-3.3939,-3.3982,-3.3802,-3.3778,0.0,0.0,0.0,0.0,0.0,0.0,0.0,0.0,0.0,0.0,0.0,-4.0422,-4.14,-4.1928,-4.2234,-4.2176,-4.2158,-4.2818,-4.4397,-4.4874,-4.5461,-4.6361,-4.6745,-4.7093,-4.7532,-4.7821,-4.8184,-4.8601,-4.935,-4.9784,-4.9742,-4.9944,-4.9992,-4.9737,-5.0264,-5.0773,-5.0791,-5.1064,-5.1445,-5.1936,-5.2354,-5.2645,-5.2672,-5.2717,-5.2743,-5.285,-5.2955,-5.2999,-5.3103,-5.3146,-5.3206,-5.3206,-5.3206,-5.3206,-5.3151,-5.2858,-5.2564,-5.2527,-5.2876,-5.3206,-3.324,-3.3254,-3.363,-3.3754,-3.3739,-3.3754,-3.3711,-3.3713,-3.3925,-3.4254,-3.467,-3.5269,-3.5784,-3.6275,-3.7199,-3.7817,-3.8167,-3.9168,-3.9677,-3.9729,-3.9986,-4.007,-4.0087,-4.0087,-4.0087,-4.0087,-4.0087,-4.0087,-4.0087,-4.0087,-4.0087,-4.0087,-4.0087,-4.0087,-4.002,-3.8819,-3.8176,-3.8176,-3.8091,-3.8058,-3.8041,-3.7297,-3.6924,-3.6907,-3.618,-3.5774,-3.5757,-3.5673,-3.5639,-3.5605,-3.4996,-3.4684,-3.4668,-3.4269,-3.4134,0.0,-3.4798,0.0,0.0,0.0,0.0,0.0,0.0,0.0,0.0,-4.1478,-4.2548,-4.2616,-4.2708,-4.3039,-4.3736,-4.3791,-4.4433,-4.603,-4.6746,-4.7223,-4.7553,-4.8122,-4.8508,-4.8618,-4.9279,-4.968,-4.9618,-5.0295,-5.073,-5.0702,-5.1304,-5.1499,-5.0988,-5.1329,-5.1748,-5.1748,-5.235,-5.2597,-5.2688,-5.2769,-5.2824,-5.2806,-5.2806,-5.2868,-5.298,-5.3042,-5.3042,-5.3146,-5.3206,-5.3206,-5.3206,-5.3206,-5.3206,-5.3206,-5.317,-5.3151,-5.3151,-5.317,-5.3206,-3.4551,-3.4566,-3.4986,-3.513,-3.513,-3.513,-3.4502,-3.3561,-3.3864,-3.4664,-3.5755,-3.6507,-3.7096,-3.7591,-3.8156,-3.8482,-3.8663,-3.9259,-3.959,-3.9677,-3.9849,-4.0003,-4.0087,-4.0087,-4.0087,-4.0087,-4.0087,-4.0087,-4.0087,-4.0087,-4.0087,-4.0087,-4.0087,-4.0087,-4.007,0.0,0.0,0.0,-3.9089,-3.8785,-3.8768,-3.8075,-3.7702,-3.7686,-3.6958,0.0,-3.6535,-3.596,-3.5639,-3.5622,-3.5487,0.0,0.0,0.0,0.0,0.0,0.0,0.0,0.0,0.0,0.0,0.0,-4.1467,-4.2084,-4.1628,-4.3175,-4.4215,-4.4268,-4.4837,-4.5278,-4.5424,-4.5443,-4.6085,-4.7627,-4.7443,-4.7902,-4.9774,-4.9664,-4.9591,-5.0251,-5.049,-5.0545,-5.0603,-5.1224,-5.1697,-5.1734,-5.2412,-5.2791,-5.2645,-5.2553,-5.2568,-5.2587,-5.2714,-5.2806,-5.2806,-5.2806,-5.2868,-5.2937,-5.2937,-5.2999,-5.3103,-5.3164,-5.3164,-5.3206,-5.3206,-5.3206,-5.3206,-5.3206,-5.3206,-5.3206,-5.3206,-5.3206,-5.3206,-5.3206,-5.3206,-3.4735,0.0,-3.5213,-3.5439,0.0,-3.5489,-3.5115,-3.4487,-3.4708,-3.5401,-3.6259,-3.6828,-3.7345,-3.7817,-3.8189,-3.8511,-3.8805,-3.9202,-3.9484,-3.9729,-3.9849,-4.0003,-4.0087,-4.0087,-4.0087,-4.0087,-4.0087,-4.0087,-4.0087,-4.0087,-4.0087,-4.0087,-4.0087,-4.0087,-4.0087,-4.0087,-4.0087,-4.0087,-3.9715,-3.9529,-3.9512,-3.8819,-3.8447,-3.843,0.0,0.0,0.0,0.0,0.0,0.0,0.0,0.0,0.0,0.0,0.0,-3.7906,-3.8174,-3.8688,-3.9478,-3.9661,-4.0366,-4.1796,-4.3889,-4.4912,-4.4547,-4.4985,-4.5461,-4.5865,-4.6287,-4.6654,-4.704,-4.7095,-4.7737,-4.9279,-4.9536,-4.9921,-5.0618,-5.0802,-5.0765,-5.082,-5.1169,-5.1371,-5.1393,-5.211,-5.2564,-5.2601,-5.2931,-5.3206,-5.3164,-5.3103,-5.3017,-5.3017,-5.3017,-5.3017,-5.3017,-5.2999,-5.2999,-5.3103,-5.3103,-5.3103,-5.3164,-5.3206,-5.3206,-5.3206,-5.3206,-5.3206,-5.3206,-5.3206,-5.3206,-5.3206,-5.3206,-5.3206,-5.3206,-5.3206,-5.3206,-3.4616,-3.4935,-3.5148,-3.5294,-3.5489,-3.5489,-3.5489,-3.5519,0.0,0.0,0.0,-3.6877,-3.7225,-3.7642,-3.7943,-3.8343,-3.8805,-3.9094,-3.9415,-3.9677,-3.9833,-3.9935,-4.0087,-4.0087,-4.0087,-4.0087,-4.0087,-4.0087,-4.0087,-4.0087,-4.0087,-4.0087,-4.0087,-4.0087,-4.0087,-4.0087,-4.0087,-4.0087,-4.0087,-4.0087,-4.007,-3.9495,-3.9174,-3.9191,-3.8481,-3.8108,-3.8091,-3.7973,-3.7905,-3.7953,-3.8014,-3.8125,-3.8218,-3.8459,-3.8816,-3.9143,-3.9435,-3.9868,-4.0378,-4.0689,-4.1668,-4.367,-4.5662,-4.6891,-4.7057,-4.6489,-4.6452,-4.7241,-4.7333,-4.7645,-4.8453,-4.8673,-4.9352,-5.0857,-5.1481,-5.1555,-5.1316,-5.1646,-5.1738,-5.1389,-5.1848,-5.2197,-5.2234,-5.2766,-5.3206,-5.3188,-5.3188,-5.3206,-5.3206,-5.3164,-5.3164,-5.3164,-5.3164,-5.3164,-5.3206,-5.3164,-5.3206,-5.3164,-5.3206,-5.3206,-5.3206,-5.3206,-5.3206,-5.3206,-5.3206,-5.3206,-5.3206,-5.3206,-5.3206,-5.3206,-5.3206,-5.3206,-5.3206,-5.3206,-5.3206,-3.4616,-3.4935,-3.5148,-3.5294,-3.5489,-3.5489,-3.5489,-3.5504,-3.5797,-3.6163,-3.6492,-3.6893,-3.7165,-3.7476,-3.7886,-3.8286,-3.8623,-3.8914,-3.9309,0.0,-3.9746,-3.9884,-4.007,-4.0087,-4.0087,-4.0087,-4.0087,-4.0087,-4.0087,-4.0087,-4.0087,-4.0087,-4.0087,-4.0087,-4.0087,-4.0087,-4.0087,-4.0087,-4.0087,-4.0087,-4.0087,-3.9969,-3.9918,-3.9884,-3.9208,-3.8853,-3.8836,-3.8244,-3.7953,-3.8078,-3.8078,-3.8247,-3.8504,-3.8735,-3.8964,-3.9388,-3.9673,-4.0178,-4.1169,-4.2063,-4.3666,-4.6119,-4.6213,-4.6361,-4.7002,-4.7021,-4.726,-4.8049,-4.8122,-4.8489,-4.9315,-5.0031,-5.0765,-5.1628,-5.1334,-5.1444,-5.2582,-5.2325,-5.2234,-5.2692,-5.2949,-5.3004,-5.2986,-5.3115,-5.3206,-5.3206,-5.3206,-5.3206,-5.3206,-5.3206,-5.3206,-5.3206,-5.3206,-5.3206,-5.3206,-5.3206,-5.3206,-5.3206,-5.3206,-5.3206,-5.3206,-5.3206,-5.3206,-5.3206,-5.3206,-5.3206,-5.3206,-5.3206,-5.3206,-5.3206,-5.3206,-5.3206,-5.3206,-5.3206,-5.3206,-3.4414,-3.4868,-3.5001,-3.5213,-3.5489,-3.5489,-3.5489,-3.5504,-3.5718,-3.5958,-3.6289,-3.6754,-3.7105,-3.7298,-3.777,-3.8205,-3.8488,-3.8766,-3.9077,-3.9468,-3.9625,-3.9798,-4.0003,-4.0087,-4.0087,-4.0087,-4.0087,-4.0087,-4.0087,-4.0087,-4.0087,-4.0087,-4.0087,-4.0087,-4.0087,-4.0087,-4.0087,-4.0087,-4.0087,-4.0087,-4.0087,-4.0087,-4.0087,-4.0087,-3.9749,-3.958,-3.958,-3.9308,-3.9236,-3.9285,-3.9525,-3.9714,-3.9836,-4.0155,-4.0464,-4.0722,-4.1014,-4.1399,-4.1995,-4.3498,-4.5109,-4.6834,-4.7149,-4.7352,-4.7737,-4.7332,-4.7443,-4.8233,-4.871,-4.9334,-5.0178,-5.0986,-5.1756,-5.2564,-5.2307,-5.2435,-5.3004,-5.2913,-5.2821,-5.3151,-5.3206,-5.3206,-5.3206,-5.3206,-5.3206,-5.3206,-5.3206,-5.3206,-5.3206,-5.3206,-5.3206,-5.3206,-5.3206,-5.3206,-5.3206,-5.3206,-5.3206,-5.3206,-5.3206,-5.3206,-5.3206,-5.3206,-5.3206,-5.3206,-5.3206,-5.3206,-5.3206,-5.3206,-5.3206,-5.3206,-5.3206,-5.3206,-5.3206,-5.3206,-5.3206,-3.4278,-3.4935,-3.4935,-3.5148,-3.5489,-3.5489,-3.5489,-3.5489,-3.5638,-3.5831,-3.6037,-3.6631,-3.6984,-3.7194,-3.7626,-3.8033,-3.8319,-3.8655,-3.8985,-3.9325,-3.959,-3.9798,-3.9901,-4.0037,-4.0087,-4.0087,-4.0087,-4.0087,-4.0087,-4.0087,-4.0087,-4.0087,-4.0087,-4.0087,-4.0087,-4.0087,-4.0087,-4.0087,-4.0087,-4.0087,-4.0087,-4.0087,-4.0087,-4.0087,-4.007,-4.0121,-4.0138,-4.0238,-4.0355,-4.0436,-4.0728,-4.0982,-4.1076,-4.138,-4.1692,-4.1909,-4.2145,-4.2611,-4.3286,-4.4922,-4.63,-4.7219,-4.7901,-4.8324,-4.8269,-4.7755,-4.7719,-4.8526,-4.9389,-5.0196,-5.0986,-5.1793,-5.2527,-5.3133,-5.3206,-5.3151,-5.3206,-5.3206,-5.3206,-5.3206,-5.3206,-5.3206,-5.3206,-5.3206,-5.3206,-5.3206,-5.3206,-5.3206,-5.3206,-5.3206,-5.3206,-5.3206,-5.3206,-5.3206,-5.3206,-5.3206,-5.3206,-5.3206,-5.3206,-5.3206,-5.3206,-5.3206,-5.3206,-5.3206,-5.3206,-5.3206,-5.3206,-5.3206,-5.3206,-5.3206,-5.3206,-5.3206,-5.3206,-5.3206,-5.3206,-3.4278,-3.4868,-3.4935,-3.5148,-3.5489,-3.5489,-3.5489,-3.5489,-3.5653,-3.5831,-3.6037,-3.6352,-3.6739,-3.706,-3.7539,-3.786,-3.8173,-3.8567,-3.8969,-3.9272,-3.959,-3.9781,-3.9901,-4.0037,-4.0087,-4.0087,-4.0087,-4.0087,-4.0087,-4.0087,-4.0087,-4.0087,-4.0087,-4.0087,-4.0087,-4.0087,-4.0087,-4.0087,-4.0087,-4.0087,-4.0087,-4.0087,-4.0087,-4.0087,-4.0087,-4.0138,-4.0238,-4.0288,-4.0436,-4.0823,-4.0871,-4.1123,-4.1471,-4.156,-4.1823,-4.2187,-4.2369,-4.3224,-4.5124,-4.6282,-4.7219,-4.8066,-4.8251,-4.8324,-4.8324,-4.8251,-4.8563,-4.9389,-5.0215,-5.0967,-5.1811,-5.2582,-5.3059,-5.317,-5.3206,-5.3206,-5.3206,-5.3206,-5.3206,-5.3206,-5.3206,-5.3206,-5.3206,-5.3206,-5.3206,-5.3206,-5.3206,-5.3206,-5.3206,-5.3206,-5.3206,-5.3206,-5.3206,-5.3206,-5.3206,-5.3206,-5.3206,-5.3206,-5.3206,-5.3206,-5.3206,-5.3206,-5.3206,-5.3206,-5.3206,-5.3206,-5.3206,-5.3206,-5.3206,-5.3206,-5.3206,-5.3206,-5.3206,-5.3206,-5.3206,-3.4278,-3.4935,-3.4935,-3.5133,-3.5504,-3.5489,-3.5489,-3.5489,-3.5539,-3.5733,-3.5973,-3.6178,-3.6492,-3.6999,-3.7389,-3.7669,-3.8017,-3.8472,-3.8805,-3.904,-3.9468,-3.9729,-3.9781,-4.0037,-4.0087,-4.0087,-4.0087,-4.0087,-4.0087,-4.0087,-4.0087,-4.0087,-4.0087,-4.0087,-4.0087,-4.0087,-4.0087,-4.0087,-4.0087,-4.0087,-4.0087,-4.0087,-4.0087,-4.0138,-4.0171,-4.0238,-4.0305,-4.0453,-4.0648,-4.0871,-4.1059,-4.1335,-4.1604,-4.1762,-4.2019,-4.2305,-4.3001,-4.4274,-4.6166,-4.6759,-4.7386,-4.8251,-4.8324,-4.8324,-4.8343,-4.8765,-4.9428,-5.0163,-5.0622,-5.1132,-5.194,-5.2729,-5.3206,-5.3206,-5.3206,-5.3206,-5.3206,-5.3206,-5.3206,-5.3206,-5.3206,-5.3206,-5.3206,-5.3206,-5.3206,-5.3206,-5.3206,-5.3206,-5.3206,-5.3206,-5.3206,-5.3206,-5.3206,-5.3206,-5.3206,-5.3206,-5.3206,-5.3206,-5.3206,-5.3206,-5.3206,-5.3206,-5.3206,-5.3206,-5.3206,-5.3206,-5.3206,-5.3206,-5.3206,-5.3206,-5.3206,-5.3206,-5.3206,-5.3206,-5.3206,-3.4293,-3.4854,-3.5001,-3.5213,-3.5504,-3.5489,-3.5489,-3.5489,-3.5489,-3.5683,-3.5894,-3.5973,-3.6289,-3.6877,-3.7194,-3.7551,-3.7918,-3.8415,-3.8694,-3.886,-3.9415,-3.9677,-3.9729,-3.9969,-4.0087,-4.0087,-4.0087,-4.0087,-4.0087,-4.0087,-4.0087,-4.0087,-4.0087,-4.0087,-4.0087,-4.0087,-4.0087,-4.0087,-4.0087,-4.0087,-4.0087,-4.0087,-4.0087,-4.0138,-4.0238,-4.0305,-4.0337,-4.0583,-4.084,-4.0995,-4.1272,-4.1515,-4.171,-4.1995,-4.2317,-4.2848,-4.387,-4.5176,-4.6773,-4.7181,-4.7624,-4.8233,-4.8324,-4.8324,-4.8416,-4.8875,-4.9703,-5.0662,-5.0824,-5.1187,-5.2234,-5.2858,-5.3188,-5.3206,-5.3206,-5.3206,-5.3206,-5.3206,-5.3206,-5.3206,-5.3206,-5.3206,-5.3206,-5.3206,-5.3206,-5.3206,-5.3206,-5.3206,-5.3206,-5.3206,-5.3206,-5.3206,-5.3206,-5.3206,-5.3206,-5.3206,-5.3206,-5.3206,-5.3206,-5.3206,-5.3206,-5.3206,-5.3206,-5.3206,-5.3206,-5.3206,-5.3206,-5.3206,-5.3206,-5.3206,-5.3206,-5.3206,-5.3206,-5.3206,-5.3206,-3.4278,-3.4935,-3.5294,-3.5439,-3.5489,-3.5489,-3.5489,-3.5489,-3.5489,-3.5604,-3.5752,-3.5894,-3.6226,-3.6538,-3.7013,-3.7433,-3.7918,-3.8359,-3.8694,-3.886,-3.9398,-3.9677,-3.9746,-3.9986,-4.0087,-4.0087,-4.0087,-4.0087,-4.0087,-4.0087,-4.0087,-4.0087,-4.0087,-4.0087,-4.0087,-4.0087,-4.0087,-4.0087,-4.0087,-4.0087,-4.0087,-4.0087,-4.0087,-4.0138,-4.0238,-4.0337,-4.0485,-4.0728,-4.0965,-4.1163,-4.1453,-4.1692,-4.1945,-4.2199,-4.2848,-4.3927,-4.494,-4.5951,-4.6962,-4.7734,-4.8251,-4.8306,-4.8324,-4.8324,-4.8324,-4.8508,-4.9263,-5.0643,-5.0879,-5.1499,-5.2803,-5.3115,-5.3206,-5.3206,-5.3206,-5.3206,-5.3206,-5.3206,-5.3206,-5.3206,-5.3206,-5.3206,-5.3206,-5.3206,-5.3206,-5.3206,-5.3206,-5.3206,-5.3206,-5.3206,-5.3206,-5.3206,-5.3206,-5.3206,-5.3206,-5.3206,-5.3206,-5.3206,-5.3206,-5.3206,-5.3206,-5.3206,-5.3206,-5.3206,-5.3206,-5.3206,-5.3206,-5.3206,-5.3206,-5.3206,-5.3206,-5.3206,-5.3206,-5.3206,-5.3206,-3.4278,-3.4935,-3.5359,-3.5489,-3.5489,-3.5489,-3.5489,-3.5489,-3.5489,-3.5539,-3.5703,-3.5894,-3.6163,-3.6476,-3.6923,-3.7345,-3.7801,-3.8262,-3.86,-3.886,-3.9398,-3.9677,-3.9729,-3.9986,-4.0087,-4.0087,-4.0087,-4.0087,-4.0087,-4.0087,-4.0087,-4.0087,-4.0087,-4.0087,-4.0087,-4.0087,-4.0087,-4.0087,-4.0087,-4.0087,-4.0087,-4.0087,-4.0138,-4.0238,-4.0337,-4.0534,-4.0745,-4.0918,-4.1123,-4.1318,-4.1604,-4.1797,-4.2041,-4.2887,-4.3822,-4.482,-4.5893,-4.685,-4.7638,-4.8102,-4.8324,-4.8324,-4.8324,-4.8324,-4.8416,-4.882,-4.9612,-5.0606,-5.1301,-5.2068,-5.2876,-5.3206,-5.3206,-5.3206,-5.3206,-5.3206,-5.3206,-5.3206,-5.3206,-5.3206,-5.3206,-5.3206,-5.3206,-5.3206,-5.3206,-5.3206,-5.3206,-5.3206,-5.3206,-5.3206,-5.3206,-5.3206,-5.3206,-5.3206,-5.3206,-5.3206,-5.3206,-5.3206,-5.3206,-5.3206,-5.3206,-5.3206,-5.3206,-5.3206,-5.3206,-5.3206,-5.3206,-5.3206,-5.3206,-5.3206,-5.3206,-5.3206,-5.3206,-5.3206,-5.3206,-3.4481,-3.4935,-3.5359,-3.5489,-3.5489,-3.5489,-3.5489,-3.5489,-3.5489,-3.5554,-3.5638,-3.591,-3.6163,-3.6429,-3.6816,-3.7241,-3.7626,-3.8164,-3.856,-3.886,-3.9415,-3.9677,-3.9729,-3.9969,-4.0087,-4.0087,-4.0087,-4.0087,-4.0087,-4.0087,-4.0087,-4.0087,-4.0087,-4.0087,-4.0087,-4.0087,-4.0087,-4.0087,-4.0087,-4.0087,-4.0087,-4.0087,-4.0188,-4.0337,-4.0436,-4.0631,-4.0871,-4.1076,-4.1261,-4.1488,-4.171,-4.197,-4.227,-4.336,-4.4415,-4.5373,-4.6408,-4.7366,-4.808,-4.8286,-4.8324,-4.8324,-4.8324,-4.8324,-4.8361,-4.8838,-4.9648,-5.0606,-5.1246,-5.1995,-5.2931,-5.3206,-5.3206,-5.3206,-5.3206,-5.3206,-5.3206,-5.3206,-5.3206,-5.3206,-5.3206,-5.3206,-5.3206,-5.3206,-5.3206,-5.3206,-5.3206,-5.3206,-5.3206,-5.3206,-5.3206,-5.3206,-5.3206,-5.3206,-5.3206,-5.3206,-5.3206,-5.3206,-5.3206,-5.3206,-5.3206,-5.3206,-5.3206,-5.3206,-5.3206,-5.3206,-5.3206,-5.3206,-5.3206,-5.3206,-5.3206,-5.3206,-5.3206,-5.3206,-5.3206,-3.4854,-3.4935,-3.5359,-3.5489,-3.5489,-3.5489,-3.5489,-3.5489,-3.5489,-3.5504,-3.5554,-3.5861,-3.6052,-3.6178,-3.6754,-3.7165,-3.7492,-3.8091,-3.8544,-3.886,-3.9398,-3.9677,-3.9729,-3.9969,-4.0087,-4.0087,-4.0087,-4.0087,-4.0087,-4.0087,-4.0087,-4.0087,-4.0087,-4.0087,-4.0087,-4.0087,-4.0087,-4.0087,-4.0087,-4.0087,-4.0087,-4.0138,-4.0221,-4.0436,-4.0534,-4.068,-4.0918,-4.1088,-4.13,-4.1604,-4.1841,-4.2174,-4.2683,-4.3628,-4.453,-4.5619,-4.6539,-4.7441,-4.8157,-4.8324,-4.8324,-4.8324,-4.8324,-4.8324,-4.8324,-4.8398,-4.9058,-5.0475,-5.0934,-5.1481,-5.2858,-5.3206,-5.3206,-5.3206,-5.3206,-5.3206,-5.3206,-5.3206,-5.3206,-5.3206,-5.3206,-5.3206,-5.3206,-5.3206,-5.3206,-5.3206,-5.3206,-5.3206,-5.3206,-5.3206,-5.3206,-5.3206,-5.3206,-5.3206,-5.3206,-5.3206,-5.3206,-5.3206,-5.3206,-5.3206,-5.3206,-5.3206,-5.3206,-5.3206,-5.3206,-5.3206,-5.3206,-5.3206,-5.3206,-5.3206,-5.3206,-5.3206,-5.3206,-5.3206,-5.3206,-3.4935,-3.4935,-3.5359,-3.5489,-3.5489,-3.5489,-3.5489,-3.5489,-3.5489,-3.5489,-3.5554,-3.5861,-3.5988,-3.6178,-3.6693,-3.7165,-3.7476,-3.8091,-3.8544,-3.886,-3.9398,-3.9677,-3.9729,-3.9986,-4.0087,-4.0087,-4.0087,-4.0087,-4.0087,-4.0087,-4.0087,-4.0087,-4.0087,-4.0087,-4.0087,-4.0087,-4.0087,-4.0087,-4.0087,-4.0087,-4.0121,-4.0188,-4.0337,-4.0485,-4.068,-4.0871,-4.1071,-4.1163,-4.1391,-4.1736,-4.1902,-4.2412,-4.34,-4.4436,-4.5451,-4.6373,-4.7348,-4.7956,-4.8233,-4.8324,-4.8324,-4.8324,-4.8324,-4.8324,-4.8324,-4.8324,-4.9022,-5.0512,-5.082,-5.1463,-5.2803,-5.3206,-5.3206,-5.3206,-5.3206,-5.3206,-5.3206,-5.3206,-5.3206,-5.3206,-5.3206,-5.3206,-5.3206,-5.3206,-5.3206,-5.3206,-5.3206,-5.3206,-5.3206,-5.3206,-5.3206,-5.3206,-5.3206,-5.3206,-5.3206,-5.3206,-5.3206,-5.3206,-5.3206,-5.3206,-5.3206,-5.3206,-5.3206,-5.3206,-5.3206,-5.3206,-5.3206,-5.3206,-5.3206,-5.3206,-5.3206,-5.3206,-5.3206,-5.3206,-5.3206,-3.4935,-3.4935,-3.5359,-3.5489,-3.5489,-3.5489,-3.5489,-3.5489,-3.5489,-3.5489,-3.5554,-3.5846,-3.5988,-3.6178,-3.6693,-3.7165,-3.7476,-3.8075,-3.856,-3.886,-3.9398,-3.9677,-3.9729,-3.9986,-4.0087,-4.0087,-4.0087,-4.0087,-4.0087,-4.0087,-4.0087,-4.0087,-4.0087,-4.0087,-4.0087,-4.0087,-4.0087,-4.0087,-4.0087,-4.0087,-4.0138,-4.0238,-4.0355,-4.0534,-4.0776,-4.0995,-4.1163,-4.1318,-4.1515,-4.1841,-4.209,-4.2744,-4.383,-4.4898,-4.5911,-4.6813,-4.7679,-4.8306,-4.8324,-4.8324,-4.8324,-4.8324,-4.8324,-4.8324,-4.8324,-4.8324,-4.8967,-5.005,-5.0637,-5.1334,-5.2472,-5.3059,-5.3188,-5.3206,-5.3206,-5.3206,-5.3206,-5.3206,-5.3206,-5.3206,-5.3206,-5.3206,-5.3206,-5.3206,-5.3206,-5.3206,-5.3206,-5.3206,-5.3206,-5.3206,-5.3206,-5.3206,-5.3206,-5.3206,-5.3206,-5.3206,-5.3206,-5.3206,-5.3206,-5.3206,-5.3206,-5.3206,-5.3206,-5.3206,-5.3206,-5.3206,-5.3206,-5.3206,-5.3206,-5.3206,-5.3206,-5.3206,-5.3206,-5.3206,-5.3206,-3.4935,-3.4935,-3.5359,-3.5489,-3.5489,-3.5489,-3.5489,-3.5489,-3.5489,-3.5489,-3.5554,-3.5861,-3.5988,-3.6163,-3.6677,-3.7165,-3.7492,-3.8091,-3.8544,-3.8914,-3.9398,-3.9729,-3.9833,-3.9986,-4.0087,-4.0087,-4.0087,-4.0087,-4.0087,-4.0087,-4.0087,-4.0087,-4.0087,-4.0087,-4.0087,-4.0087,-4.0087,-4.0087,-4.0087,-4.0087,-4.0121,-4.0238,-4.0387,-4.0534,-4.0776,-4.1041,-4.1209,-4.1453,-4.1754,-4.203,-4.2341,-4.2983,-4.4017,-4.501,-4.5947,-4.7053,-4.7862,-4.8233,-4.8324,-4.8324,-4.8324,-4.8324,-4.8324,-4.8324,-4.8324,-4.8343,-4.8691,-4.9646,-5.0362,-5.1132,-5.1977,-5.2747,-5.3151,-5.3206,-5.3206,-5.3206,-5.3206,-5.3206,-5.3206,-5.3206,-5.3206,-5.3206,-5.3206,-5.3206,-5.3206,-5.3206,-5.3206,-5.3206,-5.3206,-5.3206,-5.3206,-5.3206,-5.3206,-5.3206,-5.3206,-5.3206,-5.3206,-5.3206,-5.3206,-5.3206,-5.3206,-5.3206,-5.3206,-5.3206,-5.3206,-5.3206,-5.3206,-5.3206,-5.3206,-5.3206,-5.3206,-5.3206,-5.3206,-5.3206,-5.3206,-3.4935,-3.4935,-3.5359,-3.5489,-3.5489,-3.5489,-3.5489,-3.5489,-3.5489,-3.5489,-3.5554,-3.5861,-3.6022,-3.6102,-3.6723,-3.7165,-3.7492,-3.8091,-3.8544,-3.8843,-3.9415,-3.9781,-3.9969,-4.0087,-4.0087,-4.0087,-4.0087,-4.0087,-4.0087,-4.0087,-4.0087,-4.0087,-4.0087,-4.0087,-4.0087,-4.0087,-4.0087,-4.0087,-4.0087,-4.0087,-4.0138,-4.032,-4.0485,-4.0517,-4.0901,-4.1117,-4.1272,-4.1648,-4.197,-4.2205,-4.2427,-4.3318,-4.4732,-4.5362,-4.6245,-4.7606,-4.8084,-4.8324,-4.8324,-4.8324,-4.8324,-4.8324,-4.8324,-4.8324,-4.8324,-4.8324,-4.8728,-4.9499,-5.0325,-5.1096,-5.1885,-5.2729,-5.3133,-5.3206,-5.3206,-5.3206,-5.3206,-5.3206,-5.3206,-5.3206,-5.3206,-5.3206,-5.3206,-5.3206,-5.3206,-5.3206,-5.3206,-5.3206,-5.3206,-5.3206,-5.3206,-5.3206,-5.3206,-5.3206,-5.3206,-5.3206,-5.3206,-5.3206,-5.3206,-5.3206,-5.3206,-5.3206,-5.3206,-5.3206,-5.3206,-5.3206,-5.3206,-5.3206,-5.3206,-5.3206,-5.3206,-5.3206,-5.3206,-5.3206,-5.3206,-3.4935,-3.4935,-3.5359,-3.5489,-3.5489,-3.5489,-3.5489,-3.5489,-3.5489,-3.5489,-3.5554,-3.5846,-3.6006,-3.6087,-3.6708,-3.715,-3.7476,-3.8091,-3.8544,-3.8843,-3.9398,-3.9833,-4.0037,-4.007,-4.0087,-4.0087,-4.0087,-4.0087,-4.0087,-4.0087,-4.0087,-4.0087,-4.0087,-4.0087,-4.0087,-4.0087,-4.0087,-4.0087,-4.0087,-4.0087,-4.0138,-4.037,-4.0468,-4.0566,-4.0931,-4.1255,-4.156,-4.1927,-4.2222,-4.2387,-4.2659,-4.3508,-4.5176,-4.5585,-4.6504,-4.8066,-4.8288,-4.8324,-4.8324,-4.8324,-4.8324,-4.8324,-4.8324,-4.8324,-4.8324,-4.8324,-4.86,-4.8985,-4.9811,-5.0618,-5.1481,-5.2509,-5.3115,-5.3206,-5.3206,-5.3206,-5.3206,-5.3206,-5.3206,-5.3206,-5.3206,-5.3206,-5.3206,-5.3206,-5.3206,-5.3206,-5.3206,-5.3206,-5.3206,-5.3206,-5.3206,-5.3206,-5.3206,-5.3206,-5.3206,-5.3206,-5.3206,-5.3206,-5.3206,-5.3206,-5.3206,-5.3206,-5.3206,-5.3206,-5.3206,-5.3206,-5.3206,-5.3206,-5.3206,-5.3206,-5.3206,-5.3206,-5.3206,-5.3206,-5.3206,-3.4935,-3.5001,-3.5374,-3.5489,-3.5489,-3.5489,-3.5489,-3.5489,-3.5489,-3.5504,-3.5569,-3.5861,-3.6054,-3.6104,-3.6708,-3.715,-3.7476,-3.8091,-3.8616,-3.9023,-3.9451,-3.9833,-4.0087,-4.0087,-4.0087,-4.0087,-4.0087,-4.0087,-4.0087,-4.0087,-4.0087,-4.0087,-4.0087,-4.0087,-4.0087,-4.0087,-4.0087,-4.0087,-4.0087,-4.0087,-4.0138,-4.0387,-4.0485,-4.0566,-4.0977,-4.1471,-4.1841,-4.2199,-4.2346,-4.2503,-4.2724,-4.3733,-4.5197,-4.5697,-4.6634,-4.7901,-4.8306,-4.8324,-4.8324,-4.8324,-4.8324,-4.8324,-4.8324,-4.8324,-4.8324,-4.8324,-4.8361,-4.8471,-4.9114,-5.0086,-5.1132,-5.2325,-5.2968,-5.3133,-5.3206,-5.3206,-5.3206,-5.3206,-5.3206,-5.3206,-5.3206,-5.3206,-5.3206,-5.3206,-5.3206,-5.3206,-5.3206,-5.3206,-5.3206,-5.3206,-5.3206,-5.3206,-5.3206,-5.3206,-5.3206,-5.3206,-5.3206,-5.3206,-5.3206,-5.3206,-5.3206,-5.3206,-5.3206,-5.3206,-5.3206,-5.3206,-5.3206,-5.3206,-5.3206,-5.3206,-5.3206,-5.3206,-5.3206,-5.3206,-5.3206,-3.5016,-3.5148,-3.5439,-3.5489,-3.5489,-3.5489,-3.5489,-3.5489,-3.5489,-3.5534,-3.5694,-3.5891,-3.6134,-3.6445,-3.6799,-3.7241,-3.7642,-3.8205,-3.8766,-3.9504,-3.9625,-3.9884,-4.0087,-4.0087,-4.0087,-4.0087,-4.0087,-4.0087,-4.0087,-4.0087,-4.0087,-4.0087,-4.0087,-4.0087,-4.0087,-4.0087,-4.0087,-4.0087,-4.0087,-4.0087,-4.0138,-4.0387,-4.0517,-4.0566,-4.1088,-4.156,-4.1945,-4.2181,-4.2387,-4.257,-4.2856,-4.3719,-4.52,-4.5697,-4.6597,-4.7846,-4.8324,-4.8324,-4.8324,-4.8324,-4.8324,-4.8324,-4.8324,-4.8324,-4.8324,-4.8324,-4.8324,-4.8453,-4.9114,-5.0068,-5.1371,-5.1977,-5.2582,-5.3023,-5.3206,-5.3206,-5.3206,-5.3206,-5.3206,-5.3206,-5.3206,-5.3206,-5.3206,-5.3206,-5.3206,-5.3206,-5.3206,-5.3206,-5.3206,-5.3206,-5.3206,-5.3206,-5.3206,-5.3206,-5.3206,-5.3206,-5.3206,-5.3206,-5.3206,-5.3206,-5.3206,-5.3206,-5.3206,-5.3206,-5.3206,-5.3206,-5.3206,-5.3206,-5.3206,-5.3206,-5.3206,-5.3206,-5.3206,-5.3206,-5.3206,-3.5001,-3.5213,-3.5439,-3.5489,-3.5489,-3.5489,-3.5489,-3.5489,-3.5489,-3.5614,-3.5724,-3.5891,-3.6182,-3.6537,-3.6845,-3.7241,-3.7759,-3.8319,-3.8969,-3.9573,-3.9729,-3.9884,-4.0087,-4.0087,-4.0087,-4.0087,-4.0087,-4.0087,-4.0087,-4.0087,-4.0087,-4.0087,-4.0087,-4.0087,-4.0087,-4.0087,-4.0087,-4.0087,-4.0087,-4.0087,-4.0138,-4.032,-4.0662,-4.0853,-4.1272,-4.1666,-4.1987,-4.2305,-4.249,-4.2631,-4.2899,-4.3814,-4.5257,-4.5809,-4.6671,-4.7937,-4.8324,-4.8324,-4.8324,-4.8324,-4.8324,-4.8324,-4.8324,-4.8324,-4.8324,-4.8324,-4.8324,-4.8379,-4.8802,-4.9627,-5.1206,-5.1867,-5.2344,-5.2986,-5.3206,-5.3206,-5.3206,-5.3206,-5.3206,-5.3206,-5.3206,-5.3206,-5.3206,-5.3206,-5.3206,-5.3206,-5.3206,-5.3206,-5.3206,-5.3206,-5.3206,-5.3206,-5.3206,-5.3206,-5.3206,-5.3206,-5.3206,-5.3206,-5.3206,-5.3206,-5.3206,-5.3206,-5.3206,-5.3206,-5.3206,-5.3206,-5.3206,-5.3206,-5.3206,-5.3206,-5.3206,-5.3206,-5.3206,-5.3206,-5.3206,-3.5067,-3.5213,-3.5424,-3.5489,-3.5489,-3.5489,-3.5489,-3.5489,-3.5489,-3.5629,-3.5739,-3.5906,-3.6212,-3.6553,-3.686,-3.7285,-3.786,-3.8472,-3.9131,-3.9625,-3.9677,-3.9884,-4.0037,-4.0087,-4.0087,-4.0087,-4.0087,-4.0087,-4.0087,-4.0087,-4.0087,-4.0087,-4.0087,-4.0087,-4.0087,-4.0087,-4.0087,-4.0087,-4.0087,-4.0138,-4.0188,-4.037,-4.071,-4.1117,-4.1408,-4.1736,-4.2012,-4.2346,-4.2591,-4.267,-4.3122,-4.4144,-4.5222,-4.5865,-4.6636,-4.8159,-4.8324,-4.8324,-4.8324,-4.8324,-4.8324,-4.8324,-4.8324,-4.8324,-4.8324,-4.8324,-4.8324,-4.8324,-4.8563,-4.9022,-5.0435,-5.1242,-5.2068,-5.2784,-5.3078,-5.3206,-5.3206,-5.3206,-5.3206,-5.3206,-5.3206,-5.3206,-5.3206,-5.3206,-5.3206,-5.3206,-5.3206,-5.3206,-5.3206,-5.3206,-5.3206,-5.3206,-5.3206,-5.3206,-5.3206,-5.3206,-5.3206,-5.3206,-5.3206,-5.3206,-5.3206,-5.3206,-5.3206,-5.3206,-5.3206,-5.3206,-5.3206,-5.3206,-5.3206,-5.3206,-5.3206,-5.3206,-5.3206,-5.3206,-5.3206,-3.5294,-3.5424,-3.5504,-3.5489,-3.5489,-3.5489,-3.5489,-3.5489,-3.5489,-3.5674,-3.5924,-3.6001,-3.6352,-3.6769,-3.6968,-3.748,-3.8148,-3.8639,-3.9131,-3.9625,-3.9729,-3.9816,-4.0087,-4.0087,-4.0087,-4.0087,-4.0087,-4.0087,-4.0087,-4.0087,-4.0087,-4.0087,-4.0087,-4.0087,-4.0087,-4.0087,-4.0087,-4.0087,-4.0138,-4.0138,-4.0238,-4.0436,-4.0758,-4.1163,-4.1453,-4.178,-4.2079,-4.2409,-4.2688,-4.2917,-4.3723,-4.4674,-4.5516,-4.5865,-4.6783,-4.7902,-4.8324,-4.8324,-4.8324,-4.8324,-4.8324,-4.8324,-4.8324,-4.8324,-4.8324,-4.8324,-4.8324,-4.8324,-4.8379,-4.8765,-4.9682,-5.0637,-5.1353,-5.2087,-5.2821,-5.3188,-5.3206,-5.3206,-5.3206,-5.3206,-5.3206,-5.3206,-5.3206,-5.3206,-5.3206,-5.3206,-5.3206,-5.3206,-5.3206,-5.3206,-5.3206,-5.3206,-5.3206,-5.3206,-5.3206,-5.3206,-5.3206,-5.3206,-5.3206,-5.3206,-5.3206,-5.3206,-5.3206,-5.3206,-5.3206,-5.3206,-5.3206,-5.3206,-5.3206,-5.3206,-5.3206,-5.3206,-5.3206,-5.3206,-5.3206,-3.5294,-3.5489,-3.5489,-3.5489,-3.5489,-3.5489,-3.5489,-3.5489,-3.5504,-3.5674,-3.5944,-3.6031,-3.6367,-3.6877,-3.7105,-3.761,-3.8359,-3.8694,-3.9131,-3.9573,-3.9729,-3.9816,-4.0087,-4.0087,-4.0087,-4.0087,-4.0087,-4.0087,-4.0087,-4.0087,-4.0087,-4.0087,-4.0087,-4.0087,-4.0087,-4.0087,-4.0087,-4.0087,-4.0138,-4.0188,-4.0305,-4.0551,-4.0901,-4.1163,-4.1542,-4.1823,-4.2103,-4.245,-4.267,-4.3045,-4.3832,-4.482,-4.5626,-4.6378,-4.7058,-4.8067,-4.8324,-4.8324,-4.8324,-4.8324,-4.8324,-4.8324,-4.8324,-4.8324,-4.8324,-4.8324,-4.8324,-4.8324,-4.8343,-4.8655,-4.9536,-5.0288,-5.1114,-5.1903,-5.2692,-5.3115,-5.3206,-5.3206,-5.3206,-5.3206,-5.3206,-5.3206,-5.3206,-5.3206,-5.3206,-5.3206,-5.3206,-5.3206,-5.3206,-5.3206,-5.3206,-5.3206,-5.3206,-5.3206,-5.3206,-5.3206,-5.3206,-5.3206,-5.3206,-5.3206,-5.3206,-5.3206,-5.3206,-5.3206,-5.3206,-5.3206,-5.3206,-5.3206,-5.3206,-5.3206,-5.3206,-5.3206,-5.3206,-5.3206,-5.3206,-3.5359,-3.5489,-3.5489,-3.5489,-3.5489,-3.5489,-3.5489,-3.5489,-3.5489,-3.5659,-3.5974,-3.608,-3.6352,-3.6907,-3.7329,-3.7844,-3.8583,-3.875,-3.9131,-3.9625,-3.9729,-3.9833,-4.0037,-4.0087,-4.0087,-4.0087,-4.0087,-4.0087,-4.0087,-4.0087,-4.0087,-4.0087,-4.0087,-4.0087,-4.0087,-4.0087,-4.0087,-4.0087,-4.0087,-4.0188,-4.0387,-4.0728,-4.1012,-4.1255,-4.1587,-4.1909,-4.2187,-4.2432,-4.2709,-4.321,-4.4034,-4.504,-4.5828,-4.68,-4.7627,-4.8159,-4.8306,-4.8324,-4.8324,-4.8324,-4.8324,-4.8324,-4.8324,-4.8324,-4.8324,-4.8324,-4.8324,-4.8324,-4.8324,-4.8489,-4.9169,-5.0013,-5.0839,-5.1628,-5.238,-5.3023,-5.3151,-5.3206,-5.3206,-5.3206,-5.3206,-5.3206,-5.3206,-5.3206,-5.3206,-5.3206,-5.3206,-5.3206,-5.3206,-5.3206,-5.3206,-5.3206,-5.3206,-5.3206,-5.3206,-5.3206,-5.3206,-5.3206,-5.3206,-5.3206,-5.3206,-5.3206,-5.3206,-5.3206,-5.3206,-5.3206,-5.3206,-5.3206,-5.3206,-5.3206,-5.3206,-5.3206,-5.3206,-5.3206,-5.323,-3.5504,-3.5489,-3.5489,-3.5489,-3.5489,-3.5489,-3.5489,-3.5489,-3.5489,-3.5729,-3.5997,-3.6034,-3.6383,-3.7042,-3.7551,-3.8091,-3.8528,-3.875,-3.9131,-3.9625,-3.9729,-3.9833,-4.0087,-4.0087,-4.0087,-4.0087,-4.0087,-4.0087,-4.0087,-4.0087,-4.0087,-4.0087,-4.0087,-4.0087,-4.0087,-4.0087,-4.0087,-4.0087,-4.0121,-4.0238,-4.0485,-4.0888,-4.1169,-4.138,-4.1675,-4.1977,-4.231,-4.253,-4.2747,-4.325,-4.4599,-4.5516,-4.6085,-4.737,-4.8012,-4.8288,-4.8324,-4.8324,-4.8324,-4.8324,-4.8324,-4.8324,-4.8324,-4.8324,-4.8324,-4.8324,-4.8324,-4.8324,-4.8324,-4.8379,-4.8691,-4.9297,-5.0068,-5.0949,-5.183,-5.2582,-5.3004,-5.3206,-5.3206,-5.3206,-5.3206,-5.3206,-5.3206,-5.3206,-5.3206,-5.3206,-5.3206,-5.3206,-5.3206,-5.3206,-5.3206,-5.3206,-5.3206,-5.3206,-5.3206,-5.3206,-5.3206,-5.3206,-5.3206,-5.3206,-5.3206,-5.3206,-5.3206,-5.3206,-5.3206,-5.3206,-5.3206,-5.3206,-5.3206,-5.3206,-5.3206,-5.3206,-5.3206,-5.3206,-5.323,-3.5489,-3.5489,-3.5489,-3.5489,-3.5489,-3.5489,-3.5489,-3.5489,-3.5489,-3.5714,-3.5937,-3.6004,-3.6445,-3.7207,-3.7727,-3.8189,-3.8639,-3.8805,-3.9131,-3.9609,-3.9729,-3.9849,-4.0037,-4.0087,-4.0087,-4.0087,-4.0087,-4.0087,-4.0087,-4.0087,-4.0087,-4.0087,-4.0087,-4.0087,-4.0087,-4.0087,-4.0087,-4.0121,-4.0271,-4.0485,-4.0728,-4.1012,-4.129,-4.1515,-4.1805,-4.2103,-4.2351,-4.2609,-4.2842,-4.3415,-4.4728,-4.568,-4.6232,-4.7315,-4.8306,-4.8306,-4.8324,-4.8324,-4.8324,-4.8324,-4.8324,-4.8324,-4.8324,-4.8324,-4.8324,-4.8324,-4.8324,-4.8324,-4.8324,-4.8324,-4.8453,-4.9095,-4.9884,-5.0692,-5.1389,-5.2234,-5.2858,-5.3096,-5.3206,-5.3206,-5.3206,-5.3206,-5.3206,-5.3206,-5.3206,-5.3206,-5.3206,-5.3206,-5.3206,-5.3206,-5.3206,-5.3206,-5.3206,-5.3206,-5.3206,-5.3206,-5.3206,-5.3206,-5.3206,-5.3206,-5.3206,-5.3206,-5.3206,-5.3206,-5.3206,-5.3206,-5.3206,-5.3206,-5.3206,-5.3206,-5.3206,-5.3206,-5.3206,-5.3254,-5.3336,-3.5489,-3.5489,-3.5489,-3.5489,-3.5489,-3.5489,-3.5489,-3.5504,-3.5554,-3.5699,-3.597,-3.6194,-3.6708,-3.7358,-3.7786,-3.8246,-3.8805,-3.886,-3.9239,-3.9556,-3.9781,-3.9884,-4.0037,-4.0087,-4.0087,-4.0087,-4.0087,-4.0087,-4.0087,-4.0087,-4.0087,-4.0087,-4.0087,-4.0087,-4.0087,-4.0121,-4.0121,-4.0188,-4.037,-4.0631,-4.0871,-4.1134,-4.1363,-4.1675,-4.1934,-4.2228,-4.2472,-4.2688,-4.2956,-4.3415,-4.4783,-4.5736,-4.6104,-4.7352,-4.8233,-4.8324,-4.8324,-4.8324,-4.8324,-4.8324,-4.8324,-4.8324,-4.8324,-4.8324,-4.8324,-4.8324,-4.8324,-4.8324,-4.8324,-4.8324,-4.8434,-4.8912,-4.9481,-5.027,-5.1096,-5.1977,-5.2711,-5.2931,-5.3133,-5.3206,-5.3206,-5.3206,-5.3206,-5.3206,-5.3206,-5.3206,-5.3206,-5.3206,-5.3206,-5.3206,-5.3206,-5.3206,-5.3206,-5.3206,-5.3206,-5.3206,-5.3206,-5.3206,-5.3206,-5.3206,-5.3206,-5.3206,-5.3206,-5.3206,-5.3206,-5.3206,-5.3206,-5.3206,-5.3206,-5.3206,-5.3206,-5.3206,-5.323,-5.3295,-5.34,-3.5489,-3.5489,-3.5489,-3.5489,-3.5489,-3.5489,-3.5489,-3.5489,-3.5653,-3.5846,-3.6115,-3.6616,-3.7029,-3.7492,-3.7886,-3.8343,-3.8805,-3.9094,-3.9415,-3.9625,-3.9833,-3.9952,-4.0087,-4.0087,-4.0087,-4.0087,-4.0087,-4.0087,-4.0087,-4.0087,-4.0087,-4.0087,-4.0087,-4.0087,-4.0121,-4.0121,-4.0171,-4.0288,-4.0436,-4.068,-4.0918,-4.1198,-4.1515,-4.1797,-4.2121,-4.2351,-4.257,-4.2804,-4.2994,-4.3287,-4.4839,-4.5773,-4.614,-4.7443,-4.8233,-4.8324,-4.8324,-4.8324,-4.8324,-4.8324,-4.8324,-4.8324,-4.8324,-4.8324,-4.8324,-4.8324,-4.8324,-4.8324,-4.8324,-4.8324,-4.8324,-4.8471,-4.9022,-4.9756,-5.06,-5.1353,-5.2123,-5.2766,-5.2968,-5.3133,-5.3206,-5.3206,-5.3206,-5.3206,-5.3206,-5.3206,-5.3206,-5.3206,-5.3206,-5.3206,-5.3206,-5.3206,-5.3206,-5.3206,-5.3206,-5.3206,-5.3206,-5.3206,-5.3206,-5.3206,-5.3206,-5.3206,-5.3206,-5.3206,-5.3206,-5.3206,-5.3206,-5.323,-5.323,-5.3206,-5.3206,-5.3272,-5.3355,-5.3477,-5.3558,-3.5489,-3.5489,-3.5489,-3.5489,-3.5489,-3.5489,-3.5489,-3.5489,-3.5638,-3.5958,-3.6304,-3.68,-3.7241,-3.7626,-3.7943,-3.8343,-3.8805,-3.9148,-3.9415,-3.9677,-3.9833,-3.9986,-4.0037,-4.0087,-4.0087,-4.0087,-4.0087,-4.0087,-4.0087,-4.0087,-4.0087,-4.0087,-4.0087,-4.0087,-4.0121,-4.0188,-4.0288,-4.0436,-4.0583,-4.0776,-4.1088,-4.129,-4.156,-4.1902,-4.2187,-4.2432,-4.2609,-4.288,-4.3068,-4.3616,-4.4949,-4.5553,-4.6122,-4.7498,-4.8196,-4.8324,-4.8324,-4.8324,-4.8324,-4.8324,-4.8324,-4.8324,-4.8324,-4.8324,-4.8324,-4.8324,-4.8324,-4.8324,-4.8324,-4.8324,-4.8324,-4.8361,-4.8691,-4.937,-5.0068,-5.0784,-5.1426,-5.2087,-5.2692,-5.2839,-5.3078,-5.3206,-5.3206,-5.3206,-5.3206,-5.3206,-5.3206,-5.3206,-5.3206,-5.3206,-5.3206,-5.3206,-5.3206,-5.3206,-5.3206,-5.3206,-5.3206,-5.3206,-5.3206,-5.3206,-5.3206,-5.3206,-5.3206,-5.3206,-5.317,-5.3175,-5.3198,-5.3235,-5.3235,-5.3254,-5.3295,-5.3336,-5.3477,-5.3616,-5.3695,-3.5489,-3.5489,-3.5489,-3.5489,-3.5489,-3.5489,-3.5554,-3.5604,-3.5718,-3.6085,-3.6616,-3.6923,-3.7301,-3.7685,-3.8116,-3.8399,-3.886,-3.9202,-3.9468,-3.9677,-3.9884,-3.9986,-4.0087,-4.0087,-4.0087,-4.0087,-4.0087,-4.0087,-4.0087,-4.0087,-4.0087,-4.0087,-4.0087,-4.0087,-4.0121,-4.0238,-4.0387,-4.0485,-4.068,-4.0901,-4.1163,-4.1453,-4.1666,-4.1987,-4.2269,-4.2512,-4.2727,-4.2974,-4.316,-4.3762,-4.473,-4.57,-4.6415,-4.7223,-4.8141,-4.8324,-4.8324,-4.8324,-4.8324,-4.8324,-4.8324,-4.8324,-4.8324,-4.8324,-4.8324,-4.8324,-4.8324,-4.8324,-4.8324,-4.8324,-4.8324,-4.8361,-4.8416,-4.9003,-4.9536,-5.0196,-5.071,-5.1316,-5.2013,-5.2546,-5.2711,-5.2821,-5.3151,-5.3151,-5.3078,-5.3115,-5.3206,-5.3206,-5.3206,-5.3206,-5.3206,-5.3206,-5.3206,-5.3206,-5.3206,-5.3206,-5.3206,-5.3206,-5.3206,-5.3206,-5.3206,-5.3206,-5.323,-5.3212,-5.3217,-5.3166,-5.3023,-5.2825,-5.3046,-5.3322,-5.3326,-5.3311,-5.3558,-5.3695,-5.3716,-3.5489,-3.5489,-3.5489,-3.5489,-3.5489,-3.5489,-3.5554,-3.5703,-3.5894,-3.6289,-3.6723,-3.7074,-3.7389,-3.7801,-3.8286,-3.8623,-3.8898,-3.9398,-3.9677,-3.9729,-3.9935,-4.0087,-4.0087,-4.0087,-4.0087,-4.0087,-4.0087,-4.0087,-4.0087,-4.0087,-4.0087,-4.0087,-4.0087,-4.0087,-4.0121,-4.0238,-4.0337,-4.0534,-4.0776,-4.0995,-4.1209,-4.1542,-4.1797,-4.203,-4.2369,-4.2609,-4.2783,-4.3031,-4.3214,-4.3615,-4.5004,-4.5828,-4.6085,-4.7462,-4.8233,-4.8324,-4.8324,-4.8324,-4.8324,-4.8324,-4.8324,-4.8324,-4.8324,-4.8324,-4.8324,-4.8324,-4.8324,-4.8324,-4.8324,-4.8324,-4.8324,-4.8324,-4.8416,-4.86,-4.9132,-4.9591,-5.0105,-5.049,-5.1187,-5.183,-5.2032,-5.2234,-5.2766,-5.3059,-5.2968,-5.3004,-5.3151,-5.3188,-5.3151,-5.3206,-5.3206,-5.3206,-5.3206,-5.3206,-5.3206,-5.3206,-5.3206,-5.3206,-5.3206,-5.3206,-5.3206,-5.3188,-5.3212,-5.324,-5.3042,-5.2825,-5.2533,-5.2299,-5.2523,-5.2708,-5.3133,-5.3265,-5.3547,-5.3512,-5.3273,-3.5489,-3.5489,-3.5489,-3.5489,-3.5489,-3.5489,-3.5539,-3.5767,-3.6148,-3.6554,-3.6923,-3.7194,-3.7594,-3.8001,-3.8415,-3.8733,-3.9007,-3.9398,-3.9677,-3.9729,-3.9969,-4.0087,-4.0087,-4.0087,-4.0087,-4.0087,-4.0087,-4.0087,-4.0087,-4.0087,-4.0087,-4.0087,-4.0087,-4.0087,-4.0171,-4.0271,-4.0468,-4.0534,-4.084,-4.1123,-4.1226,-4.1587,-4.1884,-4.2005,-4.2409,-4.2649,-4.2822,-4.3068,-4.3251,-4.3577,-4.5022,-4.5828,-4.6159,-4.7425,-4.8269,-4.8324,-4.8324,-4.8324,-4.8324,-4.8324,-4.8324,-4.8324,-4.8324,-4.8324,-4.8324,-4.8324,-4.8324,-4.8324,-4.8324,-4.8324,-4.8324,-4.8324,-4.8361,-4.8361,-4.8746,-4.9114,-4.9536,-4.9811,-5.027,-5.0875,-5.1242,-5.1316,-5.1683,-5.2087,-5.2142,-5.2325,-5.2435,-5.2839,-5.2931,-5.3096,-5.3188,-5.3206,-5.3206,-5.3206,-5.3188,-5.3004,-5.3115,-5.3206,-5.3206,-5.3206,-5.3206,-5.3101,-5.2854,-5.2641,-5.2552,-5.2426,-5.1913,-5.1564,-5.1769,-5.2048,-5.2084,-5.2306,-5.2474,-5.2326,-5.2029,-3.5489,-3.5489,-3.5489,-3.5489,-3.5489,-3.5554,-3.5653,-3.5958,-3.6352,-3.6739,-3.7089,-3.7373,-3.7786,-3.8189,-3.8528,-3.886,-3.9131,-3.9504,-3.9729,-3.9781,-3.9969,-4.007,-4.0087,-4.0087,-4.0087,-4.0087,-4.0087,-4.0087,-4.0087,-4.0087,-4.0087,-4.0087,-4.0087,-4.0138,-4.0238,-4.0387,-4.0468,-4.0614,-4.0871,-4.1215,-4.138,-4.1648,-4.1927,-4.2139,-4.2409,-4.2706,-4.2899,-4.3068,-4.3305,-4.3851,-4.4783,-4.5828,-4.6361,-4.7241,-4.8196,-4.8324,-4.8324,-4.8324,-4.8324,-4.8324,-4.8324,-4.8324,-4.8324,-4.8324,-4.8324,-4.8324,-4.8324,-4.8324,-4.8324,-4.8324,-4.8324,-4.8324,-4.8324,-4.8324,-4.8434,-4.882,-4.8912,-4.9187,-4.9481,-5.0068,-5.038,-5.0453,-5.0655,-5.0875,-5.1151,-5.1408,-5.1683,-5.2068,-5.2417,-5.2546,-5.2601,-5.2582,-5.2564,-5.2435,-5.2491,-5.2619,-5.2803,-5.3151,-5.3096,-5.2991,-5.2831,-5.2674,-5.2327,-5.1999,-5.1874,-5.16,-5.1009,-5.0768,-5.0693,-5.0582,-5.049,-5.0768,-5.1231,-5.1268,-5.1138,-3.5504,-3.5504,-3.5504,-3.5504,-3.5554,-3.5718,-3.5879,-3.6211,-3.6585,-3.6907,-3.7194,-3.7567,-3.7976,-3.8375,-3.8711,-3.8985,-3.9255,-3.9573,-3.9729,-3.9884,-4.0037,-4.0087,-4.0087,-4.0087,-4.0087,-4.0087,-4.0087,-4.0087,-4.0087,-4.0087,-4.0087,-4.0087,-4.0087,-4.0138,-4.0288,-4.0436,-4.0485,-4.0662,-4.0965,-4.1198,-4.1426,-4.1736,-4.2055,-4.2246,-4.249,-4.2745,-4.2974,-4.316,-4.3322,-4.3941,-4.4984,-4.5608,-4.6397,-4.7462,-4.8012,-4.8324,-4.8324,-4.8324,-4.8324,-4.8324,-4.8324,-4.8324,-4.8324,-4.8324,-4.8324,-4.8324,-4.8324,-4.8324,-4.8324,-4.8324,-4.8324,-4.8324,-4.8324,-4.8324,-4.8324,-4.8416,-4.8416,-4.8618,-4.8875,-4.9224,-4.9462,-4.9682,-5.0068,-5.0288,-5.016,-5.0196,-5.038,-5.0472,-5.0857,-5.1353,-5.1408,-5.1426,-5.1408,-5.1426,-5.1591,-5.1903,-5.2091,-5.2312,-5.2537,-5.2504,-5.2342,-5.2109,-5.1706,-5.1396,-5.1176,-5.075,-5.0174,-4.9672,-4.9299,-4.9227,-4.9524,-4.9783,-5.0376,-5.0672,-5.0691,-3.5876,-3.5861,-3.5703,-3.5718,-3.5846,-3.6022,-3.6211,-3.6414,-3.68,-3.7089,-3.7358,-3.777,-3.8189,-3.8528,-3.8805,-3.9164,-3.9432,-3.9642,-3.9746,-3.9884,-4.0037,-4.0087,-4.0087,-4.0087,-4.0087,-4.0087,-4.0087,-4.0087,-4.0087,-4.0087,-4.0087,-4.0087,-4.0121,-4.0188,-4.0288,-4.0436,-4.0534,-4.0745,-4.1029,-4.1261,-4.1498,-4.1805,-4.2061,-4.231,-4.253,-4.2783,-4.3067,-4.3196,-4.3322,-4.3738,-4.5076,-4.5847,-4.603,-4.737,-4.8324,-4.8324,-4.8324,-4.8324,-4.8324,-4.8324,-4.8324,-4.8324,-4.8324,-4.8324,-4.8324,-4.8324,-4.8324,-4.8324,-4.8324,-4.8324,-4.8324,-4.8324,-4.8324,-4.8324,-4.8324,-4.8324,-4.8324,-4.8398,-4.8636,-4.8673,-4.8912,-4.8985,-4.9389,-4.9315,-4.9169,-4.9077,-4.9095,-4.9224,-4.9444,-5.0031,-5.0306,-5.0343,-5.0453,-5.0527,-5.082,-5.1132,-5.1265,-5.1434,-5.1772,-5.1885,-5.1595,-5.1302,-5.1027,-5.0713,-5.0305,-4.9841,-4.9319,-4.8983,-4.889,-4.889,-4.9132,-4.928,-4.9466,-4.9836,-4.9984,-3.5988,-3.5973,-3.5894,-3.5894,-3.6085,-3.6289,-3.6476,-3.6739,-3.6984,-3.727,-3.7551,-3.8017,-3.8415,-3.8694,-3.8985,-3.9325,-3.959,-3.9746,-3.9849,-3.9986,-4.002,-4.007,-4.0087,-4.0087,-4.0087,-4.0087,-4.0087,-4.0087,-4.0087,-4.0087,-4.0087,-4.0121,-4.0121,-4.0238,-4.0387,-4.0534,-4.0697,-4.084,-4.1093,-4.1324,-4.1604,-4.1874,-4.2127,-4.2391,-4.257,-4.286,-4.3104,-4.3214,-4.3358,-4.3718,-4.5039,-4.5865,-4.6177,-4.7388,-4.8288,-4.8324,-4.8324,-4.8324,-4.8324,-4.8324,-4.8324,-4.8324,-4.8324,-4.8324,-4.8324,-4.8324,-4.8324,-4.8324,-4.8324,-4.8324,-4.8324,-4.8324,-4.8324,-4.8324,-4.8324,-4.8324,-4.8324,-4.8324,-4.8343,-4.8343,-4.8379,-4.8398,-4.8398,-4.8324,-4.8343,-4.8526,-4.8618,-4.8636,-4.8783,-4.9095,-4.9315,-4.937,-4.9554,-4.9719,-5.0031,-5.0383,-5.0628,-5.089,-5.1318,-5.1302,-5.0916,-5.0602,-5.0379,-4.9878,-4.9284,-4.9041,-4.9002,-4.8946,-4.889,-4.889,-4.889,-4.9039,-4.9132,-4.9187,-4.9243,-3.6037,-3.6052,-3.6037,-3.6163,-3.6258,-3.6476,-3.6739,-3.6999,-3.721,-3.7449,-3.7801,-3.8221,-3.86,-3.886,-3.9218,-3.9484,-3.9694,-3.9849,-3.9952,-4.0087,-4.007,-4.0087,-4.0087,-4.0087,-4.0087,-4.0087,-4.0087,-4.0087,-4.0087,-4.0087,-4.007,-4.0121,-4.0221,-4.0337,-4.0485,-4.0631,-4.084,-4.1029,-4.1215,-4.1415,-4.1736,-4.1959,-4.221,-4.253,-4.2727,-4.2918,-4.3142,-4.3286,-4.3411,-4.3995,-4.4819,-4.581,-4.6783,-4.7443,-4.8122,-4.8324,-4.8324,-4.8324,-4.8324,-4.8324,-4.8324,-4.8324,-4.8324,-4.8324,-4.8324,-4.8324,-4.8324,-4.8324,-4.8324,-4.8324,-4.8324,-4.8324,-4.8324,-4.8324,-4.8324,-4.8324,-4.8324,-4.8324,-4.8324,-4.8324,-4.8324,-4.8324,-4.8324,-4.8324,-4.8324,-4.8324,-4.8324,-4.8324,-4.8379,-4.8545,-4.86,-4.8673,-4.8895,-4.9191,-4.9377,-4.9709,-5.0026,-5.0378,-5.0694,-5.0565,-5.0046,-4.9859,-4.9709,-4.9373,-4.9004,-4.8983,-4.8909,-4.889,-4.889,-4.889,-4.889,-4.889,-4.889,-4.889,-4.8909,-3.6367,-3.6367,-3.6476,-3.6476,-3.6492,-3.6754,-3.7044,-3.7314,-3.7508,-3.7743,-3.8075,-3.8415,-3.875,-3.9148,-3.9379,-3.959,-3.9798,-3.9901,-3.9986,-4.0087,-4.0087,-4.0087,-4.0087,-4.0087,-4.0087,-4.0087,-4.0087,-4.0087,-4.0087,-4.0087,-4.0121,-4.0121,-4.0238,-4.0404,-4.0534,-4.0728,-4.0982,-4.1198,-4.138,-4.1577,-4.1823,-4.2133,-4.2382,-4.2613,-4.2765,-4.2975,-4.316,-4.3322,-4.3446,-4.3773,-4.5094,-4.6379,-4.77,-4.8104,-4.8288,-4.8324,-4.8324,-4.8324,-4.8324,-4.8324,-4.8324,-4.8324,-4.8324,-4.8324,-4.8324,-4.8324,-4.8324,-4.8324,-4.8324,-4.8324,-4.8324,-4.8324,-4.8324,-4.8324,-4.8324,-4.8324,-4.8324,-4.8324,-4.8324,-4.8324,-4.8324,-4.8324,-4.8324,-4.8324,-4.8324,-4.8324,-4.8324,-4.8324,-4.8363,-4.8493,-4.8493,-4.8548,-4.8567,-4.8752,-4.8919,-4.9067,-4.9436,-4.9473,-4.9639,-4.9434,-4.921,-4.9264,-4.9317,-4.9132,-4.8909,-4.889,-4.889,-4.889,-4.889,-4.889,-4.889,-4.889,-4.889,-4.889,-4.889,-3.6492,-3.6492,-3.6646,-3.6662,-3.6677,-3.7029,-3.7254,-3.7433,-3.7743,-3.8065,-3.8351,-3.86,-3.8914,-3.9309,-3.9484,-3.9694,-3.9901,-3.9935,-4.0037,-4.0087,-4.0087,-4.0087,-4.0087,-4.0087,-4.0087,-4.0087,-4.0087,-4.0087,-4.0087,-4.0121,-4.0121,-4.0188,-4.0355,-4.0502,-4.068,-4.0871,-4.1105,-4.1363,-4.1604,-4.178,-4.1995,-4.2239,-4.2422,-4.2613,-4.2842,-4.305,-4.3196,-4.3322,-4.3428,-4.392,-4.5057,-4.6636,-4.7737,-4.8269,-4.8306,-4.8324,-4.8324,-4.8324,-4.8324,-4.8324,-4.8324,-4.8324,-4.8324,-4.8324,-4.8324,-4.8324,-4.8324,-4.8324,-4.8324,-4.8324,-4.8324,-4.8324,-4.8324,-4.8324,-4.8324,-4.8324,-4.8324,-4.8324,-4.8324,-4.8324,-4.8324,-4.8324,-4.8324,-4.8324,-4.8324,-4.8324,-4.8324,-4.8419,-4.8419,-4.8476,-4.8458,-4.8458,-4.855,-4.8606,-4.8808,-4.8863,-4.8936,-4.8842,-4.8839,-4.8913,-4.9041,-4.8983,-4.8909,-4.889,-4.889,-4.889,-4.889,-4.889,-4.889,-4.889,-4.889,-4.889,-4.889,-4.889,-4.889,-3.6492,-3.6538,-3.6662,-3.6785,-3.6831,-3.7238,-3.7476,-3.7594,-3.7992,-3.8359,-3.8634,-3.8799,-3.904,-3.9325,-3.959,-3.9798,-3.9952,-4.0037,-4.0087,-4.0087,-4.0087,-4.0087,-4.0087,-4.0087,-4.0087,-4.0087,-4.0087,-4.0087,-4.0087,-4.0121,-4.0188,-4.0305,-4.0502,-4.0631,-4.0888,-4.1076,-4.1307,-4.156,-4.178,-4.1995,-4.221,-4.236,-4.2498,-4.2709,-4.2936,-4.3123,-4.3251,-4.3393,-4.3479,-4.4103,-4.5021,-4.6617,-4.7755,-4.8324,-4.8324,-4.8324,-4.8324,-4.8324,-4.8324,-4.8324,-4.8324,-4.8324,-4.8324,-4.8324,-4.8324,-4.8324,-4.8324,-4.8324,-4.8324,-4.8324,-4.8324,-4.8324,-4.8324,-4.8324,-4.8324,-4.8324,-4.8324,-4.8324,-4.8324,-4.8324,-4.8324,-4.8324,-4.8324,-4.8324,-4.8324,-4.8363,-4.8401,-4.8457,-4.855,-4.8606,-4.8624,-4.8605,-4.8642,-4.8732,-4.8787,-4.8768,-4.8804,-4.8839,-4.8874,-4.8855,-4.889,-4.889,-4.889,-4.889,-4.889,-4.889,-4.889,-4.889,-4.889,-4.889,-4.889,-4.889,-4.889,-4.889,-4.889,-3.6554,-3.6662,-3.6877,-3.7044,-3.7298,-3.7567,-3.7801,-3.8049,-3.8221,-3.8489,-3.8779,-3.9084,-3.9342,-3.9621,-3.9659,-3.9833,-4.0037,-4.0087,-4.0087,-4.0087,-4.0087,-4.0087,-4.0087,-4.0087,-4.0087,-4.0087,-4.0087,-4.0087,-4.0138,-4.0205,-4.0305,-4.0355,-4.0551,-4.0745,-4.0935,-4.1169,-4.1443,-4.1692,-4.1934,-4.2228,-4.231,-4.2454,-4.2652,-4.2862,-4.3068,-4.3214,-4.3376,-4.3428,-4.3479,-4.3975,-4.5021,-4.6599,-4.7627,-4.8269,-4.8324,-4.8324,-4.8324,-4.8324,-4.8324,-4.8324,-4.8324,-4.8324,-4.8324,-4.8324,-4.8324,-4.8324,-4.8324,-4.8324,-4.8324,-4.8324,-4.8324,-4.8324,-4.8324,-4.8324,-4.8324,-4.8324,-4.8324,-4.8324,-4.8324,-4.8324,-4.8324,-4.8324,-4.8324,-4.8324,-4.8363,-4.8401,-4.8494,-4.855,-4.8587,-4.866,-4.8732,-4.8768,-4.8785,-4.8804,-4.8822,-4.8839,-4.8855,-4.889,-4.889,-4.889,-4.889,-4.889,-4.889,-4.889,-4.889,-4.889,-4.889,-4.889,-4.889,-4.889,-4.889,-4.889,-4.889,-4.889,-4.889]}]]